GFSSW_850_thetae_000.txt.gz
Theta_e
309 303 304 305 307 308 307 306 306 314 322 322 322 323 323 323 323 322 321 320 320 319 320 319 318 320 323 323 327 328 324 326 325 324 324 323 323 324 323 323 325 325 325 326 325
313 306 304 305 307 308 306 306 306 308 319 320 323 323 322 323 324 323 322 321 320 320 320 319 316 319 322 324 323 326 326 327 322 322 322 323 323 323 323 324 325 326 326 326 325
316 312 303 304 306 308 307 306 306 307 308 313 317 317 321 322 321 321 320 319 320 323 319 319 316 320 321 323 325 327 329 324 324 325 324 322 322 325 323 322 324 325 325 326 323
315 313 308 303 305 307 306 307 308 308 308 307 308 308 311 317 320 316 316 318 319 320 321 320 318 320 321 322 323 324 326 326 327 327 327 324 325 323 323 324 324 325 325 325 326
316 312 311 304 304 308 306 308 309 309 309 309 310 312 310 314 316 316 316 315 315 317 320 322 321 321 320 320 322 322 322 326 328 327 327 327 324 323 324 325 324 325 325 324 325
316 315 312 309 303 308 308 310 311 309 309 309 309 312 312 312 309 312 315 316 316 315 317 318 320 320 321 319 319 321 323 324 325 325 326 326 326 323 324 325 325 325 325 324 324
316 316 314 312 304 306 309 310 311 311 309 308 309 310 311 310 311 311 314 313 314 316 315 319 316 321 321 321 321 321 322 322 322 325 324 325 326 325 325 324 325 325 325 324 325
316 315 315 310 308 304 307 313 310 313 311 310 308 310 310 311 309 312 313 313 314 316 315 316 313 319 318 320 319 320 321 324 323 324 325 326 329 324 326 324 324 325 325 325 326
315 315 315 311 310 305 311 311 311 309 311 311 311 310 310 311 310 310 312 312 312 314 314 314 313 315 316 320 321 319 321 321 323 324 325 324 327 323 325 323 323 325 325 325 324
315 315 315 313 310 307 311 310 311 312 310 310 310 311 311 311 311 311 311 312 312 312 312 313 314 313 314 319 321 321 321 319 320 324 324 326 326 324 325 324 324 325 325 324 322
315 316 315 313 310 308 310 310 309 309 309 310 309 310 311 312 311 311 311 312 312 312 311 311 314 314 313 313 315 317 318 318 318 319 322 324 325 325 325 322 322 323 324 320 321
316 316 316 313 310 308 310 309 310 310 310 310 310 310 310 311 311 311 311 312 312 312 310 311 313 311 312 312 315 316 316 317 317 317 319 322 324 324 323 323 322 322 322 320 321
315 316 316 314 310 308 308 310 310 309 310 310 310 310 311 311 311 312 311 311 311 312 311 311 311 310 312 313 315 315 315 315 317 317 318 319 321 323 323 322 324 323 324 321 321
314 316 316 312 310 307 308 310 310 310 309 310 309 311 312 311 313 311 311 311 311 311 310 310 310 311 311 313 313 314 314 316 317 319 320 323 327 322 323 323 320 321 320 320 321
314 315 315 314 310 307 306 309 309 310 301 308 309 311 312 312 313 312 312 311 312 310 310 310 311 311 311 311 312 313 313 313 316 317 317 319 322 324 320 322 321 319 319 320 321
315 316 315 312 308 307 307 309 310 307 305 311 311 311 312 312 313 312 312 312 312 311 311 309 310 310 310 310 310 312 313 313 315 317 319 318 323 323 322 321 320 317 317 318 320
313 315 314 312 308 308 310 311 308 308 310 312 312 311 311 313 312 312 312 313 313 313 312 312 311 309 312 312 311 311 313 317 317 316 318 316 322 319 319 319 320 317 316 317 319
309 315 313 310 308 309 311 309 308 309 311 310 310 311 311 311 312 312 313 312 312 311 313 312 312 311 310 311 312 313 313 315 314 315 315 321 322 322 320 319 319 320 318 317 318
307 314 312 308 309 309 309 310 306 311 312 311 311 312 312 312 311 312 312 311 310 310 312 312 312 311 311 311 311 312 312 312 315 316 319 321 322 321 321 316 314 315 315 315 317
307 311 311 307 308 309 309 309 310 312 312 313 315 312 313 312 312 311 312 310 311 310 309 308 307 310 310 312 311 312 311 313 313 317 320 322 323 325 322 315 315 315 315 316 316
310 308 308 307 309 308 310 307 310 313 313 314 315 315 312 309 310 310 310 309 309 309 308 309 310 311 311 312 313 313 313 314 312 316 323 327 325 319 320 316 317 316 316 315 316
308 309 308 310 310 309 312 311 311 313 313 313 313 313 313 309 310 308 309 307 310 309 310 310 313 313 312 310 312 312 313 313 315 314 319 320 319 313 319 316 316 316 316 315 316
310 311 308 310 312 310 311 311 311 314 314 314 314 313 312 312 311 309 309 309 310 309 310 312 315 315 315 313 312 317 313 315 314 318 321 322 320 314 311 312 315 315 315 315 316
309 313 311 310 311 311 311 313 313 313 314 314 315 313 315 315 310 312 311 311 311 311 312 312 314 315 317 318 316 317 317 316 318 319 318 319 319 317 315 312 312 314 315 315 316
311 313 311 311 312 312 312 314 314 315 314 314 313 314 315 315 312 312 311 310 312 313 314 312 314 312 313 314 313 319 320 318 320 319 318 317 317 316 316 312 311 315 315 315 315
312 314 312 311 312 313 313 315 315 316 316 315 315 315 313 316 311 312 312 313 314 314 313 311 313 312 315 318 318 322 321 322 320 317 317 318 318 315 312 312 312 314 315 314 315
311 314 313 312 312 313 314 314 314 313 314 314 315 315 315 314 314 315 315 314 313 316 312 311 312 315 322 323 322 326 322 321 315 314 314 318 318 312 312 312 311 314 315 315 315

GFSSW_850_thetae_003.txt.gz
Theta_e
315 315 305 303 304 307 308 307 306 310 320 321 321 321 322 322 322 321 320 320 320 318 318 318 318 318 321 321 324 327 324 325 324 322 323 321 322 322 323 322 323 324 324 324 326
316 315 312 303 304 306 308 307 306 307 316 322 323 322 324 324 322 322 320 322 321 320 320 319 318 317 321 323 323 325 326 325 322 320 320 322 322 322 322 322 323 324 325 325 326
316 316 315 310 304 306 308 307 306 307 309 315 320 321 322 321 322 322 323 322 321 320 320 320 318 317 321 323 324 325 327 324 324 325 325 322 321 323 322 320 323 324 324 325 326
317 316 315 312 305 305 307 307 307 308 308 309 311 316 317 321 321 316 317 318 319 321 322 321 319 319 319 321 323 323 324 325 325 326 326 324 324 322 322 321 323 323 323 324 325
317 317 316 313 309 304 307 307 307 309 310 309 309 310 310 318 319 314 314 315 318 320 320 322 322 320 319 319 321 321 321 323 324 326 326 326 325 323 323 325 324 325 323 324 324
316 317 315 315 312 305 307 306 309 309 312 309 309 313 312 311 310 316 317 316 315 316 317 319 318 320 320 319 319 320 320 321 323 323 324 325 325 325 323 323 324 324 324 324 324
315 317 316 316 314 310 307 309 311 312 309 309 310 311 313 311 310 309 314 316 315 316 314 313 317 320 320 320 320 320 319 319 320 322 322 324 325 323 324 325 324 324 324 324 324
315 315 316 316 315 311 306 310 313 312 313 311 309 310 311 311 309 311 311 312 314 315 315 315 314 313 317 318 318 319 318 321 319 321 322 324 325 323 325 325 325 325 323 324 324
314 314 316 316 316 310 308 309 312 310 312 312 312 309 310 311 311 310 311 312 313 314 315 315 314 313 315 319 320 318 318 319 320 320 323 323 325 322 324 324 322 324 324 324 324
314 315 316 315 316 310 307 311 311 311 309 311 310 310 310 311 310 311 310 311 312 312 313 313 314 315 315 318 318 318 320 319 318 321 322 322 322 321 323 323 321 323 324 324 324
313 315 316 315 314 311 308 311 310 310 310 310 310 310 310 311 311 311 310 311 311 312 310 311 314 316 315 313 316 315 317 319 317 317 317 318 318 319 321 322 322 322 323 323 325
313 314 316 317 315 311 308 310 309 309 309 310 310 310 311 311 311 311 311 312 311 311 309 311 312 311 310 311 312 314 317 317 316 316 317 317 317 317 317 318 321 322 323 324 324
311 314 316 316 315 311 309 309 309 309 308 308 309 310 310 310 311 311 311 312 310 310 309 311 310 310 311 311 313 313 313 314 315 314 314 314 316 316 316 318 321 322 323 324 323
309 313 315 317 311 310 309 307 309 309 304 306 310 311 310 311 312 311 311 310 310 310 310 311 310 310 310 311 311 313 312 314 314 314 315 317 318 317 317 318 319 321 322 323 324
304 310 314 316 312 310 310 307 310 309 301 307 309 311 312 311 313 312 311 310 311 309 309 310 309 309 310 310 310 311 311 312 314 315 314 315 317 315 316 317 318 318 320 322 323
305 306 314 315 312 311 308 307 309 305 304 311 311 311 313 312 313 311 311 311 311 310 310 308 309 309 309 309 309 311 311 311 312 313 315 313 315 314 315 319 317 316 320 321 321
306 304 310 314 312 308 307 309 308 308 309 312 311 311 311 313 312 312 313 313 313 313 312 313 310 308 310 310 309 309 311 315 316 315 314 312 314 314 314 315 316 316 317 319 318
306 305 309 314 312 306 309 309 305 307 310 310 310 311 311 311 312 311 313 313 312 309 312 311 310 310 308 310 310 311 310 311 314 313 310 310 313 315 315 314 315 317 318 318 316
306 307 304 311 311 307 309 306 306 307 310 310 310 311 311 311 311 312 313 311 309 310 310 308 309 309 309 309 310 312 313 310 311 311 316 314 316 318 318 318 317 315 316 317 317
305 308 309 309 308 309 308 306 306 310 309 310 312 311 312 311 312 311 309 309 310 308 308 309 311 309 310 309 309 309 309 313 312 314 315 313 318 319 318 318 316 313 313 315 316
304 304 309 309 309 309 309 304 307 312 311 312 312 313 311 311 310 309 309 308 309 308 309 310 308 309 310 312 311 311 311 311 309 310 310 315 314 315 316 316 313 312 314 314 315
303 306 309 307 309 309 309 307 309 311 312 312 312 313 312 309 309 307 308 308 308 308 311 310 311 311 310 310 309 311 310 310 313 307 309 315 316 316 314 311 313 313 315 315 315
305 310 308 308 309 309 309 310 311 313 313 314 313 312 312 311 310 308 308 308 309 309 310 310 314 312 316 313 311 314 311 310 310 312 310 310 310 315 315 312 314 315 314 314 315
308 308 308 308 310 308 309 310 311 312 312 313 314 312 312 313 310 311 309 310 309 310 311 310 313 314 314 316 314 313 314 311 310 312 314 315 316 315 315 315 312 313 313 314 315
307 310 306 310 310 308 309 312 312 313 313 313 314 314 314 314 313 311 311 311 311 311 311 312 313 313 313 313 314 315 315 313 313 312 313 313 315 314 314 314 313 313 313 313 315
310 311 308 308 311 310 310 312 314 313 314 315 315 314 314 315 312 310 311 311 312 313 312 313 314 311 314 313 313 314 314 317 314 315 314 317 316 314 314 313 310 312 313 313 314
305 312 311 309 312 311 311 312 314 314 314 314 313 314 315 314 312 312 312 314 313 315 314 311 311 314 317 319 316 316 315 317 317 317 317 318 317 315 314 311 311 312 313 314 314

GFSSW_850_thetae_006.txt.gz
Theta_e
318 316 315 314 304 304 305 308 307 306 312 318 320 318 318 319 319 320 320 319 319 319 318 318 318 318 318 321 321 325 323 324 322 321 321 321 320 321 322 322 322 323 323 324 325
319 318 316 314 313 303 305 308 307 306 308 317 321 321 321 323 323 321 321 321 320 319 318 320 319 317 318 322 321 324 324 323 320 319 321 321 321 321 321 321 322 323 324 324 325
316 319 316 315 315 309 305 308 307 307 308 311 320 322 322 323 322 321 321 321 321 321 321 320 318 316 319 322 322 323 325 323 323 323 324 322 321 323 321 321 323 323 324 324 325
314 318 318 315 315 312 304 307 308 311 313 310 312 318 321 323 322 319 319 320 322 322 323 321 320 317 318 319 322 323 322 324 324 325 325 324 324 321 321 322 323 324 324 322 324
314 315 317 317 315 314 305 307 308 310 311 311 312 311 315 319 320 315 315 316 318 321 324 321 321 319 318 317 319 320 320 322 323 323 324 325 324 324 324 326 326 325 324 324 323
310 314 315 317 315 314 309 306 307 309 312 310 311 313 312 313 314 318 315 315 318 321 322 322 320 319 319 318 318 318 319 319 320 321 323 323 323 323 324 325 324 323 323 324 324
315 313 314 317 315 315 313 306 307 310 312 311 310 312 313 311 311 310 316 316 315 317 317 317 319 319 319 319 319 319 318 317 318 320 320 322 322 322 322 323 324 324 325 325 325
315 312 314 315 317 315 313 309 311 313 313 312 309 311 311 311 310 310 311 315 315 315 315 315 315 314 318 318 317 319 318 320 317 317 319 322 323 320 321 321 322 323 324 325 326
312 314 314 315 316 316 313 309 310 313 311 313 313 309 310 311 312 310 311 311 313 315 314 315 314 313 315 316 315 317 316 317 317 317 319 320 321 320 322 321 321 322 323 323 324
309 313 314 315 317 317 312 309 309 310 310 311 311 310 311 311 311 311 310 311 312 313 313 313 313 312 313 313 313 314 317 317 318 317 316 319 321 319 319 320 321 322 323 323 323
306 309 313 314 316 317 311 310 311 309 310 310 310 310 310 311 310 310 310 310 311 311 311 311 313 315 314 312 313 315 315 316 315 315 316 315 315 315 315 317 318 320 321 322 323
306 306 311 314 316 316 312 309 310 308 309 309 310 310 311 310 311 311 310 311 311 310 309 311 311 310 311 311 313 315 316 316 313 314 315 314 314 313 313 315 317 318 319 321 322
303 304 306 314 315 315 312 309 309 309 308 308 309 310 310 310 310 311 311 311 309 309 310 310 310 309 311 311 312 311 312 312 312 311 311 311 311 311 312 313 314 315 316 318 320
302 302 304 313 315 314 310 309 309 309 299 304 308 309 309 310 310 310 310 311 309 310 309 310 310 310 309 310 310 312 311 312 313 312 311 310 312 311 310 312 312 314 315 318 319
301 301 303 308 312 312 312 309 308 308 301 307 309 310 310 310 311 310 311 310 309 308 309 309 309 309 310 310 309 311 310 311 312 313 313 312 313 310 309 311 314 314 317 318 319
301 301 303 306 310 312 312 308 309 300 301 310 309 312 311 310 312 311 311 311 311 310 309 307 308 308 308 308 308 310 309 310 310 313 313 310 313 311 309 309 312 312 315 318 320
302 303 304 305 310 312 308 309 306 303 308 312 311 312 312 312 312 312 311 312 313 313 312 312 311 309 309 309 308 309 311 313 315 315 312 309 311 311 309 310 311 312 315 317 317
304 304 304 304 305 311 306 306 304 306 308 310 309 310 311 312 311 312 313 313 311 311 312 309 307 310 308 309 310 309 310 311 311 315 309 309 312 311 310 310 311 311 315 317 318
305 305 306 304 307 309 308 309 306 307 310 310 309 310 310 310 311 311 312 312 311 311 312 311 308 308 308 309 310 313 311 309 311 310 312 310 310 311 313 313 313 311 313 314 315
305 305 306 304 309 307 308 307 305 308 309 309 311 310 311 311 310 311 311 308 311 310 309 309 311 307 309 309 309 311 310 313 311 312 310 309 309 311 312 314 312 312 312 314 315
304 305 305 304 307 307 309 306 306 310 310 310 311 311 311 311 311 311 308 307 308 308 308 308 310 308 310 310 310 311 311 310 310 311 307 309 308 309 313 313 313 312 312 314 316
302 306 308 306 307 307 306 305 307 311 311 313 311 312 311 309 309 306 307 307 308 308 309 309 312 310 309 308 309 309 309 309 311 306 307 304 309 312 315 312 311 313 312 313 314
302 308 309 306 309 309 307 308 310 312 312 312 312 312 312 311 310 307 307 307 308 309 309 309 312 313 311 310 310 312 310 309 309 310 307 307 308 307 310 313 313 312 313 314 314
303 309 308 307 307 309 309 309 310 311 312 313 313 311 312 313 309 309 308 309 308 309 310 310 313 312 312 314 312 313 311 310 310 311 310 310 310 309 311 313 313 313 313 314 314
307 306 305 306 309 308 309 309 310 311 312 313 314 313 314 316 313 311 309 309 309 310 311 311 312 312 312 311 311 314 313 312 311 310 310 309 310 311 311 311 313 313 313 313 313
308 308 306 307 308 306 307 310 310 311 313 313 312 313 313 315 313 310 311 311 312 310 311 311 312 311 313 313 312 314 314 314 314 311 310 310 310 310 311 312 313 311 312 313 313
303 306 308 309 310 307 308 310 310 313 311 312 313 314 314 314 313 313 312 311 312 313 312 311 310 314 315 316 317 315 314 313 314 313 311 312 311 310 312 313 310 310 312 313 314

GFSSW_850_thetae_009.txt.gz
Theta_e
317 315 319 316 316 314 304 304 307 307 307 310 318 320 314 313 318 320 318 316 318 318 318 318 318 318 318 319 321 324 326 327 324 322 322 320 320 321 322 321 322 322 322 323 324
314 316 315 318 316 315 313 304 307 308 306 310 318 321 319 321 320 320 320 321 320 319 319 318 319 318 317 321 321 324 327 326 321 320 321 321 321 321 322 321 322 323 323 323 324
310 314 314 319 316 315 315 307 306 308 307 308 317 320 321 322 323 322 321 321 321 321 321 320 319 317 318 321 320 322 325 322 322 322 322 322 322 322 321 322 322 324 323 323 323
318 310 314 315 318 315 315 311 306 308 310 310 312 317 320 320 321 319 320 320 320 322 323 321 319 316 318 320 321 323 322 322 323 323 324 324 324 324 321 323 324 322 324 325 324
315 316 313 315 317 316 315 313 305 307 311 310 309 312 316 319 321 316 316 317 319 324 322 321 320 317 317 317 318 320 320 321 322 322 322 323 323 324 324 325 325 326 326 325 324
313 315 313 314 315 317 314 314 305 307 311 312 310 312 312 316 317 319 315 315 318 322 322 321 320 319 318 318 318 317 318 318 319 319 321 322 322 322 322 322 322 324 324 324 323
308 312 314 313 314 317 315 314 307 307 311 312 310 312 313 311 310 310 316 316 317 323 321 320 320 318 318 318 318 318 319 317 317 318 319 321 322 322 321 321 321 321 321 321 323
305 309 311 313 314 316 316 314 309 310 312 312 309 311 311 311 311 311 314 316 318 317 316 315 316 317 318 317 316 318 318 319 316 317 318 320 319 320 320 320 321 321 320 321 320
303 305 308 313 314 314 317 313 308 312 312 314 312 309 310 311 311 311 310 315 315 315 315 315 314 313 315 315 315 316 316 318 317 316 318 320 321 318 319 319 319 320 320 321 322
301 302 306 309 314 315 316 313 309 312 311 311 312 311 311 311 311 311 311 311 312 314 314 314 313 312 314 315 314 314 316 315 316 316 316 317 318 317 318 319 319 318 319 320 321
301 301 303 305 313 315 316 311 310 310 310 309 309 310 310 310 310 310 310 311 312 312 312 311 313 313 313 312 312 314 315 315 315 314 314 315 315 315 314 314 315 315 316 317 318
300 301 302 304 309 313 315 311 311 310 309 309 309 310 310 310 311 311 310 311 311 311 309 311 312 311 310 311 313 314 315 315 313 313 314 313 313 312 312 312 313 314 315 316 317
300 302 302 303 305 312 312 311 312 311 307 307 309 309 310 310 310 311 310 310 309 309 310 311 310 309 310 311 313 313 313 313 313 311 311 311 311 310 309 309 311 312 313 314 315
301 300 302 303 304 310 312 310 310 310 299 305 307 309 309 310 309 310 310 310 309 311 311 310 310 310 309 311 311 312 310 312 312 312 312 309 312 310 310 310 310 310 311 312 313
300 301 301 303 305 311 310 309 310 306 300 306 308 309 309 309 309 310 311 310 309 309 309 309 309 309 311 310 309 311 309 310 311 313 312 312 313 311 309 310 311 310 311 312 314
299 301 303 304 303 306 309 309 308 302 301 309 309 311 310 309 312 310 310 310 310 309 309 308 308 307 308 308 309 309 310 310 311 312 314 311 312 312 310 309 309 310 310 312 315
300 302 302 304 305 305 309 308 307 303 307 311 311 312 311 310 312 311 311 311 312 312 311 310 311 309 308 309 308 309 312 313 314 314 313 309 312 311 310 310 309 310 311 313 314
301 303 303 304 304 306 308 306 308 306 308 309 310 312 312 311 312 312 311 312 311 311 310 306 307 310 309 310 309 310 310 313 313 312 312 308 313 311 309 310 310 310 310 310 311
304 304 305 305 304 303 307 310 307 306 309 310 310 311 311 310 311 311 313 313 312 311 312 309 309 307 307 308 309 311 311 310 312 311 313 311 310 309 309 310 311 312 314 313 314
303 304 305 305 304 303 305 309 305 309 309 309 311 310 311 311 311 312 312 309 311 310 310 310 310 306 308 308 308 311 310 312 311 313 313 309 309 311 308 310 312 312 313 313 313
302 304 305 304 304 305 309 306 306 309 309 310 310 310 309 310 310 311 308 306 307 308 309 309 309 308 310 310 310 311 312 312 311 312 312 310 308 306 307 312 312 312 312 313 314
301 306 304 305 305 302 308 305 309 309 311 312 310 310 309 309 311 310 307 306 307 307 310 308 310 311 308 308 309 309 310 310 311 309 309 307 310 307 310 312 310 311 312 313 314
302 306 304 305 308 308 307 309 310 311 312 312 312 311 310 309 310 308 306 306 307 307 308 309 311 309 307 310 309 311 310 310 310 309 310 309 309 306 306 310 311 312 312 313 314
303 307 306 306 307 306 308 308 310 311 311 312 311 310 311 312 309 309 308 308 307 308 309 309 311 308 312 313 311 313 311 310 310 312 310 310 309 308 308 310 311 310 312 313 313
305 306 304 307 308 308 308 308 310 311 311 312 312 313 312 315 313 312 308 308 308 309 310 310 311 311 311 311 311 312 313 312 312 310 310 309 309 308 308 309 310 310 311 312 313
303 307 306 306 308 307 307 308 309 311 312 313 312 313 313 315 312 311 310 309 311 308 311 311 313 312 313 313 313 312 313 313 312 311 310 309 310 309 308 309 310 311 312 313 312
303 305 307 308 307 307 305 309 309 311 311 312 311 313 314 313 313 312 313 312 311 311 311 311 311 313 315 314 315 317 314 313 313 312 311 312 311 310 310 311 311 312 310 311 312

GFSSW_850_thetae_012.txt.gz
Theta_e
317 314 316 317 317 317 316 313 305 306 308 307 314 318 320 310 313 323 320 319 317 318 319 319 319 319 319 321 323 325 325 324 324 324 323 322 323 322 321 322 323 323 324 324 323
318 317 315 315 316 319 316 314 313 305 308 307 315 319 317 314 318 319 317 319 319 319 320 320 319 319 319 321 322 324 325 323 323 323 323 322 323 323 323 323 324 324 324 323 323
314 316 316 314 315 319 317 315 314 305 308 307 314 318 320 322 321 322 322 322 321 320 322 320 320 319 319 321 321 322 325 323 324 323 323 323 323 323 323 324 324 325 325 324 324
308 313 314 313 315 316 318 316 314 305 308 309 311 317 320 322 323 319 320 320 321 322 322 321 320 319 320 321 321 322 321 322 322 323 325 325 324 325 323 323 323 324 323 324 325
305 308 312 315 314 315 318 315 314 305 307 310 309 314 318 319 320 317 316 318 320 323 323 322 320 319 321 319 320 322 321 321 321 322 322 322 323 324 323 323 324 325 325 326 326
304 305 309 312 314 314 316 316 314 306 307 311 310 310 314 319 318 320 316 315 318 323 323 322 322 320 319 319 319 319 320 320 320 320 320 321 321 321 321 321 322 322 323 324 325
302 303 305 309 313 314 315 317 314 307 307 313 311 311 313 314 312 315 318 318 319 323 323 322 320 319 320 320 319 319 320 319 319 318 319 320 322 321 320 320 320 321 321 321 322
301 303 303 307 310 313 315 317 314 307 308 311 310 310 313 312 311 310 313 317 319 318 321 320 320 319 317 318 317 319 319 321 319 319 318 318 320 319 321 321 321 321 320 320 320
301 301 301 303 307 312 315 316 312 307 311 313 312 310 312 310 311 311 312 315 317 315 316 318 316 315 316 316 317 317 318 319 319 318 319 320 322 320 319 321 321 320 321 321 321
301 300 301 301 304 310 314 316 311 311 312 315 312 312 311 311 311 311 310 314 314 314 314 314 315 316 315 317 319 318 318 317 317 317 318 319 319 319 319 318 318 319 321 321 321
299 300 300 302 302 306 311 314 313 312 311 311 311 311 311 310 311 310 311 311 313 315 316 314 316 316 315 315 315 315 317 317 317 317 317 317 317 317 316 316 316 317 317 318 320
299 300 301 301 302 303 306 311 310 311 311 310 310 310 310 311 311 311 311 312 312 314 313 314 315 314 313 313 314 315 316 316 315 314 314 315 316 315 314 314 314 315 316 316 317
299 299 301 300 302 302 304 308 311 309 310 310 310 310 310 310 312 311 311 311 313 314 314 315 313 311 313 313 314 315 316 315 315 314 313 314 315 315 314 313 312 312 312 313 314
300 300 300 301 301 304 305 308 311 311 311 309 310 310 309 311 312 311 311 311 312 313 313 314 312 311 312 313 313 315 312 312 313 313 315 312 317 314 314 314 313 313 313 313 313
301 300 300 300 303 302 308 309 310 308 315 308 308 309 310 309 310 311 311 311 312 312 312 313 311 312 312 312 312 313 311 311 312 313 313 314 314 313 313 314 314 314 313 314 313
299 300 301 301 302 301 305 310 309 308 313 310 309 311 311 310 311 310 311 311 310 311 311 311 309 310 311 311 311 311 311 311 311 312 315 313 313 313 313 314 313 313 313 313 314
300 300 302 301 303 302 305 305 308 315 308 311 311 310 309 310 312 312 312 312 313 313 313 311 312 310 309 310 310 311 312 314 314 314 314 311 312 313 312 312 313 313 313 313 313
301 304 303 303 302 304 304 305 313 310 311 310 311 310 312 310 313 312 312 313 311 311 312 313 315 312 310 310 311 311 312 314 313 312 312 311 313 312 312 312 312 312 312 315 316
302 303 304 303 303 303 303 312 313 309 310 310 312 312 312 310 312 312 312 311 311 311 313 312 311 309 310 310 311 311 312 311 313 312 314 312 312 312 312 311 312 312 315 315 315
302 304 304 303 305 304 305 313 308 310 310 310 312 311 311 311 312 311 312 312 312 312 311 311 313 309 310 310 310 312 311 313 313 313 313 311 312 312 311 311 312 315 314 313 314
302 304 305 304 303 303 310 309 311 309 310 311 311 312 311 312 311 312 312 310 311 312 311 311 310 311 309 311 311 311 311 312 312 313 312 312 311 311 310 311 310 313 312 312 314
302 304 304 304 304 304 310 307 310 310 312 312 311 311 311 311 312 312 312 310 308 311 312 311 311 312 311 310 310 310 311 310 313 313 314 313 313 310 310 311 315 312 312 313 314
301 304 305 305 310 310 307 310 312 312 313 313 313 312 310 311 312 311 310 309 308 311 312 311 312 312 314 312 310 310 311 311 311 312 313 314 312 309 309 310 310 312 311 312 314
302 307 304 305 308 308 310 311 313 312 313 312 312 312 312 312 311 311 311 310 308 309 309 310 312 313 315 316 314 315 312 311 312 314 313 313 312 311 310 310 310 309 310 310 312
305 307 306 309 309 309 310 311 313 313 312 313 312 312 313 313 312 312 311 310 309 309 310 311 313 312 311 311 312 313 313 313 312 312 313 313 312 311 311 310 310 310 310 312 313
304 306 307 308 308 309 310 310 311 313 313 313 314 313 313 313 313 314 313 312 313 311 311 311 313 313 313 312 313 314 314 314 314 313 313 312 313 312 311 311 311 312 311 312 314
303 305 307 309 309 310 311 310 311 312 312 312 312 313 313 313 312 313 312 312 312 312 312 312 313 313 315 314 316 318 316 316 315 313 313 314 313 311 310 310 309 311 311 313 312

GFSSW_850_thetae_015.txt.gz
Theta_e
317 317 317 315 316 318 317 317 316 313 304 308 308 312 318 320 320 318 318 320 321 320 318 322 320 321 321 322 322 325 328 326 325 324 323 323 324 323 322 323 323 324 324 326 327
314 315 315 317 315 316 316 318 316 314 307 307 307 313 320 315 319 319 319 320 317 317 320 321 320 320 320 321 322 324 325 323 322 323 324 323 323 324 324 323 322 324 324 325 327
305 307 314 315 316 315 316 318 317 315 309 307 307 315 320 315 322 322 321 319 320 317 322 320 320 319 319 320 321 322 324 322 322 324 324 324 323 323 324 325 324 324 325 325 325
304 304 306 311 314 315 315 317 318 315 309 307 308 316 321 322 325 323 322 322 321 322 322 321 320 320 321 321 320 322 321 321 322 322 324 324 322 323 323 323 323 324 325 326 325
303 303 304 306 311 314 314 315 319 315 308 307 309 313 318 321 321 319 319 320 322 323 323 322 321 321 322 321 321 322 322 320 320 321 322 322 323 324 324 324 323 323 324 325 325
303 303 303 304 307 311 314 314 317 314 310 307 310 310 317 321 319 319 317 319 322 324 324 323 322 321 321 321 321 321 321 321 321 321 321 322 321 321 321 321 322 322 323 324 325
303 303 302 302 303 308 312 314 314 314 311 308 311 311 315 317 315 316 319 319 322 324 324 323 322 321 321 321 321 320 322 321 321 320 321 320 322 322 321 320 320 321 321 322 322
303 303 302 302 302 306 310 313 314 315 310 310 313 313 315 314 314 311 315 319 320 323 322 322 321 321 319 319 319 320 320 323 321 320 319 319 321 321 321 321 322 321 321 320 320
302 302 302 301 302 303 308 313 314 316 308 310 311 313 314 312 312 313 314 318 319 319 321 321 320 319 318 319 319 319 322 322 322 320 320 321 323 322 321 321 321 321 322 322 322
301 298 299 300 300 302 305 310 314 313 310 313 313 313 313 313 313 313 313 316 317 317 318 317 316 317 318 319 321 321 321 320 319 319 319 320 320 320 319 319 321 320 320 321 322
299 299 300 299 301 303 303 307 313 312 313 314 313 313 313 313 312 313 312 316 316 316 317 315 317 318 318 318 318 317 318 318 318 317 318 318 318 318 317 317 318 318 319 319 319
299 300 300 300 301 301 302 302 307 311 313 313 311 312 312 313 313 313 312 314 315 317 316 315 317 317 317 316 317 317 317 317 317 316 316 316 317 317 316 317 316 316 316 317 317
300 300 300 300 301 301 302 302 306 310 313 312 311 312 312 312 313 313 312 313 316 316 315 317 316 313 315 316 316 316 317 317 317 316 314 315 317 317 317 317 316 315 315 315 315
300 300 300 301 301 304 305 304 303 308 312 312 311 311 311 312 313 313 313 313 314 315 315 316 315 313 314 315 315 317 315 315 315 315 317 314 317 315 315 315 316 315 315 315 314
299 299 300 300 301 302 304 307 305 309 319 311 311 311 311 311 312 312 312 312 314 314 314 315 313 314 314 314 313 315 313 313 313 314 313 314 315 315 314 314 314 315 315 315 315
300 300 300 302 300 302 303 303 308 311 318 311 309 311 311 310 312 312 312 312 312 312 312 313 311 312 313 312 313 312 312 312 312 312 314 313 315 315 314 313 313 313 313 314 314
300 302 303 303 301 304 303 307 310 318 310 311 310 311 311 310 311 311 312 313 314 314 314 313 312 311 311 312 312 312 312 316 317 316 316 313 313 314 314 313 313 313 313 313 313
302 303 303 304 302 304 304 307 313 314 312 310 311 311 311 310 311 312 312 312 312 312 314 314 318 313 311 312 313 311 312 315 314 314 314 313 313 313 313 313 312 312 312 313 314
303 303 302 304 303 303 306 308 316 312 311 312 310 312 312 311 313 313 312 313 312 312 315 316 314 311 312 311 312 312 313 312 314 312 314 312 312 313 312 312 312 312 312 312 314
303 304 304 302 303 303 308 312 311 311 311 311 312 312 312 311 314 313 312 312 312 312 312 313 315 311 311 311 311 312 312 313 313 314 314 313 313 313 312 312 312 312 312 312 314
303 302 302 303 303 305 310 311 311 310 311 312 312 312 312 311 312 312 313 313 312 313 312 312 312 312 310 312 312 312 312 313 312 314 316 315 314 312 311 312 312 311 312 314 313
303 304 304 303 307 307 311 310 310 310 312 312 312 313 313 312 313 313 314 312 311 312 313 312 312 313 312 311 311 311 312 311 314 314 314 315 315 312 311 312 312 311 313 311 311
303 304 304 306 310 309 308 311 311 312 314 313 313 312 312 313 314 313 313 310 309 312 313 312 313 314 316 314 312 312 312 312 313 314 316 317 315 311 311 310 310 310 311 311 311
303 306 305 306 309 310 312 313 313 313 313 313 313 312 313 313 313 313 312 311 310 311 310 311 313 315 315 318 314 315 313 313 314 316 315 315 314 313 312 312 312 311 311 310 311
306 307 307 310 310 310 312 312 313 313 313 313 313 313 313 313 313 313 313 312 311 310 310 311 315 313 312 312 313 314 314 314 314 314 315 315 314 313 313 312 312 311 311 311 311
304 306 308 309 309 310 310 313 313 313 313 313 314 313 313 314 314 314 313 313 313 311 311 311 314 313 312 312 313 315 315 316 317 316 315 315 315 313 312 312 312 312 312 312 312
304 306 306 309 310 311 312 312 312 313 313 313 314 314 314 314 313 313 313 313 313 313 312 312 312 313 315 314 315 319 319 318 317 316 315 317 315 313 312 312 311 310 311 311 312

GFSSW_850_thetae_018.txt.gz
Theta_e
307 310 314 316 316 316 316 317 318 317 315 311 306 308 310 317 318 318 319 317 319 323 318 325 321 321 321 321 322 323 326 326 324 324 324 323 322 323 323 323 323 324 324 327 335
305 306 306 312 314 315 315 316 316 318 316 314 306 308 312 320 319 322 320 319 321 322 319 322 321 321 321 321 322 323 326 327 324 322 322 324 323 323 323 323 323 323 324 325 326
305 305 305 305 309 313 314 315 316 318 316 315 306 308 317 317 320 318 319 319 322 319 316 322 320 320 320 320 322 322 323 322 321 321 323 324 324 323 323 323 324 323 324 325 325
304 305 304 304 305 309 312 314 316 317 316 315 306 308 317 317 322 322 322 321 319 319 323 321 320 320 320 320 320 321 321 321 321 321 322 323 324 323 323 323 323 323 324 325 325
304 305 304 304 304 305 308 313 314 316 317 315 306 309 316 320 321 321 321 322 322 321 323 322 320 320 321 320 319 320 320 320 320 321 321 322 322 323 323 323 323 323 323 323 325
304 304 304 304 303 303 304 309 314 315 316 313 306 310 314 319 320 319 318 320 321 322 323 321 320 320 321 320 320 321 321 321 321 321 321 321 321 321 321 321 322 323 323 323 324
303 304 304 303 303 304 304 307 312 314 317 313 308 310 315 317 317 319 320 320 322 322 323 323 323 322 322 322 321 320 321 321 321 320 321 321 321 321 321 321 321 321 321 322 322
302 301 302 302 301 302 302 305 309 314 316 313 311 312 314 314 315 315 316 319 318 323 323 323 322 321 321 319 320 321 320 322 320 320 320 320 320 319 320 321 320 321 321 320 321
300 300 300 301 301 300 301 303 308 313 315 314 313 314 314 314 315 315 314 319 321 321 322 322 321 320 319 319 319 318 319 320 321 320 320 319 320 319 320 321 321 322 322 321 321
300 300 300 300 300 300 302 303 308 312 315 312 313 313 312 313 313 314 314 318 320 320 321 321 318 317 318 318 320 320 319 319 319 319 319 318 319 318 319 319 319 320 321 321 321
300 300 300 300 300 301 301 303 308 313 313 313 312 313 312 314 313 314 314 317 317 319 318 318 318 318 318 318 318 318 318 317 317 317 316 315 315 316 316 316 316 318 319 319 320
300 300 300 300 300 300 301 304 304 307 312 313 313 313 313 313 314 313 315 316 316 318 316 316 317 317 317 317 317 317 318 317 316 316 315 314 315 314 314 315 316 316 316 317 317
300 300 300 300 301 301 303 304 302 304 312 312 312 313 313 313 314 313 314 315 315 316 316 316 316 315 316 317 316 316 317 316 316 315 314 314 314 314 315 314 314 315 315 316 316
300 300 299 301 301 303 303 305 304 302 311 313 312 313 312 314 314 313 314 314 315 316 317 316 315 314 315 316 316 316 314 315 316 314 314 313 314 313 312 313 314 315 316 315 315
299 300 300 300 300 301 303 303 303 302 318 312 312 312 312 313 313 313 313 313 315 315 315 316 315 315 314 314 314 314 313 313 314 313 310 312 312 311 311 311 312 312 314 315 315
300 302 303 303 303 301 302 303 302 307 316 313 310 311 313 312 313 312 313 312 313 313 314 314 311 312 314 313 313 312 313 312 312 311 308 311 312 311 311 312 312 312 312 313 313
302 303 303 303 304 303 303 304 308 312 310 311 312 311 311 312 313 313 313 313 313 314 315 313 312 311 311 312 312 313 312 313 314 315 310 312 311 311 311 311 311 310 312 312 312
304 302 303 303 303 303 303 304 309 313 312 309 311 311 311 312 312 312 313 313 312 312 313 312 316 313 311 311 313 312 313 313 315 313 313 312 312 311 311 312 312 312 312 312 312
303 303 302 304 304 303 306 306 311 313 311 311 312 312 311 311 312 312 312 312 311 311 314 314 314 312 312 311 311 313 311 311 313 311 309 310 310 310 310 310 310 311 312 312 312
303 303 303 304 302 303 309 310 309 311 310 310 311 312 311 311 313 313 312 311 311 311 311 314 314 311 311 311 311 311 311 312 313 308 312 311 311 311 311 310 309 309 309 312 312
304 303 303 304 303 306 310 309 312 311 311 313 312 312 311 311 313 312 311 312 311 311 311 311 312 312 310 311 312 312 312 312 311 312 312 313 311 311 310 310 309 310 311 313 313
303 304 303 304 306 307 310 309 311 311 313 312 313 312 311 311 312 311 313 312 311 312 312 311 312 310 311 311 310 311 311 311 313 310 311 311 312 311 311 310 309 308 310 310 312
304 303 303 305 309 310 309 312 311 313 314 314 313 313 311 312 313 313 313 310 311 312 312 311 312 310 313 313 311 311 311 311 312 312 313 313 312 311 311 311 311 311 310 310 311
305 306 305 306 309 308 311 311 313 313 313 313 312 312 313 313 313 313 313 311 310 312 311 311 313 310 311 312 312 312 313 312 312 314 313 314 313 312 312 312 312 311 311 311 311
307 308 308 311 310 310 312 313 313 312 313 313 313 313 313 313 313 313 313 311 310 311 311 311 312 310 312 311 311 311 312 313 314 314 315 314 314 314 314 314 313 312 311 311 312
305 306 308 310 309 312 311 313 313 313 314 313 313 313 313 313 314 313 313 312 312 311 310 311 313 312 311 311 311 312 312 313 315 316 317 317 317 315 314 312 311 312 311 310 311
305 305 306 309 310 310 311 312 313 313 313 313 314 314 314 314 314 313 313 313 313 312 311 313 313 312 313 313 313 315 316 318 317 316 317 319 317 315 315 313 312 312 311 311 311

GFSSW_850_thetae_021.txt.gz
Theta_e
306 306 306 306 307 311 314 316 316 317 318 317 314 306 307 309 316 316 317 315 314 321 320 322 320 318 320 321 321 322 321 322 323 322 321 322 320 322 323 323 323 323 324 334 337
306 306 306 306 305 307 310 313 315 316 317 317 315 307 307 312 318 319 317 318 318 317 322 323 322 320 320 320 321 320 321 323 322 320 320 322 323 323 322 322 322 322 325 334 333
305 305 305 305 305 305 306 309 313 315 317 317 316 308 308 318 317 317 319 319 321 322 321 320 322 320 320 320 320 320 320 322 323 322 321 323 322 323 321 320 322 322 322 325 325
305 305 305 305 305 305 305 305 310 314 316 319 316 307 310 318 320 321 319 320 321 320 320 320 321 320 318 319 320 320 320 320 320 320 321 321 323 322 323 321 322 322 322 323 325
304 304 304 304 304 304 304 305 306 312 315 317 316 310 311 318 318 321 322 320 321 318 316 318 321 320 318 317 318 317 318 320 320 320 320 320 321 321 321 323 323 322 322 323 323
304 304 303 303 303 303 303 303 305 309 314 317 315 310 312 318 318 319 319 322 322 320 318 322 321 319 320 319 318 319 319 319 320 320 320 320 319 320 321 321 321 322 322 323 323
303 301 300 302 302 302 302 302 303 306 312 317 315 310 313 315 318 320 318 319 320 321 319 321 323 321 321 321 320 320 320 319 319 320 319 320 319 319 321 320 320 320 320 322 321
301 300 300 301 301 301 301 301 301 305 311 316 314 310 312 310 316 318 319 320 321 322 321 322 323 322 321 320 319 320 319 321 318 319 320 319 320 318 320 320 320 320 320 320 321
301 300 300 300 300 300 300 300 302 303 310 315 312 311 312 314 314 316 317 320 320 322 322 322 322 321 319 318 319 318 318 318 319 318 319 318 319 317 319 319 318 318 320 320 320
301 300 300 300 300 300 300 301 302 303 308 312 312 312 312 314 315 315 315 318 320 321 322 321 320 319 318 318 319 317 317 317 317 318 318 318 316 316 319 317 316 317 319 320 320
300 300 299 300 300 300 301 301 304 307 310 313 311 312 313 313 313 314 315 317 320 320 320 320 318 320 318 315 316 317 317 316 315 314 314 314 313 312 313 314 314 315 316 317 319
300 300 301 301 300 301 301 301 302 303 303 311 312 313 313 313 314 314 315 317 318 320 316 316 318 316 316 316 317 316 316 315 314 314 314 313 313 312 312 313 314 314 314 315 316
300 300 300 300 300 301 302 303 303 303 302 312 312 313 313 314 314 313 315 316 315 317 316 315 315 314 316 316 316 315 315 315 315 313 311 311 311 311 311 312 312 313 314 315 315
300 300 300 300 300 302 301 303 304 303 305 313 313 313 313 314 314 313 315 315 315 317 316 316 314 314 315 316 315 315 312 314 314 312 312 310 313 309 310 310 312 313 313 314 315
301 301 302 302 301 301 301 302 302 303 314 310 312 312 312 313 313 313 314 313 315 316 316 316 315 314 313 314 313 314 312 311 311 310 308 309 310 309 308 310 309 309 313 314 315
302 303 303 304 305 302 301 302 302 306 313 313 311 313 313 313 313 313 313 313 313 315 314 312 311 312 313 312 312 311 311 311 310 307 304 307 309 308 309 309 311 310 312 313 313
303 303 303 302 303 303 302 304 305 306 310 313 314 312 313 313 313 313 313 313 312 313 316 314 312 310 311 312 311 310 309 305 307 310 308 309 310 309 308 309 309 308 310 312 313
303 302 303 303 303 302 303 303 307 314 311 311 312 312 313 312 312 313 313 313 311 311 307 308 309 310 309 310 311 310 310 306 312 310 312 310 311 310 309 310 311 311 311 311 311
302 302 303 303 303 303 305 305 307 313 311 312 311 311 312 312 312 312 312 312 310 310 309 307 312 311 310 310 311 311 310 309 309 308 303 308 307 307 308 308 307 309 310 311 310
302 303 304 303 303 304 307 307 307 311 311 311 311 311 312 312 311 312 312 310 310 309 309 312 312 311 311 310 310 309 309 307 303 303 310 309 308 310 308 308 308 306 308 312 312
303 303 303 304 304 305 308 307 310 310 312 312 310 311 310 311 311 311 311 310 309 310 309 311 310 311 311 310 310 310 309 310 308 307 308 311 310 306 308 308 307 306 309 310 310
303 303 305 305 304 306 307 305 311 311 313 313 311 309 309 310 311 310 309 311 310 311 311 311 310 308 309 308 308 309 309 309 310 305 307 305 311 310 309 308 309 311 311 311 311
303 304 305 305 305 308 308 311 312 313 313 313 312 311 309 309 311 310 311 309 310 311 309 310 308 306 311 311 310 310 310 310 311 310 310 311 311 309 309 310 311 312 313 312 311
304 300 305 307 308 309 311 312 313 313 313 313 312 309 310 311 311 311 310 310 310 311 311 310 311 305 308 309 311 310 311 310 311 313 312 311 311 310 311 312 314 314 313 312 312
306 305 306 302 307 307 311 312 312 313 312 312 311 312 312 312 312 311 310 310 309 311 310 311 308 308 309 310 310 309 310 311 311 312 314 313 313 313 314 315 315 313 311 311 311
304 305 306 307 309 310 310 312 313 313 313 312 312 312 313 313 314 312 311 310 310 309 309 308 303 309 305 309 309 310 310 311 312 312 313 313 314 314 316 314 313 312 311 311 311
303 305 306 308 306 307 308 311 313 312 312 313 312 312 314 314 313 313 313 312 311 309 309 311 308 307 306 311 310 313 311 312 317 317 317 318 316 316 316 314 309 308 309 310 311

GFSSW_850_thetae_024.txt.gz
Theta_e
306 306 306 306 306 306 306 309 313 315 317 320 317 315 308 307 310 314 316 309 312 320 321 322 321 320 318 320 321 321 319 321 321 320 319 320 321 322 322 322 322 322 326 327 334
307 306 306 306 306 306 306 305 307 312 315 316 319 316 311 308 313 317 312 314 313 320 320 323 321 321 320 320 321 319 319 321 320 320 320 320 321 322 321 321 321 322 326 336 337
306 306 305 305 305 304 304 305 306 309 313 316 319 317 311 312 316 315 314 315 316 321 319 323 322 321 320 320 320 318 319 320 322 322 321 320 320 322 321 320 320 320 330 334 338
305 305 305 305 304 304 303 304 305 305 310 314 317 317 311 314 317 321 318 318 320 321 318 320 321 321 318 319 320 319 319 320 320 321 319 319 321 321 322 322 322 322 322 333 337
303 304 304 304 304 304 303 302 304 303 308 313 315 317 311 313 317 322 319 320 321 320 321 321 320 320 317 317 319 317 318 319 320 320 319 319 319 320 321 322 322 322 322 322 322
302 302 302 301 303 302 302 303 302 303 305 313 314 316 310 315 314 319 321 320 321 320 320 318 320 321 319 318 316 317 317 318 319 319 319 319 319 319 320 321 321 321 322 321 322
302 301 301 300 300 301 302 302 303 303 303 311 315 314 311 311 319 318 319 321 321 319 318 314 321 320 319 320 320 320 320 318 318 319 319 319 319 318 320 320 320 319 319 319 319
302 302 300 300 300 300 300 302 300 299 300 309 314 313 311 309 317 319 318 319 320 321 319 316 322 321 321 319 318 319 318 320 318 318 318 319 319 317 319 320 320 320 319 319 318
301 301 300 300 300 300 300 301 299 301 301 308 312 311 310 310 313 318 318 319 321 322 321 320 322 321 319 317 317 316 318 318 318 317 317 317 319 317 318 318 317 318 319 318 319
300 300 300 300 301 301 300 300 300 300 301 306 312 311 312 312 313 316 317 319 320 321 322 322 320 320 317 316 319 317 317 316 316 315 314 314 317 316 317 317 317 317 317 317 318
301 300 301 301 301 300 301 300 304 305 304 310 312 312 311 312 314 315 315 318 320 320 321 319 320 322 320 318 315 316 316 316 314 314 313 313 312 312 313 312 312 313 315 316 317
300 300 300 301 300 300 301 301 302 302 304 307 311 313 312 313 314 314 315 318 319 319 316 318 320 318 318 319 317 317 316 315 313 313 313 312 312 311 311 312 313 314 314 314 315
300 300 301 301 301 300 301 302 302 303 303 308 312 313 313 313 314 314 314 316 318 318 317 318 316 317 317 316 316 314 315 314 315 312 310 309 311 310 309 311 312 313 313 313 313
301 302 302 303 302 301 302 302 303 303 304 312 313 313 313 314 313 313 315 316 316 317 316 316 313 315 314 316 314 315 312 312 313 312 312 309 312 308 309 308 308 310 312 313 313
302 302 303 303 303 301 302 302 303 303 311 310 312 311 313 313 313 313 313 314 315 316 315 316 314 313 314 315 313 314 311 311 310 309 308 308 309 307 306 308 307 306 311 314 315
305 304 303 303 302 301 301 302 303 306 310 311 311 313 313 313 313 313 313 313 315 315 314 312 311 312 312 311 311 311 309 308 307 306 304 306 309 306 306 309 309 308 310 312 313
302 303 303 302 303 301 301 302 304 306 308 313 314 313 313 313 314 314 313 313 314 317 316 314 312 310 310 311 310 308 307 303 303 302 307 307 308 307 306 306 307 306 310 310 310
303 303 303 302 302 302 302 302 305 312 313 312 312 312 313 312 314 313 313 313 311 309 312 310 309 310 309 310 311 309 308 305 309 308 309 308 310 309 307 308 308 309 308 309 311
302 303 302 302 302 304 305 305 307 309 312 313 311 311 312 311 313 312 312 313 310 309 309 307 310 310 309 309 309 310 307 307 307 307 301 306 305 305 306 307 307 307 309 309 310
303 303 302 302 303 305 305 308 307 308 311 310 311 311 311 311 311 312 312 310 310 309 309 310 310 311 310 309 309 308 307 306 299 301 308 307 307 309 307 308 307 306 307 310 311
303 303 304 304 305 306 307 306 311 310 311 312 309 310 310 311 310 310 310 309 308 309 308 310 307 309 310 309 309 309 307 307 305 305 306 311 309 305 307 308 307 306 309 310 312
303 298 305 306 304 306 307 306 309 311 312 312 308 308 308 310 309 310 309 308 309 309 310 310 308 303 309 308 307 308 309 307 304 304 304 304 309 307 306 308 308 310 310 312 313
304 305 306 306 302 309 308 310 311 312 312 312 311 309 308 309 309 309 309 308 309 309 309 309 307 303 309 309 308 309 309 309 308 309 305 310 309 306 305 309 310 313 314 314 314
305 299 306 308 308 308 309 310 311 312 312 310 308 308 309 309 309 311 310 309 310 311 310 310 307 303 307 305 308 307 309 308 309 307 309 309 310 309 309 311 313 315 313 313 311
306 304 306 302 305 306 309 310 311 312 312 311 310 310 311 312 311 310 309 309 309 311 310 309 305 305 307 308 308 308 309 309 307 309 310 311 311 311 311 313 314 311 311 312 311
305 304 305 305 306 308 308 311 312 312 312 312 311 312 311 313 312 311 309 309 308 309 309 307 302 308 308 307 308 308 309 309 310 311 311 310 311 310 312 315 315 309 309 308 310
304 304 305 306 304 306 307 311 312 312 311 312 311 312 313 313 312 311 310 310 308 307 308 308 306 307 306 308 309 311 309 310 312 312 311 315 315 314 314 312 310 308 304 302 306

GFSSW_850_thetae_027.txt.gz
Theta_e
307 307 308 307 306 306 305 307 306 310 314 314 317 319 317 313 309 313 314 310 310 316 318 320 322 322 320 319 320 321 318 320 318 317 317 319 320 321 322 320 321 321 325 327 331
307 306 307 306 305 306 306 304 305 305 311 313 315 317 317 314 311 312 308 310 309 320 322 322 318 321 321 320 320 318 318 320 318 317 320 319 320 320 321 320 320 321 323 327 336
305 305 304 305 305 305 305 304 305 304 305 311 313 317 318 314 312 310 308 309 313 320 321 323 322 322 319 319 319 318 319 319 321 322 321 320 320 321 321 320 319 320 333 337 337
304 303 303 303 305 304 304 304 304 304 304 306 312 316 317 312 315 320 316 312 314 318 322 323 322 319 318 318 319 319 318 320 320 321 319 319 319 320 321 321 320 322 326 336 338
303 303 302 302 303 303 302 302 303 304 304 303 309 314 316 313 312 321 320 317 317 319 321 321 322 319 318 318 318 317 317 319 320 320 319 319 318 318 319 320 320 322 322 322 328
303 302 302 303 303 302 300 303 303 303 304 304 307 312 315 313 313 313 321 318 320 320 320 320 321 320 318 316 317 317 317 318 318 318 318 318 318 319 319 319 320 320 320 321 321
302 302 303 301 301 300 301 301 302 303 303 304 306 311 314 313 313 313 317 319 321 320 319 320 320 320 319 318 318 318 318 318 317 318 318 318 318 316 319 319 319 319 319 319 319
302 302 301 301 300 300 300 301 302 302 302 304 307 310 313 313 316 319 319 320 318 318 318 319 321 320 319 319 318 318 317 319 317 317 318 319 319 316 318 319 319 319 319 318 318
301 301 300 300 300 301 301 301 302 302 302 304 307 312 313 312 312 318 319 320 320 320 320 316 318 321 318 316 316 315 317 318 318 316 316 316 318 316 317 317 317 317 317 317 318
301 301 301 301 301 301 300 301 300 300 300 303 306 311 311 312 311 317 317 319 320 320 320 320 320 317 314 315 319 317 318 316 316 315 314 313 313 314 317 317 316 317 318 318 318
301 301 300 301 301 300 300 301 302 303 304 307 310 311 312 312 312 317 316 319 320 320 322 320 322 322 317 315 314 314 316 316 314 313 313 312 311 311 311 312 311 313 316 317 318
301 300 301 301 301 301 300 301 302 302 303 306 309 312 312 313 314 315 315 317 319 320 317 319 320 320 319 319 319 318 317 315 313 312 313 311 310 310 311 311 312 313 314 314 315
301 301 301 302 302 302 301 301 301 303 304 305 308 312 313 314 314 314 314 318 318 318 317 320 318 318 319 320 320 315 314 314 314 311 309 308 310 309 308 309 311 312 313 313 313
304 304 302 303 302 302 300 301 302 303 305 311 311 313 313 313 313 314 315 316 316 317 316 316 313 318 318 318 313 314 311 312 311 311 312 308 312 308 308 307 306 308 310 312 312
302 303 303 303 303 302 301 302 302 303 310 309 312 311 313 313 313 314 314 315 316 316 315 315 314 316 316 315 314 315 310 310 309 308 308 308 309 308 304 307 307 304 308 309 310
303 302 302 302 302 302 301 302 303 305 312 310 311 313 312 312 313 314 313 314 315 315 313 312 311 312 312 310 311 310 309 306 305 305 304 306 308 307 306 307 305 305 308 308 310
302 302 302 302 301 301 301 302 305 307 307 312 314 312 313 314 314 314 313 313 315 317 315 314 311 309 310 311 309 308 307 304 303 303 307 306 307 308 306 306 306 304 306 310 310
302 300 301 302 302 303 303 303 308 310 313 312 313 312 313 313 314 314 312 313 310 310 315 315 314 310 309 310 311 309 308 305 306 307 308 306 310 308 306 306 307 306 308 310 310
302 302 303 304 304 304 304 305 307 308 313 313 312 312 313 312 314 313 313 312 310 308 310 309 310 309 309 309 309 310 305 306 306 304 301 306 305 304 304 306 306 307 309 310 310
303 303 303 303 304 305 303 310 309 308 311 308 309 310 312 312 312 312 312 311 310 309 308 308 310 310 309 309 308 308 306 306 299 301 307 306 306 306 307 306 306 305 307 309 310
303 304 305 305 305 305 306 308 311 310 311 309 309 309 309 310 310 310 310 309 308 308 308 308 307 310 309 309 309 309 306 305 304 304 305 309 307 303 306 307 306 305 309 311 313
304 299 306 306 303 306 309 308 309 311 312 311 308 307 309 309 309 309 309 308 308 308 309 309 306 304 309 308 306 307 308 306 303 302 302 303 308 305 305 305 307 309 310 313 315
305 305 307 308 304 308 307 309 309 311 311 310 309 308 308 308 309 308 308 308 308 308 308 308 304 301 307 308 307 309 307 306 305 302 301 306 308 305 304 307 308 311 313 314 312
306 301 306 308 307 308 308 310 310 311 311 308 308 307 308 309 308 308 309 308 308 309 309 309 306 303 305 304 305 306 308 307 306 305 307 308 307 308 308 309 310 312 313 311 311
305 303 305 303 305 304 307 309 311 312 311 309 308 308 310 310 310 310 309 308 309 311 309 307 305 304 307 307 308 308 309 308 305 308 308 309 308 308 309 310 310 313 311 309 308
304 304 304 304 305 304 305 310 311 311 311 311 309 310 310 310 310 310 308 308 310 308 309 306 305 307 304 306 307 308 308 308 308 308 308 308 309 309 309 311 313 311 308 305 304
303 303 304 305 303 305 305 309 311 311 311 311 311 311 312 313 311 310 309 309 307 307 307 307 307 307 308 306 308 310 308 308 309 309 309 310 310 310 312 313 311 309 305 303 302

GFSSW_850_thetae_030.txt.gz
Theta_e
307 306 307 307 307 307 307 307 306 306 307 309 313 315 317 318 315 312 314 311 310 316 320 316 323 323 321 319 320 319 317 317 316 317 317 318 318 320 320 320 320 320 321 326 328
305 305 305 304 305 305 305 306 306 306 303 306 309 312 316 318 316 313 309 307 308 318 323 319 324 323 321 319 320 318 317 318 316 314 317 318 319 319 321 319 320 320 324 326 330
304 304 304 304 304 305 305 305 304 304 304 302 305 309 313 316 315 314 315 307 308 319 322 319 321 321 321 319 318 317 318 318 320 319 320 320 320 320 320 320 319 319 323 334 335
303 303 303 303 303 303 303 303 303 303 304 305 305 307 311 314 315 319 314 309 308 320 322 321 321 321 317 317 318 319 318 319 320 321 320 318 319 318 320 320 320 321 320 327 335
304 303 302 303 303 303 302 301 303 302 304 304 304 306 310 315 314 319 321 320 311 318 321 322 320 319 317 317 317 317 317 319 320 320 319 318 318 317 318 319 320 320 320 321 323
304 303 302 302 302 302 301 302 302 303 304 304 305 304 309 314 314 315 318 319 314 318 321 321 321 319 318 317 317 317 318 317 318 318 318 317 317 318 318 319 319 319 319 320 320
303 302 301 302 301 301 301 302 302 303 304 304 304 304 309 313 313 315 312 319 316 318 320 320 321 319 318 316 318 317 318 316 316 317 317 318 317 316 318 318 318 318 319 319 319
302 302 302 302 300 300 301 302 301 302 303 304 303 305 311 313 314 316 317 318 318 321 318 320 320 320 318 318 317 317 317 319 317 316 318 318 316 315 317 317 318 318 318 318 318
301 302 302 302 301 301 302 300 300 300 301 304 303 306 311 312 313 315 318 319 319 319 318 318 319 320 318 315 317 315 317 318 318 315 316 316 317 316 317 316 316 317 317 317 317
301 302 301 301 301 301 300 300 300 301 300 301 304 308 311 313 313 313 318 319 318 318 318 318 318 316 313 317 317 318 317 316 317 314 314 315 313 312 314 313 314 314 317 317 318
303 302 301 301 301 301 300 300 301 302 302 304 307 310 312 313 312 316 317 319 320 319 319 318 320 320 318 315 313 314 315 316 314 313 313 312 311 310 311 311 311 313 315 316 317
303 305 300 301 302 302 302 300 301 302 301 303 308 310 312 313 313 315 316 318 319 318 317 318 320 318 315 314 317 317 316 316 313 311 312 310 309 310 310 310 312 313 314 315 316
302 303 305 301 302 302 302 300 301 302 302 304 306 310 311 312 314 314 316 318 318 319 318 319 317 319 319 319 320 316 316 314 315 311 308 307 310 308 308 308 309 309 310 310 311
302 302 304 301 303 302 301 302 302 303 303 305 309 312 313 312 313 314 316 316 317 318 317 316 317 318 319 320 316 316 311 312 311 311 313 308 312 309 308 305 305 306 306 307 308
302 303 303 302 302 301 301 302 301 303 309 308 312 312 312 312 313 314 315 315 317 315 316 315 317 318 319 317 314 314 309 309 308 308 308 308 308 307 304 306 306 304 306 309 310
301 302 302 302 301 302 301 302 303 299 308 311 311 313 312 313 313 313 313 315 315 314 312 311 311 313 314 311 312 309 308 305 304 305 304 305 307 306 306 306 304 304 307 309 310
301 301 301 301 301 301 302 303 301 308 308 312 314 312 312 314 314 314 314 313 317 316 315 313 311 309 310 310 308 308 310 306 304 301 306 306 307 305 305 305 306 304 306 309 311
302 303 303 302 302 303 303 303 305 311 313 312 311 311 313 312 314 313 313 313 309 312 313 313 316 311 309 310 311 309 308 305 306 305 307 305 309 308 305 306 307 307 308 310 313
303 304 304 303 303 303 303 307 306 309 312 313 311 313 313 312 314 313 312 311 310 308 309 307 310 309 308 309 309 309 305 305 304 301 301 304 304 302 304 305 305 306 308 310 311
303 303 305 305 305 304 302 311 309 308 309 307 309 310 311 313 312 313 311 311 310 308 307 308 310 309 309 308 307 308 306 307 300 302 306 305 305 305 305 306 305 305 306 312 313
304 304 307 306 306 306 305 309 311 310 310 308 309 309 309 310 310 311 310 308 309 308 307 306 307 310 309 309 309 308 306 304 303 303 304 307 306 302 304 306 306 304 308 310 312
306 300 307 308 304 307 310 309 309 310 311 309 306 307 308 308 308 309 309 308 308 307 309 308 306 303 310 307 306 307 307 304 302 302 301 302 306 305 304 303 305 308 309 312 313
304 305 307 308 304 307 306 308 308 310 310 309 308 307 307 307 309 308 308 307 308 307 308 307 304 302 308 308 307 308 307 305 303 301 299 304 306 304 304 304 307 309 310 312 312
305 300 306 308 306 307 308 308 310 310 310 307 307 307 308 308 307 308 308 308 307 308 309 308 304 304 305 305 305 306 307 305 305 299 305 305 306 307 306 306 308 310 310 312 310
304 302 303 304 304 303 305 308 310 311 310 308 308 308 308 309 310 309 308 308 309 311 309 307 303 303 306 306 306 307 308 307 304 305 305 306 306 307 307 307 309 309 312 309 307
303 303 304 304 303 304 304 309 310 310 310 310 307 309 309 308 308 309 308 308 309 308 307 305 307 307 302 306 306 307 307 307 307 308 307 308 308 308 308 309 312 312 309 306 303
301 302 302 305 301 304 305 307 309 310 310 310 309 310 312 312 311 309 308 308 308 307 307 307 305 302 303 306 307 309 307 307 308 307 308 309 309 307 309 312 312 310 307 304 302

GFSSW_850_thetae_033.txt.gz
Theta_e
306 305 305 306 305 305 305 306 307 307 306 303 304 309 313 316 317 317 315 311 309 312 318 315 323 322 319 319 319 318 320 320 321 317 318 316 316 319 318 319 320 319 319 323 328
305 304 303 304 304 304 305 306 306 306 305 305 302 303 308 311 315 318 316 313 308 321 319 315 323 324 320 319 319 318 319 319 316 316 316 317 319 319 320 319 319 319 324 324 326
304 304 304 304 304 304 304 304 305 304 305 305 304 305 306 308 313 317 317 316 309 312 319 319 322 323 320 318 318 317 319 317 318 316 318 318 319 319 319 319 319 319 323 331 331
304 304 303 302 302 303 303 304 304 304 303 303 305 305 305 308 316 316 317 315 314 315 320 320 322 321 319 318 318 319 318 318 319 320 320 319 319 318 319 319 320 320 320 321 333
303 303 303 302 302 302 302 301 302 303 302 303 304 305 305 308 313 314 319 317 317 318 320 321 321 320 321 317 317 317 317 319 319 319 319 318 318 318 318 318 319 319 319 320 322
303 303 302 302 302 301 301 301 302 302 301 303 303 304 303 309 313 315 314 315 315 318 319 321 320 320 319 317 318 317 317 317 318 318 318 317 317 317 318 318 318 318 318 319 319
303 302 302 302 302 302 301 300 303 302 302 303 303 303 304 307 313 313 314 314 314 319 318 321 319 318 317 316 317 316 317 316 316 316 317 317 316 316 318 318 317 317 317 318 319
303 303 302 302 302 302 300 301 301 300 302 303 303 303 304 305 312 313 316 314 319 318 319 320 319 318 317 316 316 317 317 320 317 316 316 316 316 315 317 317 317 317 317 317 317
303 304 303 301 301 302 302 301 300 300 302 302 303 303 307 310 312 313 316 317 320 317 317 318 319 319 317 316 318 316 317 317 318 316 316 317 318 315 316 315 315 316 317 317 317
302 302 303 301 301 300 301 301 300 301 301 302 301 305 309 311 312 313 315 318 318 317 317 318 318 317 314 316 318 318 317 317 317 314 314 316 316 314 315 313 313 314 315 317 317
303 303 303 303 301 301 302 301 301 302 301 302 304 308 311 312 313 313 317 319 318 317 319 318 318 319 318 315 313 314 315 316 314 312 313 313 312 312 312 311 311 313 315 316 316
303 302 303 304 302 302 302 300 301 301 300 301 305 306 311 312 312 313 317 318 317 317 317 318 318 315 315 314 314 315 315 315 314 311 312 310 311 311 311 311 311 311 311 311 311
303 303 303 301 302 302 301 300 301 301 303 303 306 309 312 312 314 315 315 315 314 316 316 316 318 316 317 316 318 316 316 314 315 311 308 308 312 310 309 307 307 305 305 306 307
302 303 303 301 302 301 300 301 301 302 304 308 308 311 312 313 314 314 314 316 317 312 316 317 317 318 318 318 317 318 312 312 311 312 316 308 316 310 307 306 305 305 308 309 310
301 301 302 302 301 301 301 301 301 303 312 306 309 311 311 311 313 314 314 315 316 316 316 315 318 319 319 319 316 315 309 309 308 309 308 309 311 309 305 307 305 304 307 309 310
301 302 301 301 301 301 301 302 303 299 311 310 311 312 312 313 313 314 315 314 313 313 312 312 314 315 315 314 313 308 307 306 305 306 310 306 308 308 306 306 306 304 307 310 312
304 304 304 303 301 302 302 302 299 306 308 313 312 312 312 313 314 314 314 313 317 315 315 313 311 309 311 311 309 310 313 312 308 309 314 306 308 308 305 305 305 305 307 311 312
303 303 305 304 303 303 303 298 308 314 314 311 311 311 314 312 313 313 313 311 309 313 313 315 315 311 309 310 312 309 311 311 312 308 308 305 310 309 305 305 305 306 308 311 313
303 303 306 306 305 304 303 308 304 310 312 311 309 311 311 312 313 313 311 311 309 309 312 310 311 308 308 308 309 309 309 304 305 301 306 305 304 303 305 304 305 306 308 310 312
305 304 307 307 306 306 305 312 310 308 309 307 309 310 311 313 312 312 311 310 309 308 307 307 311 309 308 308 307 308 305 309 303 306 309 305 305 307 305 306 306 305 306 309 311
306 305 308 308 307 307 308 308 310 310 310 308 308 308 308 310 310 311 310 308 308 308 306 306 308 311 309 309 309 308 308 304 304 305 308 308 306 303 305 306 306 305 308 309 311
305 301 308 308 305 307 309 308 309 310 310 307 306 307 308 308 308 308 309 308 307 308 309 306 306 308 310 306 306 307 307 305 307 305 303 305 308 304 304 303 304 306 308 309 312
305 306 308 308 308 308 307 308 309 309 309 308 307 307 307 307 309 307 307 307 307 307 308 307 305 304 308 307 307 308 306 304 302 302 304 308 307 304 304 305 307 306 309 311 310
304 299 306 308 305 306 308 308 309 309 309 307 306 307 307 307 306 307 307 308 307 308 308 307 305 304 305 304 305 306 307 305 305 305 306 306 306 306 306 306 307 308 309 311 309
303 301 303 303 303 303 305 307 310 311 309 307 307 307 307 309 309 308 308 308 308 310 307 306 305 303 306 306 306 307 308 306 305 305 308 306 305 306 306 307 307 309 311 309 306
302 302 303 304 303 302 304 308 310 310 310 309 307 307 308 308 307 308 307 307 308 308 307 304 307 306 303 306 306 307 307 307 307 307 306 307 308 308 308 307 310 311 309 307 303
301 301 302 303 300 302 304 306 308 308 309 310 307 309 311 311 311 309 308 307 307 307 306 308 306 302 303 306 307 309 307 307 307 306 308 309 308 307 307 309 310 310 308 304 302

GFSSW_850_thetae_036.txt.gz
Theta_e
306 306 306 305 305 306 306 305 307 307 307 307 306 303 304 310 313 316 319 317 313 313 316 317 323 323 319 320 319 320 327 328 327 326 325 320 321 319 319 319 320 321 322 326 326
306 304 305 305 303 303 304 304 305 306 306 306 305 306 304 302 307 312 317 317 315 315 321 315 322 324 320 319 320 321 326 325 324 324 323 320 319 320 321 321 321 321 322 322 323
306 304 304 304 303 303 303 303 304 304 305 305 306 305 305 303 307 312 315 318 315 315 320 318 322 322 320 319 320 319 322 322 320 321 319 320 320 321 321 322 321 321 322 330 328
305 304 304 304 303 302 303 302 302 304 303 303 303 305 305 306 310 313 315 318 317 317 319 320 322 322 321 320 319 320 318 319 319 320 320 320 320 320 320 320 320 321 320 321 335
304 304 304 303 303 302 301 301 301 303 303 302 303 303 305 306 307 314 317 318 318 317 318 319 320 322 322 320 319 319 320 319 319 320 321 320 321 320 320 320 320 320 319 321 322
305 305 304 302 303 302 301 302 302 302 301 301 304 303 305 306 307 311 315 316 318 317 317 320 318 321 320 321 320 319 319 319 319 319 319 321 321 320 320 319 319 319 318 319 320
305 304 304 303 303 302 301 302 302 302 302 302 302 303 305 305 311 311 313 314 318 316 318 320 318 319 319 320 319 319 320 320 319 319 319 319 320 320 319 319 318 318 318 318 318
304 303 303 304 303 302 302 301 302 300 301 301 302 304 304 303 310 313 313 315 317 317 318 319 319 319 319 318 319 320 319 321 319 319 318 318 319 317 317 318 317 317 317 317 317
305 304 303 304 302 301 301 301 300 300 302 302 302 304 305 306 308 312 314 315 317 318 319 319 318 317 317 318 319 319 318 318 318 318 318 318 317 317 316 317 317 317 317 317 317
303 303 303 304 301 300 300 301 301 301 302 302 303 304 305 309 311 312 313 316 317 318 316 317 318 319 318 318 316 317 316 317 316 317 319 319 317 318 318 317 316 316 316 316 317
303 304 303 304 301 302 302 301 302 303 303 302 302 305 309 310 311 310 314 317 318 317 317 317 319 320 319 317 315 317 316 316 316 315 317 317 318 317 316 316 316 316 316 316 316
304 303 303 302 302 302 302 300 300 301 302 302 303 305 307 311 313 313 315 317 317 318 317 318 319 317 318 317 317 317 316 317 316 314 316 317 317 317 316 316 315 314 314 314 314
302 302 301 301 301 301 301 300 300 301 305 305 305 306 312 312 314 315 313 314 317 318 318 319 318 316 317 318 318 318 317 318 317 315 313 314 317 316 311 310 308 308 307 308 310
303 301 302 302 301 300 301 301 301 302 308 307 309 311 312 313 315 312 313 312 313 316 317 317 318 316 317 318 317 319 316 316 315 317 318 313 318 316 312 309 311 310 310 311 311
304 303 300 300 300 301 301 300 301 303 315 307 309 311 312 313 313 312 312 315 313 313 315 317 318 318 317 318 317 316 314 314 313 316 315 314 317 314 310 311 311 311 311 311 311
303 304 304 301 301 301 302 302 303 310 315 312 312 311 313 313 314 314 315 313 312 312 314 314 313 316 317 313 316 310 312 311 312 314 321 314 314 313 311 311 311 310 310 312 312
303 304 306 305 303 303 302 303 313 315 309 314 314 313 313 314 314 314 314 315 315 315 315 311 311 312 312 313 311 312 317 321 321 322 322 309 311 313 309 309 310 310 310 312 312
304 304 306 306 306 305 304 308 315 312 313 312 313 313 314 314 313 314 314 316 313 315 317 319 317 313 310 312 314 315 318 321 320 316 314 308 312 312 309 308 307 308 309 310 312
305 305 306 307 307 306 306 314 313 311 312 312 312 313 313 314 315 315 315 314 314 314 317 316 315 310 309 310 312 313 317 308 312 308 314 312 310 308 308 307 308 309 310 312 312
306 306 307 307 307 306 313 312 311 309 310 310 313 312 313 314 314 315 315 312 311 310 310 311 316 310 309 309 309 312 309 315 314 317 317 311 309 311 310 310 310 311 311 312 312
307 307 307 308 308 310 310 312 311 311 310 310 311 312 312 313 313 314 313 311 310 309 309 311 314 312 311 313 313 311 313 310 311 311 314 311 311 310 311 311 311 311 312 311 313
305 313 308 308 312 311 312 310 309 311 310 309 309 310 312 311 313 313 311 311 309 310 312 309 313 314 313 308 308 310 312 310 314 313 310 312 312 309 310 309 309 311 311 312 313
304 305 308 308 313 313 310 311 310 311 311 310 309 309 309 311 312 310 311 308 308 310 311 310 312 313 312 310 309 311 311 309 307 309 313 313 312 309 309 309 311 311 312 313 311
304 311 308 308 306 311 312 312 312 310 310 308 308 309 309 309 309 310 310 310 308 309 308 309 309 312 312 313 312 312 311 309 310 313 312 311 311 310 310 312 313 313 313 312 310
303 303 303 310 309 308 308 310 312 312 311 308 309 309 309 310 310 310 310 309 308 310 309 310 313 309 309 309 310 311 311 310 310 311 313 311 310 311 311 312 311 312 313 311 308
303 303 303 305 304 306 307 311 312 312 312 310 309 309 310 311 310 311 310 311 311 310 310 308 312 309 310 308 309 310 310 310 310 310 310 311 311 311 311 310 311 312 311 309 305
300 301 302 303 305 307 308 309 310 309 310 310 309 311 312 311 311 310 309 310 310 310 310 311 310 311 313 309 310 312 311 311 311 310 310 311 311 311 311 310 310 312 309 306 304

GFSSW_850_thetae_039.txt.gz
Theta_e
307 308 307 305 305 306 305 304 306 306 307 309 309 308 304 304 308 314 314 318 318 313 310 315 323 324 324 323 322 323 328 331 330 328 326 325 325 323 322 322 321 321 324 332 338
307 306 306 305 305 305 304 304 304 305 305 307 308 308 307 305 306 309 315 318 318 315 321 315 321 324 322 321 322 323 329 329 327 326 326 325 323 323 322 321 321 322 324 333 337
306 306 304 305 304 304 304 303 304 304 305 306 307 307 306 304 307 307 310 316 318 315 321 316 320 324 321 320 321 320 324 325 325 324 324 324 322 321 322 322 321 321 323 331 336
306 306 306 304 304 304 303 302 303 303 303 303 303 303 305 306 308 311 313 315 318 318 320 318 319 323 321 321 320 321 320 321 322 321 321 322 322 322 321 321 321 322 323 324 334
306 306 305 305 304 303 303 301 301 302 303 303 302 303 304 307 307 313 313 316 318 317 317 319 317 320 322 320 319 320 320 320 320 320 320 320 321 321 321 321 322 322 321 322 323
306 305 304 304 304 303 303 302 302 302 302 301 303 304 305 307 306 309 316 317 319 317 318 317 317 320 320 320 320 320 320 319 319 320 321 321 320 320 320 321 321 320 320 320 321
306 305 304 303 304 303 303 302 302 302 302 301 302 303 305 305 307 309 309 315 317 319 316 317 317 319 320 321 320 320 320 320 319 319 320 320 321 322 321 321 320 320 320 319 319
304 304 304 303 304 303 302 302 301 303 300 301 302 304 305 304 305 309 309 310 316 319 316 317 318 318 319 319 320 320 320 321 320 319 319 320 321 321 320 320 320 320 319 319 318
306 305 303 303 303 300 301 302 301 300 300 302 303 305 304 307 305 306 312 312 317 318 316 319 320 318 318 319 321 320 319 320 319 319 320 320 320 320 318 318 319 319 318 318 318
303 303 303 303 301 300 300 301 301 301 303 304 304 304 304 307 308 310 312 315 318 317 317 319 320 319 318 318 320 318 318 318 318 319 319 320 319 319 317 317 317 317 317 317 317
303 304 303 301 301 302 302 303 305 304 304 303 304 303 307 309 311 312 314 316 316 317 319 319 320 321 318 317 316 315 317 316 316 317 318 318 318 318 317 317 317 317 317 317 317
302 301 301 302 302 302 303 303 303 302 304 303 304 304 306 308 312 312 314 316 316 318 316 319 319 317 317 316 316 317 316 316 317 316 316 316 317 317 317 317 316 316 317 317 317
302 300 302 301 301 303 302 301 300 303 305 305 304 306 309 309 312 314 312 312 316 318 317 318 317 317 317 317 317 316 316 316 316 317 316 317 316 317 316 314 314 311 311 312 313
304 302 300 300 304 302 301 301 302 303 309 308 308 310 310 312 313 313 312 311 313 317 317 318 317 317 318 318 316 316 316 317 317 317 315 316 314 318 315 312 312 312 313 313 313
303 305 303 301 300 303 301 302 302 304 316 310 311 311 313 314 313 312 313 311 314 316 316 317 318 318 317 317 317 318 317 317 317 318 318 318 318 317 314 312 313 313 313 313 314
303 303 305 304 303 302 302 303 304 311 315 314 312 314 314 314 313 313 313 311 311 314 313 314 313 316 317 315 316 315 316 316 316 317 322 319 317 316 314 313 313 313 313 314 314
304 303 304 305 306 304 304 305 313 317 311 314 315 314 314 315 315 315 315 313 312 315 315 313 311 313 314 316 315 316 318 321 321 323 321 313 315 317 313 313 313 312 313 314 314
305 304 306 305 305 305 306 311 317 312 313 313 314 314 315 315 314 315 315 317 314 315 317 319 316 311 310 315 315 317 318 323 321 322 320 310 314 314 312 311 311 311 312 313 314
305 306 307 307 306 306 308 315 315 313 313 312 313 315 315 315 316 316 316 316 316 316 319 319 317 310 310 311 315 316 318 313 315 311 315 313 313 311 310 310 310 311 312 314 314
305 306 308 308 307 308 314 313 314 312 312 312 314 314 316 315 316 316 316 314 314 312 312 315 316 312 311 311 310 314 313 318 317 321 317 314 313 313 311 310 311 312 313 314 314
305 309 309 308 309 313 313 311 313 312 312 312 312 313 314 314 315 315 314 313 313 312 312 314 316 314 312 314 314 312 315 314 314 314 319 315 313 313 312 312 312 312 313 314 315
306 315 308 308 314 313 314 313 311 312 311 310 311 312 313 313 314 314 313 314 312 312 313 312 315 315 315 311 310 312 314 315 317 317 313 314 314 311 313 312 311 313 313 314 315
307 309 308 309 316 314 312 312 313 313 312 311 311 311 311 313 314 314 312 310 311 312 313 312 314 314 314 313 311 313 313 313 311 312 316 316 314 311 311 311 312 314 315 315 314
306 311 312 311 311 313 313 312 313 312 312 311 310 311 311 312 311 313 313 311 310 311 309 310 312 314 316 317 314 313 313 313 312 316 315 313 313 312 312 313 315 315 316 315 313
305 307 305 315 312 312 312 313 313 314 312 310 311 311 311 312 311 312 312 311 310 310 311 312 316 311 311 311 312 313 312 313 313 313 315 314 312 313 312 313 314 313 314 314 311
304 303 304 307 307 310 309 313 313 313 313 312 311 311 311 312 311 312 311 312 311 311 311 311 313 312 312 311 311 312 311 312 312 312 312 312 312 312 311 312 312 313 314 312 310
297 301 302 306 309 310 312 312 313 312 312 312 311 311 312 312 312 311 311 311 311 311 311 312 312 313 314 311 311 313 312 312 312 312 312 313 312 312 312 312 312 312 313 310 308

GFSSW_850_thetae_042.txt.gz
Theta_e
308 308 307 306 307 307 306 306 306 306 305 307 307 310 308 305 305 310 315 318 318 318 312 315 322 324 327 326 325 325 327 328 329 328 328 325 325 324 323 322 322 322 329 337 343
307 309 307 307 306 306 306 305 305 304 305 305 306 309 310 308 306 308 309 317 319 319 316 315 321 324 325 324 324 324 327 328 326 327 327 326 325 324 323 322 322 322 325 334 335
307 307 307 307 306 305 305 305 303 304 305 305 307 306 307 307 307 307 307 315 318 320 317 315 320 324 324 322 322 322 325 325 327 327 324 325 324 323 322 321 321 321 325 334 337
307 306 305 305 306 305 304 304 303 303 304 303 306 306 306 306 309 313 305 310 318 320 320 317 316 321 322 322 321 321 321 322 323 323 322 322 323 322 322 322 321 322 324 329 335
306 306 305 305 304 305 304 303 302 301 303 303 302 303 302 306 307 310 312 309 314 318 319 318 317 320 321 320 319 321 320 320 320 320 320 321 322 321 321 321 322 322 322 322 325
306 306 305 304 304 304 303 303 302 302 302 301 302 303 305 306 306 308 313 317 314 319 318 319 317 320 320 320 319 319 320 320 319 320 320 320 320 320 321 321 321 321 321 321 322
307 307 305 304 304 304 303 302 303 303 302 301 302 303 306 305 307 310 309 316 319 318 317 317 316 318 320 321 320 319 320 319 319 320 320 320 320 319 320 320 321 321 320 320 320
305 303 303 303 304 303 302 303 301 302 301 300 302 305 305 305 304 306 308 312 314 316 317 317 317 317 319 320 320 320 319 321 319 319 319 320 320 319 320 321 321 321 320 320 319
304 303 303 302 300 298 300 302 300 300 300 300 303 305 305 307 304 305 306 309 315 317 315 317 317 318 319 320 321 320 320 320 320 319 319 319 320 319 320 320 320 320 320 320 319
301 302 301 301 301 301 301 301 301 303 301 304 304 305 305 305 307 305 307 309 317 317 318 317 317 319 318 319 321 321 320 318 319 319 319 319 319 318 318 318 317 318 318 318 318
302 302 302 302 302 302 303 305 305 304 305 304 304 304 304 307 308 309 311 311 316 318 319 318 319 319 318 317 318 317 317 317 317 318 318 319 319 318 318 317 317 317 317 317 317
305 300 302 301 301 302 304 304 301 302 305 303 304 303 304 306 310 310 312 316 317 318 317 318 319 317 317 316 316 316 315 316 316 317 317 316 317 316 315 316 317 317 317 316 316
303 303 300 301 303 303 300 301 301 303 303 305 304 306 309 309 311 310 312 314 316 317 318 317 317 318 317 317 316 314 315 315 316 316 316 315 315 314 315 316 316 315 314 315 315
303 303 302 301 305 304 303 302 302 303 308 309 309 309 310 310 313 312 312 312 314 316 316 317 317 318 317 318 316 316 315 315 316 316 316 314 310 314 315 314 312 312 311 312 313
304 304 304 302 303 306 304 302 303 304 315 310 311 309 309 312 312 314 311 311 315 316 317 317 318 318 319 318 316 317 316 317 317 317 317 316 315 316 312 311 311 311 313 313 314
302 304 303 307 306 305 303 303 304 310 313 313 312 313 315 314 313 313 312 312 311 314 315 314 314 316 318 317 317 317 316 316 316 316 317 317 315 314 314 312 311 312 313 313 314
300 305 305 305 307 306 305 305 310 315 311 314 315 314 315 314 315 314 312 313 314 315 315 311 311 313 313 318 316 316 316 317 318 317 316 313 316 314 312 311 311 311 313 314 314
301 306 307 307 306 305 306 308 313 312 314 313 315 314 316 315 315 315 315 315 313 315 316 318 315 313 311 315 316 316 315 317 318 318 315 311 314 313 310 312 312 312 313 313 314
302 307 307 308 306 306 306 312 312 314 313 313 314 316 316 316 315 316 316 316 316 316 318 318 315 310 311 312 314 317 315 311 314 311 312 311 311 310 309 309 310 311 312 313 314
300 307 308 308 307 309 313 312 313 312 312 312 314 314 315 316 317 318 317 315 314 314 313 315 316 312 311 312 312 314 312 317 313 316 316 312 311 310 309 309 308 309 312 314 314
306 309 312 308 311 311 313 311 312 312 312 312 313 313 314 315 315 316 315 314 313 312 312 315 315 314 312 313 315 314 314 314 312 313 316 314 311 310 309 308 308 310 313 314 314
309 312 310 309 314 315 315 313 312 312 311 311 311 313 313 313 314 314 314 314 312 312 313 312 313 315 315 311 313 314 315 315 315 315 310 311 311 310 308 309 311 312 313 314 315
306 308 310 309 316 313 312 312 313 312 312 312 311 311 312 313 313 313 313 311 311 312 312 312 312 312 313 312 311 313 313 315 314 313 316 316 310 309 309 309 311 312 314 315 315
307 310 311 312 311 313 313 313 313 312 312 311 311 311 311 312 311 313 313 311 310 311 309 310 312 312 311 313 313 312 313 312 311 312 314 312 310 309 309 310 312 315 315 315 314
306 306 305 311 311 309 312 313 313 314 312 311 311 311 311 312 311 312 312 311 310 310 311 312 311 308 311 312 312 313 313 313 310 312 311 314 312 309 309 310 314 313 315 314 312
302 302 302 306 308 310 310 313 314 314 313 313 311 312 311 312 312 311 312 311 311 310 311 311 311 310 309 311 311 311 311 311 312 312 311 311 311 310 311 311 312 313 314 313 311
294 299 302 304 307 310 310 310 312 312 312 312 312 311 311 313 313 312 311 311 311 310 311 311 309 308 311 311 311 310 310 310 311 310 311 311 310 311 312 312 312 312 313 312 309

GFSSW_850_thetae_045.txt.gz
Theta_e
308 308 307 307 307 307 306 306 306 306 306 304 305 307 307 310 307 308 307 316 319 317 318 316 314 323 327 326 325 325 327 327 326 326 326 325 325 323 322 322 323 333 337 340 343
309 308 308 306 306 307 306 305 305 305 304 304 305 306 309 310 308 305 306 311 317 317 314 316 314 324 326 326 325 325 327 326 325 324 325 325 326 323 322 322 324 333 338 338 336
308 308 307 307 305 305 307 304 305 304 304 305 304 306 306 307 307 307 306 306 316 317 316 316 314 325 323 324 323 323 325 324 323 322 324 325 325 325 321 320 321 332 326 328 329
307 307 307 306 305 304 305 304 304 303 303 303 302 305 306 305 310 309 314 306 316 318 318 317 316 323 322 321 324 321 323 323 324 324 326 325 324 322 322 321 321 321 325 329 328
307 307 306 305 304 304 304 303 302 302 302 303 303 304 305 304 306 307 311 310 316 318 317 318 319 322 319 320 320 320 320 322 322 321 322 322 324 321 320 321 321 326 332 332 333
306 306 303 303 304 304 303 303 302 302 302 301 302 303 303 305 306 310 312 311 315 318 318 318 315 320 320 320 318 320 320 320 319 320 320 320 322 321 320 321 321 321 321 322 324
307 304 303 303 304 304 303 302 303 303 302 301 301 303 305 303 307 308 311 314 315 317 318 317 315 318 320 319 319 318 320 319 319 320 319 319 320 321 320 320 321 320 320 320 320
302 304 301 299 298 299 302 302 301 301 301 299 301 304 305 304 304 305 307 311 315 316 317 317 316 318 319 319 319 319 317 320 318 318 319 318 319 317 320 319 320 320 320 320 320
301 302 302 301 301 300 300 301 300 300 300 301 303 304 304 306 305 304 305 307 314 314 317 317 317 317 318 318 319 318 319 319 319 317 318 318 318 318 319 318 320 320 320 320 320
305 301 301 301 302 301 301 302 303 304 302 304 304 304 304 305 306 304 305 308 313 313 316 317 317 317 317 317 321 319 318 318 318 318 318 318 317 317 318 318 319 320 320 319 319
303 302 300 300 301 301 303 304 304 304 304 304 303 304 304 304 307 305 304 309 312 315 316 316 317 318 317 316 316 317 317 317 317 317 318 318 318 318 317 316 316 316 317 317 317
303 303 300 301 300 302 302 302 303 303 304 304 303 303 303 305 309 308 307 311 316 317 314 316 316 315 315 315 316 316 316 315 315 317 318 316 317 316 317 315 317 317 317 317 316
299 303 303 300 303 301 302 301 301 304 304 306 306 307 308 308 309 310 310 314 315 312 316 317 316 316 317 316 316 314 312 313 315 315 315 314 313 314 314 315 316 317 316 316 316
294 302 303 302 305 304 305 302 302 303 307 309 309 309 309 310 309 308 312 313 315 314 316 317 316 316 316 316 315 315 312 314 315 315 316 313 313 309 313 313 312 313 313 314 314
294 301 304 304 302 305 305 301 303 305 310 311 311 307 309 308 310 312 311 313 314 316 315 316 317 318 317 317 315 314 314 315 314 314 315 315 312 311 310 312 310 309 311 312 314
296 302 304 305 306 306 305 304 305 306 312 311 309 311 310 310 313 312 312 313 313 315 313 314 314 315 317 317 316 314 314 313 313 313 311 314 313 312 311 312 309 309 312 313 314
296 303 305 305 307 306 305 305 306 308 309 315 314 314 313 314 315 313 313 314 315 316 316 313 312 313 314 316 315 315 314 316 315 310 312 310 313 314 311 309 309 309 312 313 313
297 305 306 307 307 305 306 306 308 311 313 314 314 314 315 314 314 313 314 314 313 313 315 315 317 314 311 315 317 316 314 314 315 313 314 310 313 313 308 310 311 312 313 313 314
298 307 307 308 307 308 307 304 306 313 313 314 315 316 316 315 315 315 315 313 314 314 316 314 314 311 312 312 313 316 316 313 312 311 308 310 309 308 308 310 311 311 313 313 314
300 307 308 309 307 309 306 308 309 312 312 312 314 314 315 316 317 317 315 315 315 314 314 314 315 312 312 312 312 314 312 315 310 315 313 310 310 310 307 308 309 309 311 313 314
307 309 310 307 308 310 307 308 312 312 311 310 311 312 313 314 314 316 314 314 313 314 312 312 311 314 311 312 316 314 315 313 312 310 313 310 309 307 307 307 307 308 312 313 314
308 306 310 307 309 311 305 311 311 311 311 311 310 311 311 312 313 312 313 313 312 311 313 312 312 315 314 313 313 314 314 313 311 313 307 307 309 307 306 306 307 310 312 313 314
305 307 309 309 314 309 310 312 312 312 311 311 310 310 310 311 312 311 310 310 311 310 311 311 309 313 314 311 311 314 313 315 312 310 310 311 308 307 306 308 310 312 313 314 314
306 303 308 311 310 311 311 311 312 311 312 310 310 310 310 311 310 311 311 310 310 310 309 310 310 307 309 308 310 310 313 314 313 310 313 311 309 308 307 308 309 312 314 315 314
303 304 303 306 306 306 308 313 312 313 311 311 310 310 310 311 310 311 310 310 310 309 310 309 306 305 309 312 311 311 311 312 312 311 313 313 307 307 308 307 309 313 315 314 313
300 299 301 302 305 306 308 311 313 313 312 313 310 310 309 312 310 310 310 309 309 309 309 308 306 305 303 309 310 310 310 310 311 311 310 310 310 308 308 310 312 314 314 313 312
296 298 301 303 302 306 308 308 310 311 312 311 310 310 310 312 311 311 309 309 308 308 308 309 303 301 305 310 309 307 308 309 310 310 311 311 311 310 311 309 311 313 314 313 312

GFSSW_850_thetae_048.txt.gz
Theta_e
308 309 309 309 308 306 306 307 307 305 305 306 305 304 305 307 310 311 311 308 316 318 317 316 316 315 327 325 325 323 326 324 324 325 324 325 324 326 322 323 325 333 339 340 342
306 308 308 309 307 306 304 306 306 304 305 304 303 305 305 307 309 310 310 310 313 317 319 316 316 314 325 326 325 324 325 324 322 322 324 325 325 324 324 322 336 340 341 342 342
308 307 308 308 306 305 304 306 304 304 303 304 304 304 306 308 308 308 309 310 308 318 318 318 316 317 322 324 324 325 324 323 323 323 323 324 325 324 322 319 329 337 341 342 340
306 307 307 305 305 305 305 304 304 303 303 303 303 303 305 306 310 308 310 310 308 317 318 315 315 320 320 323 323 324 324 323 323 324 324 324 324 324 324 320 321 322 325 331 333
304 307 305 305 304 304 303 303 302 302 302 303 303 303 305 305 306 308 309 310 313 314 317 316 317 320 320 320 323 320 322 323 323 324 324 323 324 324 323 323 321 323 331 329 329
303 302 300 300 304 304 302 302 302 302 302 301 302 303 304 306 306 309 311 311 311 317 316 316 317 320 320 320 321 322 320 321 322 323 324 323 323 323 323 322 324 331 334 333 333
301 302 302 300 298 302 302 302 302 302 302 301 300 304 305 303 307 305 311 312 312 317 317 316 316 319 319 318 319 320 321 319 318 320 319 321 322 324 322 321 320 325 322 322 322
305 300 302 302 300 299 302 302 300 301 300 299 301 303 303 305 304 305 307 312 314 316 317 317 315 318 318 319 318 317 317 320 318 318 319 318 321 321 323 321 318 320 320 320 319
302 300 300 300 301 301 300 300 300 300 299 301 303 304 303 304 306 304 306 306 313 315 317 316 317 316 317 316 317 317 318 319 319 318 318 317 318 317 321 320 319 318 320 320 320
303 301 300 300 301 301 302 303 304 303 301 303 304 304 304 304 306 305 304 306 313 314 317 317 317 316 315 318 320 319 317 318 319 318 318 318 317 316 317 317 318 318 319 320 320
301 303 300 301 301 301 303 303 304 304 304 304 303 303 303 302 307 305 305 307 312 314 315 317 317 318 316 315 315 316 315 317 317 316 318 318 317 317 317 317 315 317 319 319 319
295 297 303 301 301 303 301 299 302 301 303 304 304 303 304 305 308 307 305 308 309 315 311 317 318 314 315 316 315 316 316 315 315 316 317 317 318 316 316 316 317 315 317 318 317
300 295 303 302 303 302 303 301 302 304 304 306 307 307 307 308 309 309 310 308 311 312 312 317 316 315 316 316 316 315 314 313 315 315 314 314 314 314 314 315 317 317 317 317 317
300 296 303 304 304 303 304 302 302 303 306 310 309 308 309 309 310 308 310 312 311 315 313 317 315 316 316 316 314 315 311 312 314 315 317 313 315 309 313 312 312 315 316 316 315
300 296 304 303 303 304 305 302 302 305 310 309 310 308 308 310 309 312 311 313 315 312 315 316 316 315 317 316 313 315 312 313 313 313 313 313 312 310 309 310 311 312 314 315 314
300 297 304 304 306 305 305 304 304 299 307 310 309 310 308 309 313 312 312 313 314 314 313 314 314 314 316 315 315 313 313 311 311 310 310 312 312 311 311 309 310 308 311 312 313
299 298 305 305 307 306 305 305 299 306 308 314 315 311 312 314 314 312 314 314 315 314 313 314 314 313 313 315 315 313 312 309 313 312 314 310 312 314 311 309 308 307 309 312 314
297 304 305 305 306 306 306 301 302 308 315 314 314 313 314 314 314 312 314 314 313 312 313 316 316 314 312 315 316 314 312 310 314 313 312 309 312 311 309 309 311 311 312 313 313
297 306 306 307 306 306 306 299 303 307 312 315 315 316 316 315 314 313 314 313 313 312 314 315 312 311 313 313 312 316 314 312 309 308 305 308 308 307 308 308 309 310 312 312 313
302 307 308 308 306 307 304 305 307 311 311 311 313 314 317 316 317 315 314 313 315 313 311 311 313 312 312 313 312 313 312 315 307 313 311 309 309 310 308 308 309 310 311 312 313
308 309 309 307 306 308 300 302 310 312 311 310 310 311 312 314 315 315 314 314 313 313 312 309 309 314 313 315 317 314 315 314 313 312 312 312 309 304 306 307 309 309 312 313 314
307 308 309 306 308 309 303 309 311 311 310 310 309 310 311 311 311 311 313 312 313 313 313 311 310 312 314 313 313 314 314 313 315 311 307 307 308 305 304 306 309 309 311 313 314
307 306 307 308 313 306 308 311 311 311 311 311 310 310 309 310 311 310 310 309 311 310 312 310 309 311 311 310 312 315 314 314 311 308 307 309 309 306 305 305 308 309 312 313 314
306 300 306 308 308 308 309 310 311 311 311 309 309 309 309 310 309 311 310 309 310 309 309 310 308 307 310 309 309 312 315 314 313 310 314 309 310 308 307 307 308 310 312 313 314
302 302 300 306 306 305 307 311 312 313 311 310 310 309 309 310 310 310 310 309 309 309 309 307 306 304 307 310 309 309 311 314 314 314 314 314 310 308 307 308 309 312 312 314 313
298 298 300 300 302 305 307 309 311 313 311 312 310 310 309 311 309 309 309 308 309 308 309 306 304 303 302 307 310 310 309 311 314 314 312 310 309 307 308 308 308 310 313 314 314
297 298 301 300 297 304 303 303 306 308 311 310 309 309 310 311 310 310 309 309 307 307 307 308 302 299 302 308 308 307 308 308 310 311 312 311 311 309 307 307 309 310 314 314 314

GFSSW_850_thetae_051.txt.gz
Theta_e
307 308 308 308 308 309 307 306 305 307 307 306 306 306 306 307 308 309 313 311 311 318 319 314 317 316 324 325 325 323 325 325 323 323 323 323 325 324 324 324 328 334 338 338 342
307 307 309 308 307 306 305 305 305 307 305 305 304 303 304 306 306 308 311 312 309 316 318 315 316 318 322 325 325 324 325 324 321 321 322 322 325 324 323 323 330 339 339 341 342
306 306 308 307 305 305 304 305 305 305 304 303 303 303 304 306 308 308 307 309 311 312 318 319 314 316 320 323 324 324 324 322 322 321 322 324 324 324 323 321 321 321 341 341 342
305 305 304 305 304 304 303 303 303 303 303 303 303 302 303 306 307 308 308 309 310 310 318 317 317 315 319 323 324 324 322 322 322 323 323 323 323 324 324 323 323 323 331 339 338
304 306 304 298 302 304 302 302 302 302 302 303 302 303 305 306 306 307 307 311 313 312 315 316 316 316 318 319 322 320 322 323 323 324 324 323 324 324 323 323 323 322 328 336 336
307 304 306 301 298 302 302 302 302 302 300 300 301 303 304 304 305 305 307 310 310 312 313 317 316 316 318 319 321 321 322 323 323 323 323 324 323 322 323 322 322 321 329 333 334
307 307 304 301 300 300 302 302 301 302 301 302 300 303 304 303 305 306 309 309 310 311 313 316 314 318 319 317 322 321 320 320 323 323 324 322 323 323 322 321 320 322 327 332 332
307 306 305 300 301 300 301 301 300 301 301 299 300 302 303 304 304 305 306 312 312 312 314 316 316 318 317 318 318 316 317 320 320 321 321 323 325 322 321 320 322 322 319 319 322
304 304 305 303 301 301 300 300 300 300 299 301 303 304 303 305 304 304 305 309 313 314 315 316 315 317 317 315 315 316 317 318 318 320 319 321 319 321 320 320 321 322 319 319 319
304 300 302 302 302 301 301 302 303 302 300 303 303 303 304 303 305 306 306 309 312 314 315 315 315 315 313 315 319 318 315 319 319 318 317 320 317 317 321 321 322 322 319 319 319
304 303 296 301 301 302 301 303 304 303 303 304 303 303 302 302 307 305 304 309 312 313 317 315 316 316 316 315 314 313 315 316 317 317 319 318 317 317 317 316 316 317 318 318 319
303 301 297 303 302 302 302 300 301 302 303 303 304 304 305 305 307 307 305 308 308 312 315 315 317 314 314 315 315 315 314 316 315 316 318 317 317 316 317 316 317 317 316 317 318
304 303 297 303 301 302 302 302 302 304 303 306 307 307 307 308 309 309 309 309 308 311 313 316 315 314 316 315 316 314 313 313 315 315 314 315 316 316 315 315 316 317 317 316 316
303 300 296 303 304 304 304 302 302 303 298 309 308 308 309 309 309 308 309 310 309 312 312 316 314 316 316 316 314 316 312 313 314 315 317 315 319 313 314 313 313 316 317 317 316
300 296 296 303 304 304 305 304 302 303 299 307 310 309 308 310 308 309 309 311 311 314 314 315 316 316 317 316 313 315 310 311 312 312 313 313 315 313 308 309 312 313 315 317 317
297 295 297 304 305 305 304 304 304 297 307 312 310 309 309 310 311 311 311 313 311 314 314 315 313 314 315 314 313 311 311 310 309 309 310 312 313 312 310 310 308 309 313 315 316
296 297 303 305 306 306 305 305 299 299 307 312 312 310 310 313 313 312 314 314 311 314 315 315 314 313 313 314 314 313 312 315 316 317 312 308 312 314 310 308 308 308 310 311 313
296 305 305 305 306 306 305 302 301 305 313 313 313 313 314 314 312 313 313 315 313 312 314 317 317 315 312 313 313 312 311 310 315 313 312 308 313 313 308 310 311 312 312 310 311
298 305 305 306 306 306 306 297 301 304 311 314 314 315 315 315 313 313 313 314 313 311 312 311 314 312 313 312 312 314 310 309 307 306 304 307 306 306 306 306 307 307 309 310 313
304 307 308 307 306 307 306 305 304 309 310 311 313 314 317 316 314 313 313 311 313 312 310 310 313 311 313 313 312 312 311 313 304 308 311 308 308 309 307 306 307 307 309 312 313
308 309 308 306 306 308 305 300 308 311 310 310 310 311 312 316 315 314 314 312 313 312 311 308 310 313 313 314 317 314 314 313 311 307 310 312 310 304 305 304 306 307 310 311 312
307 304 307 306 308 308 300 307 310 310 310 309 308 310 310 310 313 311 314 312 312 312 312 309 310 312 312 313 313 313 315 312 315 313 305 305 309 305 303 302 307 309 310 312 313
307 307 307 307 311 305 305 310 310 310 310 310 309 309 309 309 311 310 310 309 312 310 310 309 309 313 313 311 311 316 315 313 311 307 307 308 311 306 304 305 308 309 311 312 313
305 300 305 307 308 307 307 309 310 310 310 309 309 308 309 309 307 309 309 309 309 309 310 310 307 307 310 308 309 314 314 315 314 313 313 310 310 310 307 306 306 309 311 312 313
302 299 299 305 305 304 307 308 311 312 310 310 309 308 308 309 309 310 309 309 308 309 308 307 306 304 306 308 308 308 311 313 315 315 315 315 311 310 307 306 306 309 311 312 313
297 298 300 299 300 303 304 307 308 307 311 311 309 309 308 310 309 309 308 308 309 307 308 305 303 302 303 307 309 309 308 310 312 313 314 313 312 309 310 308 307 308 310 312 313
298 299 300 297 295 302 297 302 304 304 310 308 308 308 310 309 308 309 308 307 307 307 306 306 302 299 301 305 307 307 307 307 309 311 312 314 313 308 308 306 308 308 311 312 313

GFSSW_850_thetae_054.txt.gz
Theta_e
309 308 309 309 307 307 305 305 304 304 305 307 307 306 306 306 305 307 310 313 311 316 316 316 320 320 324 322 324 324 325 325 323 323 323 324 323 324 324 324 328 332 339 339 340
308 306 305 306 309 306 304 304 305 305 306 305 305 305 304 304 305 305 307 310 312 313 317 317 319 318 322 323 324 323 325 325 321 321 321 324 324 324 324 323 320 324 331 340 341
307 308 307 304 308 305 303 302 303 303 303 303 303 304 303 305 307 305 305 307 312 313 316 318 317 317 318 323 323 323 325 322 321 322 322 323 324 323 323 322 320 323 322 329 339
308 306 307 305 301 305 302 302 301 301 301 303 303 302 303 305 306 309 309 310 310 311 313 317 317 317 316 320 323 323 322 323 322 322 322 322 322 323 323 323 323 323 322 321 338
307 306 307 305 303 302 302 301 302 302 301 300 301 304 304 305 305 307 307 309 311 311 312 316 317 316 316 319 322 322 321 322 322 322 322 323 323 324 323 323 323 323 322 324 335
306 306 306 305 304 300 302 302 302 302 301 301 301 302 304 304 304 305 306 306 310 312 310 315 316 315 316 317 319 321 321 322 323 323 323 323 323 323 322 322 323 322 321 323 334
304 305 305 308 301 300 301 301 300 301 301 300 300 302 303 302 304 305 306 306 310 312 311 314 316 316 317 317 318 320 321 321 322 323 324 323 323 323 322 322 322 322 322 322 332
305 303 304 305 304 301 300 301 300 300 299 299 301 302 303 303 304 306 306 307 309 310 310 314 316 316 317 318 319 318 318 323 320 322 322 321 324 320 321 321 321 321 322 321 324
304 304 303 303 304 302 301 300 301 302 301 300 303 304 304 304 303 304 306 308 310 310 309 314 316 316 316 315 317 316 319 317 320 322 322 321 321 322 322 321 321 321 321 321 320
304 304 305 299 301 305 301 301 302 303 300 301 303 304 303 303 303 304 305 307 312 313 312 315 315 315 313 316 318 319 314 317 317 321 322 322 317 320 322 319 320 320 320 321 322
304 304 303 302 302 302 301 301 302 303 302 303 303 303 302 303 306 306 304 310 311 312 314 315 314 314 314 314 313 312 314 316 316 316 319 323 321 317 322 319 319 319 320 321 322
304 302 303 300 303 302 302 300 301 303 303 303 303 304 305 305 307 306 307 309 310 313 312 314 314 311 313 314 314 313 313 314 315 316 318 316 319 318 315 320 319 319 320 322 320
304 303 303 298 303 302 302 302 302 303 303 305 307 307 307 308 308 307 307 308 308 311 309 314 313 312 315 315 314 313 313 312 315 314 314 315 317 316 316 316 316 318 320 320 319
304 302 300 299 303 303 303 302 302 302 299 308 308 308 308 308 308 309 308 308 307 311 310 314 313 314 315 316 313 316 312 312 313 315 316 314 319 315 317 316 313 315 316 317 317
303 298 297 300 304 303 305 304 303 304 304 308 310 308 308 309 307 309 309 309 308 311 309 314 315 316 316 315 313 314 310 311 312 310 312 313 315 314 309 313 317 316 315 317 317
297 296 297 303 304 304 304 304 304 298 309 311 309 309 309 308 310 309 311 311 309 311 312 315 313 314 314 312 311 309 310 310 308 309 309 310 313 315 311 310 309 309 314 316 317
297 298 302 305 306 305 304 304 298 301 306 311 311 309 311 312 313 312 311 312 312 314 314 315 315 312 312 314 312 311 312 311 315 312 312 307 311 314 311 309 308 308 310 311 313
298 304 305 305 306 305 305 301 301 303 312 312 313 313 314 313 313 313 313 314 312 312 314 317 317 314 311 312 312 312 312 310 314 312 311 307 312 311 308 308 309 311 313 311 312
302 305 306 306 306 306 305 295 300 306 312 314 313 314 315 314 312 313 314 314 313 311 314 314 315 312 313 311 311 313 313 307 305 303 303 308 306 305 304 305 307 308 308 309 310
306 307 307 306 306 306 307 305 303 305 310 312 314 314 317 314 314 313 314 311 313 312 309 308 315 311 313 312 311 311 308 312 304 307 311 308 306 308 307 306 304 306 307 308 309
307 308 307 307 306 307 307 299 306 309 310 309 309 310 313 315 314 314 312 312 311 312 308 307 310 313 313 314 316 313 311 311 309 306 308 310 309 303 306 304 302 302 307 309 310
308 307 307 306 307 308 307 305 309 309 309 309 308 309 309 313 314 312 312 312 311 311 310 308 308 313 313 312 312 314 312 311 309 309 304 304 311 306 303 302 302 305 308 309 312
306 306 306 306 310 306 305 308 310 310 309 309 308 308 308 308 311 310 309 309 311 310 310 308 307 313 312 311 311 315 314 313 310 307 305 311 312 305 305 304 307 308 309 310 312
305 300 305 307 308 305 306 308 309 310 309 308 308 307 308 308 307 309 309 308 310 310 311 309 307 306 308 308 310 314 314 313 313 315 314 313 312 311 309 306 306 308 310 311 311
301 298 299 299 303 303 305 307 309 310 309 308 308 307 308 309 309 309 308 308 308 311 309 309 308 304 306 306 308 310 311 313 314 313 314 313 313 311 310 309 307 308 309 311 312
297 297 300 297 297 302 302 307 305 305 309 310 309 308 307 308 308 309 308 308 309 307 306 304 305 303 305 306 307 308 307 309 312 313 314 314 314 312 309 308 307 308 309 311 312
298 299 300 295 295 301 296 300 303 304 307 307 308 308 308 309 309 308 307 306 306 306 306 306 302 299 301 304 306 306 306 307 308 310 311 312 312 310 310 309 309 309 308 310 311

GFSSW_850_thetae_057.txt.gz
Theta_e
308 308 310 306 307 308 307 306 304 304 305 306 306 306 307 307 307 307 306 309 313 314 314 316 319 321 321 323 324 324 326 325 324 324 324 323 323 323 323 324 323 325 329 332 340
308 308 306 307 304 307 307 305 303 303 303 304 304 304 305 304 305 305 305 306 310 314 316 317 318 319 321 322 323 324 325 325 321 321 323 324 323 323 323 321 321 324 324 327 340
308 308 307 308 307 305 306 304 302 301 301 302 303 303 303 304 304 305 307 304 308 312 315 317 317 319 321 322 323 323 324 322 322 321 322 323 323 323 323 323 321 323 323 321 335
306 308 307 307 307 303 306 304 303 301 301 302 301 303 303 305 305 307 309 309 308 311 314 316 317 317 318 321 322 324 322 322 322 322 322 322 322 322 322 322 322 322 323 322 325
305 305 306 307 305 306 304 304 304 304 300 300 300 303 304 304 304 306 307 308 310 310 313 316 317 315 316 319 322 321 322 322 322 322 322 322 323 323 322 322 322 322 323 323 323
307 305 303 305 306 304 303 302 303 301 301 302 301 302 303 304 303 303 304 307 307 310 312 313 316 316 316 320 320 321 321 321 322 322 323 323 323 322 322 322 322 322 322 323 322
306 304 305 303 304 305 302 304 303 300 300 300 299 301 301 302 303 303 304 305 307 308 311 312 315 315 316 316 319 320 321 321 322 322 324 322 323 324 322 322 321 322 322 323 322
305 305 305 305 303 305 304 302 303 299 299 299 300 302 303 303 303 305 305 305 307 310 311 310 316 315 316 317 318 318 319 323 322 322 322 322 322 321 322 322 322 322 321 322 322
305 305 304 304 303 302 305 301 302 302 302 299 301 303 303 303 303 304 306 306 308 309 311 310 314 315 315 318 318 317 321 319 321 322 322 322 323 320 321 321 321 321 322 322 322
305 304 303 304 303 302 303 301 302 302 302 301 302 303 303 302 303 305 306 307 309 310 312 311 313 316 314 318 318 319 318 317 320 323 322 322 318 321 321 321 320 320 321 322 322
304 304 303 304 300 302 303 301 303 302 302 302 302 302 303 303 305 306 305 307 310 312 312 311 311 316 317 313 313 314 316 317 316 320 323 323 322 319 322 321 319 321 321 321 322
303 303 303 303 302 303 302 301 301 303 303 303 302 303 305 305 306 305 308 308 311 312 309 308 313 312 314 313 313 316 314 316 314 317 320 321 323 321 319 320 319 319 320 322 322
303 303 303 303 301 303 302 302 302 302 303 305 306 306 306 307 308 306 308 308 311 311 308 312 313 311 315 314 314 312 316 313 315 315 314 316 318 318 317 319 319 319 320 321 320
303 303 299 299 304 303 303 303 302 302 297 307 308 308 308 308 307 308 309 308 309 310 310 314 312 312 315 315 313 316 311 313 314 316 320 314 321 316 317 315 315 319 319 318 318
302 300 299 297 304 303 304 304 303 303 303 306 309 308 308 308 308 308 309 308 309 310 311 314 313 314 316 316 313 314 311 312 311 312 313 313 318 315 313 317 317 315 316 316 318
298 298 298 302 304 304 304 304 304 299 307 310 309 308 308 307 310 309 311 309 309 311 311 313 313 314 314 312 311 309 310 310 308 310 315 312 316 315 313 312 312 313 316 317 318
299 303 304 305 305 305 304 304 299 300 305 311 311 310 311 312 312 312 311 309 311 313 314 315 315 312 312 313 311 311 312 317 318 317 315 307 311 315 310 309 309 310 311 312 314
302 305 306 306 306 305 305 302 303 307 312 312 312 312 313 312 312 312 311 311 310 312 313 317 316 315 312 312 314 312 313 312 315 315 314 307 313 313 308 308 308 309 310 311 311
305 306 306 306 306 306 305 295 307 308 312 312 312 312 314 313 313 314 314 314 313 310 315 316 316 313 312 311 311 313 313 306 306 303 308 310 307 306 305 306 307 308 308 310 310
306 307 306 306 306 306 306 305 306 305 309 313 313 313 313 313 314 314 313 312 313 312 308 309 316 313 313 312 311 311 308 314 308 310 313 309 307 310 308 308 306 305 305 306 309
307 307 306 307 307 307 309 305 306 308 309 309 309 311 314 315 312 313 312 311 311 311 307 307 310 313 313 315 315 312 311 310 310 308 312 311 311 304 306 306 305 303 305 307 308
308 307 305 307 307 308 309 307 309 309 309 308 307 309 311 313 314 311 311 312 311 311 310 308 310 313 314 311 312 312 311 310 312 310 306 306 311 306 304 304 303 306 308 309 308
307 305 305 306 308 308 306 308 309 309 308 308 308 307 307 308 310 310 309 309 311 309 309 308 307 313 313 311 310 314 314 311 308 306 306 313 313 305 304 305 306 307 308 310 310
306 299 305 306 306 305 307 307 308 309 308 307 307 306 307 307 306 308 309 309 310 311 310 308 306 306 310 308 309 313 314 314 314 316 314 312 313 312 311 311 309 308 309 310 312
302 299 300 298 302 303 305 305 308 308 308 308 307 307 307 308 308 308 308 308 308 311 309 308 307 303 307 307 309 310 311 313 313 313 314 313 312 312 311 309 309 308 308 310 311
297 298 299 296 297 301 302 306 304 304 307 309 308 307 306 308 307 309 307 307 308 306 309 304 306 303 304 306 307 308 307 309 311 312 313 312 312 311 312 312 310 311 308 308 310
298 300 299 295 295 302 298 300 305 304 307 307 307 307 308 308 306 308 306 305 305 305 305 305 302 301 304 304 305 306 307 307 308 309 311 313 312 310 309 309 310 311 312 309 309

GFSSW_850_thetae_060.txt.gz
Theta_e
310 309 309 308 308 305 306 306 305 303 303 303 305 306 306 307 307 308 309 309 311 313 314 316 318 319 322 322 326 324 326 327 326 324 325 325 326 324 324 327 327 327 326 326 338
307 309 309 308 307 304 306 306 304 302 301 302 303 303 303 304 306 307 307 306 308 312 314 316 317 319 321 322 324 324 326 326 323 323 325 324 325 324 325 325 326 326 324 327 339
305 307 308 307 307 306 304 304 304 301 301 302 303 302 303 303 306 306 306 307 308 309 315 316 318 318 319 323 323 324 326 324 323 322 323 324 325 324 324 326 325 325 324 324 334
307 306 306 306 307 305 302 304 305 303 300 299 299 302 303 304 307 307 307 308 309 308 311 315 317 318 317 323 322 325 324 323 323 323 322 323 323 323 323 324 323 323 322 324 327
307 306 306 305 307 307 303 303 304 303 301 300 300 301 304 306 305 305 307 307 308 307 310 314 317 317 317 319 322 324 324 324 323 323 323 323 323 322 323 323 323 322 322 324 324
307 306 305 305 304 307 305 303 303 301 300 300 300 300 303 304 303 303 303 306 307 308 310 314 317 316 315 318 322 322 323 323 323 323 323 323 323 324 322 323 323 323 323 323 323
306 305 305 305 304 303 306 303 302 302 299 299 300 301 303 302 303 304 303 303 306 307 310 313 316 316 316 318 318 320 323 323 323 322 321 323 325 325 322 323 323 323 323 322 323
306 306 305 305 304 301 303 306 301 301 300 300 302 303 304 302 303 304 305 304 305 307 309 310 315 316 316 317 319 319 321 324 322 322 322 323 325 323 322 323 323 323 323 323 322
306 305 304 304 304 303 302 305 302 301 302 303 303 304 304 303 304 304 305 307 306 308 308 312 311 316 317 318 320 320 319 321 323 322 324 324 323 322 322 322 322 322 323 323 323
304 304 304 304 304 302 302 303 301 301 302 301 301 304 304 302 304 305 306 306 308 309 309 310 308 316 317 318 319 319 319 319 321 324 324 325 324 320 322 322 321 322 322 322 323
304 304 304 303 303 302 303 302 303 304 303 303 302 303 303 304 305 306 306 308 308 310 313 311 310 317 316 315 314 315 318 320 320 323 324 324 324 323 321 322 322 322 321 322 323
303 303 303 303 302 303 303 302 301 303 305 303 303 303 305 305 306 306 307 308 310 312 311 312 314 310 315 315 315 316 316 318 319 323 323 323 324 323 322 322 323 322 321 322 323
303 303 303 303 301 303 302 302 302 303 306 306 306 306 306 307 308 306 308 309 310 312 312 312 313 312 316 315 317 317 317 319 319 323 321 322 323 323 323 321 321 321 320 320 322
303 302 303 303 304 303 303 302 302 302 309 309 308 308 308 308 308 308 308 308 310 311 312 313 312 313 317 315 316 318 317 318 321 321 320 320 317 319 320 321 321 320 320 320 321
300 303 303 301 304 303 304 304 303 304 315 308 309 307 308 308 308 308 307 309 311 311 312 314 314 316 318 316 315 316 315 317 318 316 317 318 318 316 317 318 318 318 319 320 320
299 302 299 301 304 304 304 304 304 310 313 311 309 309 308 308 310 309 310 310 310 311 311 314 312 314 315 315 314 313 315 315 316 316 318 316 317 316 316 316 316 317 318 318 318
302 304 306 305 305 305 304 305 310 313 308 311 312 309 309 310 310 311 311 311 312 313 313 315 315 314 314 315 313 315 317 319 318 320 318 313 317 315 316 315 316 315 314 314 317
304 306 306 305 305 305 305 307 314 310 312 312 312 313 313 312 311 311 310 312 312 313 314 316 317 315 314 315 316 316 315 317 316 316 316 312 316 315 314 313 314 311 311 312 312
305 306 306 306 305 306 307 312 313 310 313 312 313 312 316 313 312 313 312 313 313 312 316 317 315 313 314 313 314 316 317 311 314 310 316 315 314 313 314 313 312 311 310 311 310
306 306 306 306 306 306 309 309 310 306 310 313 314 313 314 314 314 313 314 312 312 312 311 314 317 315 313 314 313 315 313 316 317 318 316 313 313 313 313 313 313 312 311 310 309
307 307 306 306 306 307 311 309 308 310 310 310 312 314 312 314 314 314 314 311 312 312 310 311 315 315 315 317 317 315 316 315 315 315 316 314 313 312 312 312 312 311 311 310 310
307 308 306 307 308 309 311 308 309 310 309 309 311 311 313 313 313 312 314 313 313 310 312 310 315 317 317 313 314 314 316 316 317 317 315 314 315 312 311 310 308 311 311 311 310
307 305 306 306 311 310 307 309 309 311 309 309 310 309 309 312 314 312 312 310 311 311 312 311 314 316 315 313 313 316 316 315 314 314 317 317 315 310 309 309 310 311 312 311 311
306 307 306 306 306 307 309 310 311 309 309 308 309 308 309 310 310 312 312 310 311 312 309 310 311 314 316 315 314 315 315 315 315 318 316 316 315 314 313 314 314 313 312 312 311
303 305 304 307 306 307 308 308 311 311 310 309 310 309 309 311 311 311 311 311 311 310 311 312 314 310 309 311 313 313 314 314 316 315 316 315 315 314 314 314 313 312 311 310 310
299 302 300 299 300 306 307 308 308 307 310 311 311 310 309 311 310 311 311 311 313 311 313 310 313 309 309 308 309 311 312 313 314 314 314 314 314 313 312 312 312 312 311 311 311
299 299 301 297 302 307 304 304 306 306 308 308 309 310 311 309 307 308 307 306 309 312 311 312 311 312 313 307 308 310 309 310 311 312 313 314 313 312 312 311 311 311 311 310 311

GFSSW_850_thetae_063.txt.gz
Theta_e
307 308 311 309 307 308 306 305 305 301 302 302 302 303 304 305 306 308 309 310 311 312 315 316 317 320 320 323 326 325 326 328 327 326 325 325 326 326 327 330 332 330 330 330 339
308 306 309 308 309 307 305 306 306 302 300 302 303 303 303 303 306 307 308 309 309 310 313 316 316 318 319 323 325 326 328 326 326 325 326 325 325 326 328 329 328 328 329 338 339
307 308 307 306 308 308 306 304 306 303 301 299 299 301 302 303 307 307 308 308 308 310 310 315 316 318 319 321 323 325 327 325 325 324 325 325 325 325 327 329 328 327 327 330 339
308 308 307 306 305 309 307 304 305 305 304 301 300 299 303 307 308 308 307 307 308 310 310 311 316 317 319 321 323 325 325 325 324 324 325 325 325 325 325 327 325 324 325 326 334
307 308 306 306 305 305 307 305 305 304 302 300 300 299 304 306 306 306 306 306 308 310 309 308 315 318 319 319 322 325 324 324 323 323 323 323 324 324 324 324 324 324 324 325 327
307 307 307 305 305 305 305 308 304 305 302 300 300 299 304 305 305 304 305 304 307 309 306 309 314 317 317 317 321 323 322 324 324 324 323 323 322 323 323 323 324 324 324 325 325
307 307 307 305 305 305 305 305 307 303 304 299 299 305 305 305 304 304 305 306 307 309 309 308 313 316 317 317 317 322 322 323 325 324 324 324 325 324 322 322 324 324 324 324 324
306 306 306 304 304 305 304 303 306 304 303 302 301 305 305 304 304 305 305 306 305 308 307 312 312 312 317 316 318 321 323 323 324 324 323 324 325 324 323 323 322 324 324 324 324
305 305 305 304 304 304 303 303 305 303 302 303 305 305 305 305 305 304 305 306 307 308 307 310 310 311 317 318 319 320 323 323 323 322 323 323 323 323 323 322 322 323 324 323 324
305 304 304 304 304 304 303 303 302 301 303 304 304 305 306 304 304 306 306 307 308 308 309 310 307 312 319 319 321 319 319 320 323 323 322 323 321 323 322 323 322 322 322 323 324
305 303 304 304 303 303 303 306 307 307 305 306 304 304 305 305 306 307 307 308 308 310 309 307 307 319 318 317 316 316 316 316 319 321 322 322 323 323 321 323 323 322 321 322 323
304 303 303 303 303 303 304 306 304 305 308 305 305 305 305 305 307 307 308 308 309 311 311 311 313 316 316 316 315 316 317 319 319 322 322 322 323 322 323 323 323 323 322 323 323
303 303 303 303 303 303 305 304 302 303 308 308 308 307 308 308 308 308 307 309 310 311 313 313 313 313 316 316 315 316 317 320 321 320 322 321 322 322 323 323 322 322 323 322 321
302 302 303 303 304 305 305 303 302 302 310 310 309 309 309 309 309 308 308 309 307 313 313 314 313 314 316 315 315 315 315 316 318 321 321 320 320 320 321 322 323 322 321 321 321
298 301 303 302 305 306 305 304 304 305 317 310 309 308 309 309 308 308 308 311 312 312 312 314 314 312 318 316 315 316 316 317 320 320 318 320 320 318 318 320 321 321 321 320 320
300 303 300 300 304 305 304 304 305 310 314 312 310 309 309 310 310 310 311 311 311 311 311 314 313 313 317 316 315 316 318 318 318 317 319 317 317 316 318 317 316 317 318 318 318
304 306 306 305 307 305 304 306 313 315 310 312 313 309 310 311 311 311 312 312 313 314 313 314 313 313 316 317 316 315 317 318 318 320 319 316 316 317 317 316 317 317 316 316 317
306 306 305 305 305 304 307 309 315 312 313 312 313 311 313 313 312 311 312 312 312 311 315 319 318 315 315 316 317 316 315 317 317 317 317 315 316 315 316 315 315 315 314 314 314
306 306 306 306 305 306 308 315 314 313 313 312 314 315 311 312 312 312 312 313 312 314 316 319 316 315 315 315 316 317 318 314 316 315 317 316 315 315 315 314 314 314 313 313 313
307 308 308 306 306 306 311 311 313 310 311 314 314 314 318 314 314 314 314 313 313 313 313 316 318 315 315 315 315 316 315 315 317 318 314 315 314 314 314 314 314 314 314 314 313
308 308 307 306 306 309 314 312 311 311 311 312 313 313 313 314 315 315 314 313 313 313 313 315 316 316 316 317 317 316 316 316 316 317 319 314 314 314 314 314 314 314 314 314 314
309 309 307 306 310 310 313 311 310 311 311 311 313 314 313 314 313 314 315 314 313 312 314 313 316 317 318 315 316 316 316 316 317 318 316 316 316 313 314 313 312 314 314 314 313
309 306 306 306 312 312 310 311 311 312 311 311 313 312 311 314 315 313 314 312 313 312 313 313 317 318 317 315 315 317 316 316 316 316 318 317 316 314 312 311 311 313 315 314 313
308 307 306 307 308 310 312 312 312 311 310 310 311 311 311 313 313 314 314 313 313 313 310 311 315 316 318 317 316 316 316 316 316 319 316 316 315 315 314 314 314 314 314 313 313
306 309 308 308 309 309 311 311 312 312 311 310 311 311 312 313 314 314 313 312 313 312 313 314 316 312 312 313 315 315 315 316 317 316 317 315 315 315 315 315 314 313 312 312 312
303 305 304 308 307 310 310 312 312 311 312 312 312 312 311 313 312 313 313 313 314 313 314 312 314 312 313 311 311 313 313 314 315 315 316 315 315 314 314 312 312 312 312 312 312
299 302 305 303 307 310 310 311 310 310 310 311 311 312 312 310 309 309 310 309 312 314 314 314 312 314 316 310 310 311 311 312 312 313 313 314 314 312 312 312 313 313 313 312 312

GFSSW_850_thetae_066.txt.gz
Theta_e
309 309 308 308 309 309 308 306 307 304 301 301 302 302 302 302 303 306 309 309 311 311 312 314 317 317 320 322 324 325 327 326 327 327 326 326 326 326 328 331 331 330 333 336 338
309 308 308 308 306 308 309 307 305 306 302 300 300 300 302 302 303 307 307 309 310 310 312 314 316 317 319 321 323 324 326 326 324 325 325 325 325 326 328 329 328 331 338 337 341
308 308 309 308 306 305 308 308 303 306 305 303 300 299 300 303 308 308 308 308 309 309 308 312 314 316 318 320 322 324 325 324 324 325 325 325 325 326 328 328 328 328 331 339 340
308 308 308 308 306 306 305 307 306 304 306 302 300 300 300 306 308 308 307 306 308 309 309 311 311 316 318 319 321 324 323 324 324 325 325 325 325 325 328 326 325 325 327 334 338
308 307 307 308 307 305 305 304 308 305 305 302 300 299 299 307 307 307 305 305 306 307 310 311 310 315 318 318 319 322 324 324 324 324 326 325 325 325 325 325 324 324 325 327 336
309 307 307 308 307 305 305 304 306 309 304 305 300 299 306 305 305 305 305 305 306 308 309 308 309 313 315 317 319 322 323 324 324 324 325 324 324 323 324 323 324 324 324 325 327
308 307 306 307 305 305 304 305 303 308 306 303 303 301 306 305 305 304 305 306 306 308 309 307 308 310 315 316 317 321 323 322 322 324 324 323 324 323 323 323 323 324 324 324 325
308 306 306 305 304 304 304 304 304 306 307 302 302 304 305 305 304 304 305 306 306 308 308 308 308 311 313 317 316 320 322 324 320 323 324 323 325 323 322 322 322 323 323 323 324
307 306 305 304 304 304 304 303 302 305 304 302 304 305 305 305 305 304 305 306 306 308 308 307 310 311 313 317 317 319 324 323 318 317 324 324 325 323 323 323 322 322 323 324 324
306 305 304 303 304 304 303 302 303 302 305 306 305 304 306 305 306 305 306 307 307 308 308 307 307 310 311 318 319 319 321 322 320 318 320 323 323 322 323 324 323 322 322 322 323
304 305 304 304 303 302 303 305 307 306 307 307 306 306 305 305 306 306 307 307 308 308 309 307 310 313 311 316 316 317 319 321 320 321 321 324 322 320 322 323 323 323 322 322 323
302 304 304 303 303 303 302 306 305 305 307 307 306 306 306 306 307 307 309 308 309 309 309 309 310 311 313 315 316 316 317 318 320 322 322 321 322 321 320 321 322 323 322 321 322
301 303 302 302 303 304 304 307 304 305 308 308 308 308 308 308 308 308 308 308 309 308 309 314 311 311 316 318 316 315 315 317 321 322 322 321 321 320 320 320 321 322 323 323 322
300 299 302 303 304 305 305 305 303 304 309 311 310 309 309 309 309 308 307 309 308 309 312 313 311 315 316 316 315 317 317 319 320 321 322 320 319 320 320 320 321 322 322 323 322
299 300 303 303 305 306 306 304 304 306 316 310 310 308 310 309 308 309 308 309 310 312 313 314 313 315 318 315 315 315 315 317 318 319 318 319 318 315 318 318 320 321 322 321 321
300 304 301 301 305 306 305 304 306 309 312 312 310 309 310 310 311 309 311 310 311 313 314 314 312 313 316 316 316 316 317 317 318 318 315 317 317 314 315 317 317 320 322 322 321
304 306 306 306 307 305 304 306 311 314 310 313 312 309 311 312 312 311 312 313 313 314 314 314 312 313 315 317 316 317 316 316 316 314 315 314 314 314 315 315 315 314 316 317 319
306 306 305 306 305 305 307 309 313 311 313 313 312 312 313 312 311 311 311 312 312 313 314 317 315 315 316 316 316 317 315 316 316 315 316 314 315 314 313 315 315 314 314 315 315
306 306 306 306 305 306 307 312 313 313 313 312 313 312 310 311 312 312 313 313 311 314 316 316 316 315 316 315 316 315 316 313 316 314 315 314 313 314 313 313 313 313 313 313 312
307 307 307 306 306 307 310 311 312 311 312 313 315 314 316 312 313 313 314 313 313 313 314 315 315 315 315 315 315 317 314 315 313 315 315 314 313 312 312 312 312 312 313 314 314
308 309 308 306 306 308 312 312 311 311 311 312 314 313 313 312 313 314 314 313 313 312 313 315 314 315 316 316 316 315 316 316 316 314 318 315 313 311 311 311 311 312 314 314 313
308 310 307 306 308 309 312 310 311 312 311 312 313 312 314 314 313 315 314 314 313 313 314 313 315 318 317 315 315 316 315 315 316 316 313 313 313 312 310 310 312 314 314 314 314
308 307 307 306 311 312 311 312 312 312 311 311 313 312 312 314 314 315 314 312 312 313 314 314 315 316 316 315 315 317 316 316 315 315 316 314 313 311 311 310 311 313 313 314 313
307 306 307 307 308 309 312 312 312 311 311 310 311 311 312 313 313 314 313 313 313 313 311 311 315 315 317 315 315 315 316 316 316 313 316 314 314 312 311 312 312 313 312 312 312
308 308 307 307 308 310 311 312 312 312 311 310 311 312 312 313 313 313 313 313 313 312 312 313 315 309 312 313 314 315 315 315 314 315 314 314 313 312 311 312 312 312 312 313 313
306 307 307 309 309 309 310 312 311 312 312 311 312 311 311 313 312 313 312 313 313 312 314 312 311 310 309 311 311 312 312 313 314 315 315 315 314 311 311 312 312 313 313 313 312
303 305 306 308 308 309 310 311 312 311 311 311 312 312 312 310 309 309 310 310 312 313 314 314 309 309 313 310 309 309 310 311 313 313 313 314 312 310 311 313 313 313 312 310 309

GFSSW_850_thetae_069.txt.gz
Theta_e
310 309 309 309 308 307 308 308 307 306 307 302 300 300 301 302 302 302 305 306 308 309 313 312 313 316 317 319 321 323 324 325 323 325 325 325 325 325 327 330 330 331 338 337 336
309 309 309 309 308 307 306 307 308 304 307 306 302 299 299 301 302 303 305 308 310 309 310 311 312 315 316 319 321 323 323 324 321 322 325 324 324 325 328 328 336 336 337 338 335
310 308 308 309 309 307 305 305 308 307 304 306 302 300 299 302 305 307 308 307 306 307 309 310 312 314 316 317 320 322 324 323 323 323 325 324 324 326 327 327 328 337 336 339 332
310 310 309 308 308 307 306 305 304 308 306 306 303 299 299 302 307 307 308 306 305 308 308 308 310 312 315 318 319 322 322 322 323 323 325 324 325 325 327 325 328 329 333 340 338
310 310 308 307 307 307 305 305 305 305 309 305 305 300 299 305 306 307 305 305 305 306 307 309 310 311 315 317 317 320 321 322 322 324 324 325 324 324 324 324 326 330 330 338 341
310 309 308 307 306 306 305 304 305 302 308 308 304 303 301 306 304 305 304 303 305 307 307 310 309 311 314 316 317 319 320 322 324 324 324 325 323 325 324 324 323 325 329 332 338
309 309 307 306 306 305 305 304 305 302 306 308 303 304 303 302 304 305 304 304 305 306 307 306 306 308 311 315 316 317 321 321 324 323 323 322 325 322 324 324 324 324 325 325 329
308 308 306 306 305 304 304 304 304 302 305 307 304 303 303 304 305 305 303 305 305 306 308 307 306 308 311 313 315 316 320 324 321 324 323 320 324 322 322 322 323 324 324 324 325
307 307 306 305 304 304 304 303 302 302 305 303 302 305 305 305 305 305 304 304 306 306 307 306 307 311 313 314 317 317 321 322 320 321 322 323 322 321 322 322 321 322 323 323 324
307 305 305 305 304 304 303 302 302 303 305 304 305 306 305 305 305 305 305 306 307 306 307 306 306 310 311 316 319 318 319 321 321 318 321 322 321 320 322 322 321 321 321 321 322
307 302 304 304 304 303 303 305 307 307 307 306 307 306 305 305 305 306 306 307 307 307 308 307 309 312 311 311 314 315 317 321 319 317 318 320 319 321 321 322 322 321 321 321 322
306 301 301 302 302 303 303 306 305 305 305 306 307 306 306 306 306 307 307 307 307 308 308 308 310 311 311 312 314 317 319 320 320 319 318 319 319 320 319 320 322 322 322 322 322
304 301 299 301 303 304 303 306 305 303 306 308 307 308 308 308 308 308 308 308 308 309 309 311 311 311 312 314 317 317 319 320 320 320 320 320 320 320 320 319 320 321 322 322 322
302 300 299 301 304 305 305 305 304 304 307 310 310 309 308 308 308 307 307 308 308 309 307 311 312 314 313 316 317 315 314 318 321 321 323 321 323 320 320 319 317 319 321 322 322
301 300 302 302 305 306 306 305 304 306 305 310 310 308 309 309 308 308 308 307 308 310 312 312 313 316 316 317 316 316 317 319 321 319 318 320 317 315 318 318 318 317 321 322 322
300 303 302 302 305 306 305 304 306 308 300 312 309 309 310 310 310 308 310 308 308 313 312 311 311 314 315 316 315 316 317 316 317 317 314 318 316 314 315 318 316 318 321 322 321
301 306 306 306 306 305 305 306 310 310 308 313 311 309 311 312 312 312 312 312 311 311 314 312 313 312 315 315 315 315 314 316 316 314 316 313 315 313 312 312 312 315 318 320 321
305 306 306 306 306 305 306 306 310 309 313 312 311 311 312 311 311 311 311 310 311 312 313 310 312 314 315 314 315 314 313 313 316 313 314 312 314 312 312 312 313 313 313 313 314
306 305 305 305 305 306 307 310 308 312 313 313 312 310 309 310 311 311 312 311 311 312 316 316 316 313 315 314 313 316 310 311 311 310 310 312 312 312 311 310 310 312 313 313 312
306 306 306 305 306 307 308 310 311 311 311 313 315 313 313 310 311 312 313 312 312 312 313 314 316 315 315 314 313 314 313 311 308 309 314 313 311 310 311 310 310 310 313 313 313
307 308 307 306 306 308 310 310 310 311 311 312 313 312 310 312 312 313 313 312 312 311 311 313 312 313 313 315 315 315 315 315 313 312 315 312 310 308 308 309 309 311 313 313 313
308 306 307 306 307 308 310 310 310 311 311 312 313 313 312 312 313 314 313 313 313 312 313 312 312 313 315 313 313 315 316 315 314 315 311 310 311 307 308 308 312 312 313 313 313
308 307 306 306 305 309 311 310 311 311 310 311 313 311 314 312 314 314 312 313 312 312 312 312 309 314 311 311 313 316 315 315 313 312 313 310 310 308 309 309 310 311 312 312 312
306 306 306 306 306 307 309 311 312 310 310 310 310 310 311 312 313 313 312 312 312 312 311 311 312 308 309 310 312 315 315 315 312 307 314 314 311 310 310 311 310 311 312 313 313
307 304 305 307 305 306 309 310 312 311 311 310 310 311 311 313 313 313 312 313 312 311 311 311 310 306 311 311 313 314 314 315 312 313 312 312 313 312 309 308 310 312 313 312 311
308 306 306 304 306 305 307 310 312 311 311 310 311 310 310 311 310 312 311 313 312 311 313 309 308 306 306 310 310 311 311 312 313 313 314 313 313 310 310 312 312 312 311 310 310
305 306 307 306 304 305 307 309 312 310 310 309 310 309 309 308 307 308 309 310 310 310 312 310 305 303 307 308 307 307 307 310 312 312 312 313 311 310 309 310 310 310 310 310 310

GFSSW_850_thetae_072.txt.gz
Theta_e
310 309 310 310 310 309 308 306 307 309 305 308 304 301 299 299 300 302 302 302 306 309 308 312 312 312 314 317 318 320 324 323 323 320 320 322 324 325 328 331 331 335 339 336 333
310 311 309 309 309 309 308 307 306 309 305 306 307 302 300 299 300 302 304 305 310 308 309 310 311 311 314 317 317 321 323 322 321 322 323 323 323 326 328 333 337 338 337 334 333
311 310 310 310 308 309 308 307 306 306 308 306 305 302 299 299 301 306 307 308 306 304 307 309 309 310 313 315 317 320 324 322 321 322 323 324 323 325 327 328 335 338 338 332 332
312 310 311 309 308 307 307 307 305 305 307 308 307 305 300 299 302 307 308 307 304 304 306 307 308 310 312 314 316 319 320 321 323 323 324 324 323 325 326 326 328 336 338 331 334
314 311 310 309 307 306 306 306 304 306 304 308 308 305 303 303 302 302 306 305 303 305 306 307 308 309 311 313 315 317 318 321 322 324 325 325 325 325 323 329 329 332 337 337 338
315 312 310 309 307 306 306 305 305 306 303 307 309 305 303 303 303 305 304 304 304 305 306 307 308 308 310 313 315 316 317 319 322 323 324 325 324 323 323 326 330 329 334 338 333
319 313 309 308 306 305 305 304 305 305 302 306 308 304 304 301 302 304 304 304 304 305 306 306 307 308 310 313 315 316 318 319 320 323 324 323 326 323 323 323 325 328 327 336 337
316 313 308 306 305 304 304 305 305 303 302 306 307 303 303 304 305 304 304 304 305 305 306 307 305 307 308 311 315 316 317 321 320 322 322 323 326 321 323 323 323 326 326 326 335
318 312 307 305 305 304 305 304 303 301 304 306 303 304 305 305 305 305 305 305 304 306 306 306 306 309 309 313 316 316 319 320 322 323 323 321 324 321 322 321 322 323 324 324 326
319 315 307 304 305 304 303 302 303 302 304 302 305 306 305 305 305 305 305 305 305 306 306 306 306 309 310 313 317 318 319 319 321 321 319 323 322 318 321 320 321 321 322 323 323
319 313 306 301 304 303 303 305 307 306 306 306 306 305 306 305 305 306 306 306 306 306 307 307 308 309 311 313 313 314 317 319 318 319 320 322 320 320 319 319 320 321 321 322 321
317 312 302 301 302 302 303 305 305 305 304 304 305 306 306 306 307 307 307 306 307 307 307 306 309 307 311 311 314 315 317 320 319 319 319 320 320 319 319 319 319 321 321 321 321
318 309 301 300 302 303 303 306 305 304 304 307 307 307 308 307 307 308 307 307 307 307 308 309 311 309 312 312 315 317 317 318 319 319 319 319 320 319 318 318 319 319 322 321 321
315 304 300 300 303 304 305 305 304 303 298 309 309 309 308 308 308 307 307 307 308 308 308 309 311 312 313 313 314 317 317 317 318 321 323 319 322 320 318 318 317 318 320 321 322
313 301 301 301 305 305 306 305 303 305 300 309 309 308 309 309 308 308 308 307 309 308 308 312 314 314 315 315 315 315 317 318 318 316 318 318 319 315 318 319 318 316 319 320 321
305 300 303 302 304 306 305 304 305 300 300 310 309 309 310 310 309 308 308 307 307 309 311 311 311 314 315 315 315 314 317 318 316 317 320 317 319 314 315 318 316 316 318 319 321
306 303 304 304 305 305 304 305 300 300 305 312 310 308 310 311 311 310 312 312 312 311 311 312 313 315 315 317 315 315 315 319 320 318 316 315 316 314 311 310 314 314 318 318 319
304 305 306 306 304 305 306 307 299 305 311 311 311 311 311 310 310 311 311 310 312 312 314 315 316 314 314 314 317 315 312 313 318 317 314 312 316 313 311 308 311 315 315 316 318
305 306 306 306 305 305 306 306 301 305 312 312 310 309 308 309 310 310 311 311 311 312 313 312 316 313 314 313 313 314 315 310 309 309 313 312 312 312 308 308 309 310 312 312 312
305 305 305 305 305 306 306 307 309 310 312 312 314 312 309 309 310 311 313 311 312 311 312 313 314 313 314 313 312 312 311 310 306 311 315 313 311 313 310 310 310 309 311 312 313
306 307 306 305 306 308 303 304 309 311 311 313 312 311 310 310 310 312 312 311 311 310 311 311 310 311 311 313 314 313 313 312 309 309 311 311 309 307 308 309 309 309 312 313 313
307 307 306 306 307 308 308 310 310 311 310 312 312 311 307 309 312 312 313 312 311 311 312 311 309 312 315 312 312 314 315 311 308 310 308 308 310 305 306 308 309 310 312 312 312
307 306 307 306 307 308 309 309 311 311 311 312 313 312 312 311 312 311 311 312 311 311 311 311 307 304 308 309 311 315 314 313 311 309 309 309 310 307 306 306 310 310 310 311 311
306 306 307 307 306 307 310 310 312 310 309 310 310 310 311 312 311 311 311 312 312 311 311 311 309 307 308 308 310 314 315 314 311 307 312 312 310 309 309 308 308 310 312 312 312
305 304 305 305 305 305 307 309 311 310 310 309 310 310 311 313 313 312 312 313 312 311 311 309 308 305 310 310 312 312 314 313 310 310 310 311 310 310 308 307 309 311 311 310 310
307 304 305 302 305 305 307 308 310 310 309 309 310 310 310 311 310 311 312 312 312 310 312 307 305 305 305 309 308 311 311 312 313 312 313 312 313 308 309 310 310 309 310 309 309
306 306 306 303 301 306 306 307 311 309 308 309 308 308 308 308 307 309 310 310 310 310 310 308 305 302 306 305 306 308 307 310 311 311 312 313 310 308 308 309 308 305 304 304 304

GFSSW_850_thetae_075.txt.gz
Theta_e
312 311 311 309 309 309 310 309 307 307 309 305 308 307 302 300 299 299 301 301 302 305 311 310 312 312 313 316 316 318 322 323 323 321 321 320 320 323 325 331 332 331 333 332 327
316 313 311 311 310 309 309 309 308 306 308 308 304 306 303 299 299 299 300 302 309 310 304 309 310 310 312 314 315 316 320 320 320 320 318 322 322 324 329 334 336 336 338 334 328
321 317 311 313 311 308 307 308 308 307 305 308 308 308 305 300 298 302 306 307 309 305 303 306 309 309 310 312 314 315 318 318 320 320 323 324 323 324 327 330 335 336 336 333 333
321 319 312 313 310 309 306 306 307 306 306 305 309 308 306 302 298 307 306 307 306 303 305 307 308 308 310 310 312 315 315 318 320 321 323 323 324 323 326 327 331 334 335 335 338
322 319 314 312 310 308 306 307 306 305 306 304 308 309 306 303 301 300 305 305 304 303 304 307 307 308 308 310 311 314 315 317 320 321 324 324 324 323 324 328 330 337 336 334 333
324 320 317 313 310 307 306 306 306 305 305 304 307 308 305 303 302 304 305 304 304 304 304 306 307 308 308 307 310 313 313 315 319 321 323 324 324 323 324 331 332 337 335 336 338
323 322 318 314 310 307 304 305 306 305 305 303 306 308 305 304 301 305 304 304 304 304 305 305 306 306 308 308 308 311 315 315 317 320 322 323 325 324 323 324 331 334 334 333 335
323 320 318 314 308 303 304 305 305 305 304 303 307 306 303 304 304 303 304 304 304 304 305 305 306 305 306 308 310 313 315 316 317 319 321 322 324 324 323 321 325 331 333 334 333
323 320 318 313 306 303 304 304 303 302 304 305 307 303 304 304 304 305 305 305 305 304 305 306 305 307 306 308 313 313 318 316 320 320 322 322 323 324 321 320 321 324 327 329 334
322 321 317 312 303 303 303 302 303 303 304 304 304 305 305 305 305 305 305 305 305 305 305 306 305 306 309 310 316 315 316 316 320 320 320 323 321 321 321 319 319 320 322 323 326
319 321 317 311 302 302 302 304 306 305 304 305 306 306 305 305 306 306 306 306 304 306 307 306 308 308 309 310 313 313 315 317 318 320 321 323 320 321 320 319 318 319 320 321 322
318 319 317 306 302 301 302 304 305 305 304 305 306 306 306 306 306 306 307 305 306 305 306 306 308 307 309 310 314 314 315 318 316 317 320 318 321 320 320 319 318 318 319 320 322
317 317 314 303 301 303 303 304 305 304 303 306 307 306 307 306 307 307 307 306 306 306 307 308 308 307 311 312 314 315 315 318 319 315 315 317 319 320 319 318 318 318 318 320 321
314 316 311 301 301 304 303 306 304 303 296 307 308 308 308 308 308 307 307 307 308 307 307 309 308 309 311 312 313 315 315 318 319 318 323 317 321 320 319 319 317 317 317 319 321
313 316 307 301 304 305 305 305 303 304 300 306 308 308 309 309 308 308 308 307 307 309 308 311 312 313 311 312 314 315 316 315 316 316 318 320 318 316 318 319 319 317 318 319 320
313 312 302 301 305 306 305 304 304 299 299 309 308 308 309 310 309 308 307 306 306 307 306 310 311 312 313 313 314 315 317 316 316 316 319 318 318 313 317 318 317 315 317 319 320
310 307 303 303 304 305 305 304 302 298 303 311 309 308 309 311 311 309 312 311 313 313 313 314 315 315 313 316 315 316 317 320 319 319 320 315 318 315 311 311 313 313 316 318 319
310 307 304 303 305 305 305 304 299 302 309 310 309 310 310 309 310 310 310 312 312 312 314 314 316 314 314 314 314 314 312 317 320 318 315 312 318 313 308 307 310 314 315 316 318
307 305 304 306 305 304 306 307 301 303 311 311 309 306 303 308 309 309 311 312 312 312 314 315 316 313 313 312 313 314 312 310 310 310 315 312 311 311 309 308 308 308 310 310 311
305 305 305 306 305 306 304 305 306 307 310 311 311 309 308 308 309 309 310 310 312 310 310 312 316 312 312 312 311 313 310 312 309 315 315 312 311 313 311 311 309 308 310 311 312
305 305 306 306 305 307 306 302 307 310 311 312 310 311 309 308 310 311 311 310 310 310 309 309 310 312 311 313 313 312 313 311 309 309 312 313 311 307 308 310 309 308 310 312 312
305 306 305 305 307 305 302 307 309 310 310 311 310 308 307 308 311 311 312 311 311 310 312 310 308 312 314 312 311 313 314 309 308 310 306 306 308 304 306 307 308 309 311 311 311
305 304 305 306 305 304 308 308 310 310 310 311 312 311 309 309 311 310 311 311 311 310 311 310 306 303 307 308 310 314 314 310 308 306 307 307 309 305 305 306 308 308 309 311 311
304 305 306 306 305 305 309 310 312 310 309 309 309 309 311 311 310 310 310 311 311 310 311 310 307 306 307 309 309 314 314 312 309 305 311 310 309 309 306 307 308 310 310 309 309
303 304 305 306 305 305 308 310 311 311 309 309 309 310 310 312 311 311 311 311 311 310 309 307 307 304 308 309 311 312 313 312 308 309 310 311 308 310 307 307 309 309 309 309 309
304 304 304 301 304 305 307 310 310 310 308 309 309 309 309 310 309 310 311 311 311 309 309 305 304 304 304 306 306 311 310 311 312 311 312 310 311 307 308 309 308 308 308 306 305
304 305 304 303 301 306 308 307 309 307 308 308 308 307 307 307 306 308 309 309 309 310 309 307 303 301 306 304 306 307 307 309 310 310 311 312 310 307 308 308 305 302 302 301 302

GFSSW_850_thetae_078.txt.gz
Theta_e
322 321 319 315 314 313 311 309 309 309 307 310 309 305 307 304 300 299 299 300 301 305 312 311 310 312 312 314 315 317 319 319 320 321 320 319 319 320 323 324 330 329 329 330 331
322 322 321 318 314 314 312 308 308 309 308 306 309 309 307 306 301 299 299 299 302 311 306 304 309 309 310 313 313 314 315 316 316 317 318 320 320 320 324 330 333 334 336 332 331
322 323 321 320 316 315 311 309 307 307 308 306 306 310 309 307 302 300 306 303 310 308 304 302 306 309 309 310 313 314 315 313 315 318 320 320 323 322 325 327 332 332 335 330 328
321 322 321 321 319 314 311 308 307 307 306 306 305 309 309 307 300 305 306 306 306 305 303 305 307 308 308 309 310 312 312 314 315 317 319 319 322 323 325 326 329 331 331 330 327
320 322 322 320 317 315 311 308 306 306 306 306 305 307 310 305 305 303 308 308 305 303 303 304 307 308 308 308 309 310 311 314 314 314 318 319 321 324 323 324 327 332 335 332 329
318 319 322 319 317 314 309 307 305 307 306 305 304 307 308 304 303 302 300 305 304 304 303 304 306 307 307 307 308 310 310 311 313 315 317 320 321 323 323 325 329 332 334 333 330
318 318 321 318 318 314 307 305 304 306 305 305 303 307 307 306 302 303 305 303 304 304 304 304 305 306 307 307 307 308 309 311 312 313 318 319 322 324 322 322 328 332 333 333 335
316 318 319 320 318 313 305 304 305 305 305 304 303 307 306 304 304 302 304 303 304 304 304 304 305 306 306 306 307 309 308 312 313 315 318 319 321 322 321 322 323 326 330 332 336
313 317 319 320 316 310 303 304 304 303 304 304 306 306 303 304 304 304 305 304 305 304 304 305 306 306 307 307 309 307 310 310 314 314 318 320 322 323 321 320 319 321 323 329 331
306 316 317 319 315 309 302 302 303 303 305 306 305 304 304 305 305 305 305 305 305 305 304 305 305 306 307 309 309 308 310 315 315 317 318 321 320 323 321 320 319 319 320 322 328
303 313 316 317 314 305 302 302 305 304 304 303 304 305 305 305 306 306 305 306 305 305 305 306 308 307 305 308 308 308 310 313 316 318 319 320 319 320 321 321 320 319 319 320 321
304 311 314 316 312 304 302 303 306 305 305 304 304 305 305 306 306 306 306 306 306 304 304 305 306 306 307 308 310 309 313 316 317 318 319 318 319 320 320 320 320 320 319 319 320
302 309 313 312 308 303 302 302 305 304 303 305 306 306 307 306 307 306 307 306 305 305 305 306 306 307 308 309 312 313 314 315 317 316 314 315 316 316 319 319 319 321 319 319 319
304 309 310 309 306 303 303 303 305 304 298 306 307 307 307 307 309 307 307 307 307 306 305 306 306 309 310 310 313 315 314 316 316 316 319 315 321 318 319 320 319 319 318 319 319
302 306 308 309 304 303 304 305 304 304 299 304 307 308 308 309 308 308 307 307 306 308 308 309 308 309 311 312 312 315 315 316 315 314 318 317 319 317 318 319 319 319 319 319 319
301 304 309 304 303 304 305 305 303 300 299 308 308 308 309 309 309 308 308 307 306 306 305 308 309 312 310 312 313 314 315 315 315 316 317 317 319 314 318 318 318 318 320 318 319
301 304 307 305 304 304 305 303 303 300 302 309 308 307 308 310 310 310 311 310 311 311 313 312 313 313 312 313 315 316 316 317 317 318 319 315 318 316 310 309 313 316 316 317 319
301 303 305 304 302 305 304 302 303 300 307 309 308 308 310 308 309 310 310 312 309 311 315 313 313 313 311 313 316 316 315 318 320 318 317 313 317 314 307 307 307 309 315 316 317
304 306 304 302 303 305 305 302 300 303 310 309 308 304 302 307 309 308 311 312 312 312 312 314 316 313 312 311 312 313 314 311 312 311 315 314 311 310 309 308 308 307 309 310 312
306 304 304 304 305 304 305 306 305 306 309 309 308 307 307 307 309 308 308 309 311 310 311 312 317 312 312 311 311 311 309 312 311 316 316 312 311 312 310 309 308 306 307 310 311
305 303 303 304 305 306 307 302 305 309 311 310 308 309 307 307 309 310 310 309 310 310 309 308 310 314 311 312 313 311 311 309 309 309 314 314 311 307 307 309 307 306 308 310 311
302 304 304 303 306 306 305 304 307 309 309 310 308 307 306 307 310 310 311 310 310 309 311 309 307 314 314 310 310 312 312 307 309 310 305 306 309 304 304 307 307 306 308 309 310
302 305 305 305 308 307 304 307 309 309 309 310 311 308 307 308 311 310 310 310 310 308 309 309 305 303 306 307 309 313 312 309 306 305 307 306 309 304 305 305 306 307 308 308 308
303 304 304 305 305 303 306 308 311 309 309 309 309 309 310 310 309 310 310 310 311 310 311 308 305 306 306 308 309 313 313 310 308 303 310 307 308 308 307 306 307 307 308 308 309
303 304 305 306 306 304 306 308 310 310 308 308 309 309 310 311 310 310 310 310 310 309 308 306 306 303 306 307 310 311 313 312 308 308 308 309 309 307 305 306 307 307 308 308 307
303 303 303 301 304 303 307 310 310 308 308 309 308 308 308 309 308 310 310 310 310 308 307 304 303 303 303 304 305 311 309 311 311 310 310 307 310 307 306 308 307 307 307 306 304
305 304 304 303 302 303 307 309 310 307 307 306 307 306 307 307 307 308 308 308 308 309 307 305 302 301 305 303 305 307 307 309 310 310 310 310 309 306 307 307 305 303 302 301 301

GFSSW_850_thetae_081.txt.gz
Theta_e
321 321 322 322 322 319 316 315 310 308 310 309 307 308 309 307 307 305 301 299 300 303 311 310 309 310 310 313 314 315 318 318 318 320 320 318 319 319 320 320 322 326 326 329 332
320 321 321 320 322 319 316 316 310 307 309 309 308 305 310 310 308 307 304 301 299 308 310 304 305 308 309 312 313 315 316 315 315 317 318 319 319 319 320 321 323 328 330 331 330
319 319 320 322 322 319 317 315 310 306 308 307 306 305 309 309 307 301 305 303 309 311 308 302 304 307 309 309 312 313 315 313 313 313 316 320 321 320 322 322 321 325 329 331 331
318 319 319 319 322 319 316 315 310 306 307 306 307 306 308 309 306 303 308 310 309 306 304 302 305 308 308 309 309 312 311 312 313 313 315 318 319 321 322 322 320 321 326 331 331
315 317 318 317 320 320 318 315 308 305 307 307 306 305 307 307 307 306 305 309 307 304 303 302 304 307 308 307 308 310 310 310 311 313 313 313 315 318 320 322 323 321 325 329 331
311 314 316 318 320 320 318 315 306 304 307 307 306 305 307 306 306 303 300 308 306 303 303 303 304 306 307 307 307 308 308 308 309 309 311 315 315 318 319 322 323 322 322 329 330
307 309 313 316 320 319 316 311 304 304 306 306 305 305 307 306 306 301 304 303 304 304 304 304 304 304 306 306 306 307 308 308 308 311 310 314 318 319 320 320 322 323 322 328 330
308 306 312 315 318 319 314 310 304 305 305 305 304 305 306 306 303 303 303 304 303 304 304 304 304 305 305 305 305 307 307 308 307 310 310 314 317 318 320 320 321 323 324 328 330
306 302 309 314 317 318 314 310 304 304 303 304 303 305 305 303 303 304 304 304 304 304 304 304 304 305 305 305 305 306 308 307 307 311 312 315 317 318 321 321 320 320 322 326 330
305 303 303 313 316 314 311 303 303 303 304 304 306 305 303 304 304 305 305 304 304 305 304 304 305 307 306 307 307 306 308 308 308 312 313 316 319 322 320 320 320 319 319 321 325
304 303 306 312 315 314 309 305 304 304 305 305 304 304 305 305 305 306 305 305 305 305 303 305 308 307 306 306 306 308 310 309 310 311 315 315 318 318 316 321 319 319 319 319 322
301 302 306 313 314 310 305 302 304 304 305 304 304 304 305 305 306 306 305 306 305 305 304 305 306 305 305 306 308 308 308 310 313 311 315 317 318 316 317 318 320 320 320 320 319
300 302 303 309 310 308 305 304 303 305 303 304 304 304 306 305 306 306 306 305 305 305 304 304 304 306 307 309 311 311 309 310 316 316 315 317 317 316 315 315 319 320 321 321 320
300 302 301 307 306 307 304 303 303 304 302 306 306 306 307 307 308 307 306 306 306 306 304 305 306 306 308 311 309 314 311 313 316 317 321 315 320 318 317 317 318 319 320 321 323
299 301 301 303 306 305 304 303 304 304 308 305 307 307 308 309 308 308 307 306 306 307 308 306 310 308 311 310 312 314 314 315 315 316 317 317 318 318 317 318 318 318 318 322 321
299 300 301 305 306 304 303 304 303 305 307 309 307 307 308 308 309 309 308 307 305 306 304 307 307 308 310 312 314 313 315 315 315 315 316 316 318 317 317 318 317 318 318 319 321
300 300 302 301 304 304 303 304 306 307 303 310 307 306 307 308 309 310 311 309 310 311 311 310 311 312 312 314 314 315 314 317 318 318 319 316 319 317 311 308 310 317 317 318 320
301 302 301 301 303 303 303 304 308 304 307 307 306 307 309 308 308 309 310 312 309 310 313 311 306 312 311 314 315 314 315 315 319 318 318 315 319 313 308 307 307 308 315 318 317
300 304 302 303 303 304 304 307 306 305 308 308 306 304 302 307 308 308 310 313 312 312 313 314 314 312 311 312 313 313 315 310 312 312 317 313 312 310 309 308 308 307 310 311 311
302 303 304 303 303 303 305 307 305 304 308 307 307 306 306 307 308 308 308 309 309 311 310 311 317 312 312 311 311 311 311 312 313 315 319 316 311 311 310 309 308 308 307 309 309
303 302 303 302 304 304 308 305 304 307 309 309 308 308 305 307 309 309 308 309 309 309 308 307 310 315 311 312 313 311 312 309 309 309 317 317 311 307 307 308 307 306 306 308 309
302 305 302 303 303 304 306 304 306 309 309 308 306 306 306 307 309 309 310 310 309 308 310 307 311 315 313 310 309 311 311 307 311 311 305 308 310 304 305 307 306 305 306 307 308
301 303 304 304 308 307 305 307 308 308 309 310 309 307 306 308 310 309 309 310 309 308 309 308 306 307 309 308 309 312 311 307 305 305 307 309 310 305 305 305 306 305 307 308 308
303 303 303 304 303 304 305 307 310 308 308 308 308 308 308 309 306 309 309 310 310 309 309 306 304 305 307 308 309 313 312 308 307 307 310 308 308 307 306 306 305 305 307 306 306
304 304 304 305 305 303 305 306 309 309 307 307 307 309 309 310 309 309 309 308 309 308 306 305 306 302 304 305 310 311 312 311 308 307 309 309 308 307 306 306 305 306 305 304 303
303 304 304 303 303 304 306 308 309 307 307 308 307 307 308 308 308 309 309 309 309 306 306 303 303 303 304 304 304 310 309 310 311 309 309 306 309 306 304 307 306 304 303 301 301
304 305 304 302 300 304 306 309 309 306 306 305 306 306 306 307 307 308 308 307 307 308 306 304 302 301 306 302 304 306 304 308 309 308 308 310 308 306 306 306 303 300 300 300 301

GFSSW_850_thetae_084.txt.gz
Theta_e
320 320 320 321 321 320 321 319 317 314 308 309 309 308 306 310 310 309 307 303 300 302 307 311 310 310 310 314 315 315 318 317 316 316 316 315 318 319 320 321 322 322 323 325 332
317 318 319 320 321 321 321 320 318 315 308 308 309 307 307 308 310 308 306 304 299 308 309 307 307 309 309 311 313 315 316 315 314 314 315 316 317 318 320 320 321 322 325 331 332
315 316 318 319 319 320 321 319 318 316 306 308 307 307 306 308 308 303 306 304 308 309 311 304 306 307 307 309 310 312 315 314 314 314 314 316 318 318 320 322 321 322 322 329 332
311 313 314 316 318 318 320 319 317 314 306 307 307 307 306 307 309 303 311 312 310 308 304 306 307 307 308 308 307 310 309 310 311 313 313 315 317 319 319 319 321 322 322 328 331
306 308 309 313 315 317 320 319 316 314 304 308 308 306 305 307 308 307 307 309 307 304 304 305 305 305 306 307 308 309 307 307 308 310 311 312 314 316 318 319 322 322 321 324 327
306 306 307 309 312 317 319 319 316 313 304 307 307 306 306 307 307 305 301 309 308 304 304 305 304 306 306 306 307 306 308 309 308 308 308 311 312 313 315 317 320 323 323 322 322
304 306 306 307 314 316 318 318 315 308 306 307 306 305 306 306 306 306 302 303 305 304 305 305 305 305 305 305 305 306 307 307 307 308 310 308 311 314 313 317 321 322 323 323 321
304 304 306 304 312 314 316 316 313 306 305 306 305 305 306 306 305 303 302 303 305 303 304 304 305 305 306 305 305 305 305 308 307 307 308 309 309 310 312 315 319 320 322 324 324
303 303 304 304 310 315 315 315 307 304 304 304 304 305 306 305 304 303 304 305 306 304 304 304 304 305 306 306 307 305 306 307 307 307 308 311 309 310 313 316 319 321 321 323 325
302 302 302 306 306 314 314 312 304 304 304 305 305 305 305 305 304 304 305 304 305 305 305 305 305 306 306 306 307 307 307 307 308 308 309 311 310 311 317 319 321 321 322 322 324
300 301 301 306 308 313 314 308 305 304 305 307 306 305 304 304 305 305 305 305 306 305 305 304 306 306 306 306 306 307 308 309 309 308 309 311 311 312 317 320 320 321 322 321 322
300 300 301 303 307 313 310 307 305 306 305 304 304 305 305 305 306 306 305 306 305 305 304 306 307 306 306 307 307 309 309 309 309 310 310 311 312 314 318 318 318 320 322 321 319
299 300 301 301 308 308 308 305 306 304 306 305 305 304 304 305 306 307 306 306 305 306 305 306 306 306 306 307 309 309 309 308 311 311 312 312 314 316 317 316 317 318 320 321 320
299 299 301 301 307 306 305 306 304 304 309 307 306 306 306 307 308 307 307 306 307 306 306 306 307 307 308 309 310 314 310 310 312 314 316 315 318 318 318 318 317 317 318 316 320
299 298 300 301 304 305 306 305 304 304 316 308 307 306 307 308 309 308 307 307 308 307 308 309 309 311 311 310 310 315 312 312 309 318 318 317 318 319 318 319 319 317 318 318 320
299 299 301 301 304 304 304 304 304 308 312 310 308 308 309 309 309 309 308 307 305 306 306 307 306 307 312 312 314 315 316 316 316 317 320 318 319 318 318 317 316 318 319 320 319
299 300 301 301 302 304 305 303 309 313 306 310 309 309 309 311 310 310 311 309 311 311 311 310 311 312 312 315 315 315 318 320 320 320 320 317 320 318 313 312 312 312 319 319 321
300 301 301 300 302 304 304 307 312 308 308 309 308 309 311 310 310 311 312 312 309 310 312 315 314 313 312 314 316 316 317 320 319 322 320 317 320 317 312 311 310 310 319 318 319
300 301 301 302 303 303 304 310 310 308 310 309 310 310 310 309 310 311 311 313 313 311 316 317 313 311 312 313 314 316 317 312 317 315 318 317 316 313 313 313 312 315 314 311 312
303 302 303 301 303 303 306 309 307 306 309 309 309 309 310 310 311 312 312 308 310 310 309 313 317 313 312 312 313 314 312 317 318 321 321 315 316 317 314 313 313 312 311 309 309
303 303 304 303 303 303 310 308 307 307 309 309 310 309 308 311 311 312 312 311 311 312 311 311 315 317 314 315 315 315 315 313 313 314 318 317 315 310 313 312 312 311 309 307 307
303 304 304 303 303 304 308 306 307 310 310 310 309 309 309 310 312 312 313 313 311 310 313 311 316 318 315 312 310 313 314 312 316 315 312 315 313 309 311 310 310 308 308 306 306
302 300 302 304 307 307 306 308 308 310 310 312 310 309 309 311 312 312 312 311 310 312 313 311 314 319 317 314 313 315 313 312 311 313 313 316 314 309 310 310 309 309 308 306 304
304 304 302 303 304 306 308 309 311 309 309 310 310 310 311 311 310 311 312 312 310 311 308 309 311 311 314 313 313 316 315 314 313 318 314 313 312 312 311 311 309 308 306 304 303
305 305 304 307 306 307 307 309 311 311 309 308 311 311 311 312 311 311 311 310 310 309 309 311 313 309 309 309 312 314 314 314 314 312 315 312 313 312 311 311 309 308 306 304 303
305 306 303 305 304 306 307 311 310 309 309 310 311 309 310 311 310 311 311 311 312 311 310 308 313 309 311 309 311 313 312 314 313 312 312 312 312 311 308 309 309 307 304 303 302
304 304 304 304 305 307 308 309 310 309 308 306 308 310 310 309 308 308 309 309 309 311 310 310 311 312 314 308 309 312 309 311 312 312 312 314 311 309 309 310 307 304 303 302 302

GFSSW_850_thetae_087.txt.gz
Theta_e
316 317 317 319 320 322 322 321 321 319 317 311 309 309 307 306 309 311 311 309 304 301 303 310 310 310 309 312 314 315 318 317 316 316 316 315 316 317 318 320 320 321 323 323 332
312 315 316 317 319 320 320 321 320 319 317 312 307 308 307 306 310 311 308 304 302 308 309 308 308 309 309 309 312 315 316 315 314 314 314 315 315 316 316 318 319 320 322 323 332
309 311 313 315 316 318 319 320 321 319 317 313 307 307 307 306 310 306 305 304 303 309 309 307 306 307 308 308 310 312 314 314 314 314 314 315 316 317 317 319 318 319 320 322 329
306 307 307 309 313 314 317 319 320 319 317 310 306 307 307 308 312 309 310 311 310 309 307 307 307 308 308 308 309 310 310 310 311 312 313 315 314 315 317 318 318 321 324 324 323
306 306 307 306 308 310 314 317 319 319 317 307 307 307 307 309 310 306 307 309 309 306 305 305 305 306 307 307 308 308 309 308 307 308 309 311 312 314 314 316 318 319 322 323 324
305 305 305 307 305 310 312 317 319 319 316 309 307 307 308 309 308 306 304 308 308 306 305 305 305 305 306 306 307 306 307 308 308 308 308 309 309 310 311 313 315 318 320 322 324
303 305 304 304 305 309 313 318 318 317 310 306 307 307 308 309 306 306 303 304 307 306 305 306 305 306 305 306 305 305 306 307 306 306 308 309 310 310 309 310 314 316 318 322 324
303 303 303 303 303 308 313 316 317 314 309 308 306 308 308 308 307 307 304 305 306 306 305 306 306 306 306 306 306 307 306 307 307 307 306 308 310 310 309 308 311 315 318 321 323
302 301 302 301 304 304 314 314 314 308 306 306 306 307 308 306 306 306 305 306 306 306 305 305 306 306 306 307 307 307 309 307 307 307 307 308 309 309 308 309 310 313 316 319 322
302 301 301 301 307 305 312 312 307 306 305 306 307 307 306 306 306 305 306 306 306 306 306 307 306 306 307 308 308 308 308 308 308 308 308 308 309 309 309 309 313 313 316 319 322
300 301 300 301 304 310 309 310 307 306 306 308 308 307 307 306 305 306 306 306 306 306 307 305 306 308 308 308 307 307 308 308 308 308 309 310 308 309 309 316 316 316 319 320 322
300 299 299 301 302 306 309 309 308 308 308 307 307 307 306 307 307 307 307 307 307 308 306 305 307 307 307 307 307 307 308 310 309 309 309 311 309 309 310 316 319 319 320 321 322
299 298 299 301 303 307 306 308 308 308 308 307 306 306 306 306 308 308 307 307 307 307 306 307 308 307 307 307 308 309 310 309 309 310 311 310 310 310 311 316 318 319 320 322 322
298 298 298 300 306 305 305 305 307 304 312 308 307 307 306 307 308 308 308 308 307 308 307 306 307 308 308 310 310 312 309 310 312 312 313 311 311 310 313 317 318 318 318 320 320
299 299 299 299 302 304 304 304 304 304 316 308 307 307 308 309 310 309 308 308 309 309 309 310 310 309 310 311 310 313 313 312 312 313 314 313 315 313 315 317 318 318 318 320 318
300 299 299 301 301 303 304 304 304 310 317 310 308 309 309 309 309 309 308 307 305 307 308 308 307 308 310 312 314 314 310 311 312 312 319 318 320 319 318 318 318 319 318 320 318
301 300 300 301 303 303 304 304 310 315 309 310 309 309 310 310 311 310 310 309 311 311 313 312 312 312 312 314 315 317 319 321 322 324 320 318 321 317 315 314 314 314 319 320 317
301 300 301 301 301 303 303 305 314 310 312 309 309 310 311 311 312 312 312 312 309 311 314 315 317 314 313 314 317 317 318 322 322 322 320 318 325 318 314 313 312 315 321 318 315
301 301 301 301 301 303 304 312 311 310 310 310 310 311 311 311 312 312 313 313 313 311 315 316 317 313 314 313 315 317 321 315 321 318 322 322 318 316 315 317 318 319 316 313 312
303 301 301 301 302 303 305 310 309 309 310 309 311 310 311 311 313 313 313 310 311 311 310 315 318 314 311 313 314 315 314 316 320 324 322 318 317 317 317 315 315 312 311 310 309
304 303 303 303 303 303 309 310 309 310 310 311 310 310 311 312 313 314 313 312 311 313 312 314 316 317 314 316 317 316 316 315 314 316 322 318 317 313 315 315 312 309 307 307 307
304 304 303 304 304 305 310 307 308 312 312 311 310 310 311 312 313 314 313 314 312 312 314 313 316 319 317 314 313 315 315 314 317 317 316 317 316 313 313 311 310 308 308 307 306
301 302 303 304 308 309 308 310 309 312 312 312 310 310 311 313 313 314 314 312 312 314 314 313 316 320 319 316 314 316 315 315 314 317 316 319 316 313 312 311 310 308 306 305 305
305 305 304 304 306 309 310 310 312 311 311 311 311 312 312 312 313 314 313 313 312 312 309 311 314 315 317 316 315 317 316 314 315 318 315 316 315 314 313 312 311 309 308 307 306
307 306 306 309 308 309 310 310 312 312 311 311 311 312 312 312 313 312 312 312 311 311 311 313 315 312 312 312 314 315 315 315 315 314 315 314 315 314 314 313 312 309 308 307 306
308 308 307 307 307 309 310 311 311 312 311 312 312 311 311 312 312 312 312 312 312 313 313 312 316 312 316 312 313 313 313 315 315 314 313 314 314 313 313 312 311 309 307 307 306
305 306 307 306 308 310 310 311 311 311 310 309 311 312 312 311 311 311 311 311 311 313 313 313 314 316 317 312 312 314 310 312 314 314 314 315 313 312 312 312 311 308 307 306 305

GFSSW_850_thetae_090.txt.gz
Theta_e
310 312 314 316 317 319 320 321 322 320 320 318 316 308 307 306 305 311 313 311 307 305 301 310 311 310 310 310 314 315 316 317 316 316 316 316 315 315 315 317 319 320 320 321 328
307 309 311 312 313 316 319 320 319 321 319 318 317 310 306 306 307 312 312 308 306 304 310 309 308 310 310 309 311 314 316 316 314 313 314 314 314 315 316 316 317 319 320 320 328
305 308 307 308 309 312 315 318 319 319 321 319 317 310 306 306 312 311 307 305 304 302 310 308 307 307 307 308 310 311 314 314 313 313 314 314 314 315 316 317 318 318 319 318 319
305 305 306 306 308 307 309 314 318 318 319 318 317 310 306 307 313 312 307 309 307 310 308 307 307 308 308 308 308 309 310 310 311 311 311 312 312 314 314 314 315 316 319 323 323
305 305 306 306 304 307 307 309 313 318 318 319 314 308 306 310 310 307 306 309 308 307 306 306 305 306 307 307 307 308 308 308 308 308 308 308 309 311 312 313 313 314 316 318 321
303 304 304 304 305 304 307 310 311 317 318 318 310 307 309 309 308 308 308 311 309 306 306 305 305 305 305 306 305 306 306 306 306 307 308 309 308 308 309 311 311 312 314 316 319
303 303 303 303 303 303 306 310 314 316 317 315 308 307 310 309 307 306 304 309 308 306 306 306 306 306 306 307 306 306 306 306 306 306 307 307 308 309 308 308 309 310 313 314 317
303 302 302 302 302 304 301 311 316 316 315 311 307 308 309 309 307 306 305 305 307 306 306 306 306 306 306 306 306 306 306 307 306 306 307 306 306 307 309 309 309 308 309 313 317
302 302 302 302 303 306 300 312 313 315 311 308 306 308 309 307 307 306 306 306 306 306 306 306 306 306 306 306 307 306 307 307 307 307 307 307 306 307 307 307 308 309 308 311 315
301 301 301 301 302 307 308 312 309 308 306 306 308 307 307 307 307 307 305 307 307 307 307 307 306 307 307 307 304 307 308 308 308 308 309 309 307 307 308 308 308 308 309 311 314
301 301 300 299 301 305 307 307 308 306 307 308 308 308 307 306 306 306 306 306 306 306 306 306 306 307 306 306 307 307 308 307 307 307 307 309 309 309 309 308 309 312 310 312 315
300 299 299 300 299 301 306 307 308 308 308 308 308 307 307 307 307 307 307 307 307 307 307 306 306 306 306 307 308 308 308 308 307 307 308 309 310 309 309 308 310 315 315 320 321
300 298 299 298 302 305 306 306 307 308 309 308 307 307 307 307 308 308 307 307 307 306 306 306 307 307 307 308 309 308 309 309 310 309 308 310 311 310 309 308 314 318 319 320 321
299 297 299 299 304 305 306 304 305 307 310 307 307 307 307 307 308 309 308 308 307 307 307 307 307 307 308 310 310 311 310 310 311 311 311 310 310 309 308 308 314 316 319 320 321
299 299 299 299 303 304 303 304 305 306 314 308 307 307 307 309 309 309 308 308 308 309 309 309 309 310 310 309 310 313 311 313 312 312 311 313 312 307 309 312 314 315 318 320 321
301 300 300 301 303 302 304 304 305 309 314 311 308 308 308 309 310 308 309 307 306 308 307 307 308 308 309 310 312 314 311 311 311 313 315 314 313 311 311 313 315 317 318 320 320
301 301 301 301 302 304 304 304 309 312 308 309 309 308 309 310 310 309 309 308 311 311 312 311 311 310 309 313 315 315 312 317 314 312 320 315 313 318 313 313 316 317 320 320 319
302 301 301 301 301 303 303 306 312 313 311 309 309 309 312 310 312 311 310 312 308 309 313 314 313 313 313 314 315 316 317 320 319 322 320 316 321 317 315 313 313 319 316 315 314
301 301 301 301 302 303 304 310 311 312 310 310 310 311 311 312 312 313 313 312 312 310 315 314 314 313 313 313 315 315 318 314 319 318 323 320 315 314 316 314 316 315 313 311 310
301 302 302 302 303 304 306 309 310 310 309 310 311 311 312 311 313 314 314 310 311 311 311 313 316 315 314 314 314 314 314 315 317 321 323 321 317 319 316 312 310 309 310 309 309
303 304 303 303 304 304 308 309 310 311 311 311 310 311 312 312 313 314 314 312 311 313 311 312 314 317 314 316 317 316 316 315 314 316 323 318 318 315 314 310 309 308 308 307 307
304 304 303 303 305 305 309 308 310 311 311 311 310 311 312 313 313 314 314 314 312 312 314 313 314 318 317 314 313 313 315 313 312 315 313 313 316 312 311 309 309 307 306 307 307
303 303 304 304 309 309 309 310 310 312 312 311 310 311 312 313 314 314 314 313 312 313 313 313 313 314 316 314 314 316 314 313 314 315 313 314 313 311 310 309 307 306 306 306 306
304 305 304 305 306 309 311 310 312 311 311 311 312 312 312 313 313 314 314 313 312 312 310 310 313 312 312 314 313 314 314 313 313 311 314 313 312 311 310 309 307 307 306 306 305
307 306 307 309 309 310 311 311 312 312 311 311 312 312 312 313 313 312 312 312 312 311 311 312 312 308 312 312 314 313 314 313 312 311 312 313 313 312 310 309 308 307 306 306 305
309 307 307 308 308 311 310 311 312 311 311 311 312 312 311 312 312 312 312 312 312 312 312 312 312 311 309 311 313 312 310 313 313 313 312 312 312 311 312 311 309 308 307 306 305
306 307 308 307 308 310 310 311 312 312 310 310 310 312 311 310 310 311 311 311 311 311 311 312 311 309 314 311 311 312 308 309 313 312 312 313 311 309 310 311 310 308 307 306 305

GFSSW_850_thetae_093.txt.gz
Theta_e
308 307 309 312 313 315 317 320 320 321 320 318 317 317 310 306 305 310 312 311 308 307 301 310 308 310 310 309 312 314 313 315 315 315 314 314 312 313 314 315 316 317 319 321 327
306 305 307 308 309 311 313 316 319 319 321 318 318 317 308 305 306 311 312 311 310 308 308 310 309 310 309 309 310 312 312 314 313 312 312 312 312 313 314 314 316 316 317 320 324
305 305 306 306 307 307 309 312 316 319 320 319 319 318 307 305 311 311 311 305 303 304 310 309 307 307 307 308 309 310 312 312 313 312 312 311 310 310 313 313 314 313 314 315 319
305 306 305 305 306 305 307 307 311 316 317 319 319 317 307 307 312 310 306 307 304 305 307 307 307 307 307 306 307 307 308 308 309 309 308 308 308 308 309 311 312 312 312 313 314
304 304 304 304 305 305 305 304 309 312 316 317 317 315 306 308 310 309 306 308 306 307 306 306 305 306 305 305 305 305 306 307 307 306 306 307 308 307 307 308 309 310 311 312 314
304 304 303 303 303 303 304 304 308 310 313 318 318 311 309 309 309 308 307 307 307 306 305 305 305 305 305 305 304 305 305 305 305 306 306 306 307 307 308 308 308 308 309 310 311
303 302 304 303 302 303 304 305 308 310 315 317 316 309 310 308 308 308 308 309 309 306 306 306 305 305 306 305 306 305 305 305 305 305 306 306 306 306 306 307 308 308 308 308 309
302 302 302 302 302 305 305 298 309 312 314 315 310 310 309 308 307 306 304 308 308 306 306 306 305 306 306 306 306 305 304 305 305 306 306 306 305 305 305 306 307 308 308 308 308
301 300 302 301 302 305 304 302 312 314 313 312 309 308 309 307 307 307 305 307 307 306 305 306 306 306 305 304 300 303 302 305 306 306 307 306 305 305 305 306 307 307 308 308 309
301 301 302 299 298 304 311 313 312 310 307 307 308 308 307 307 307 306 305 306 307 306 306 306 306 301 302 300 297 303 303 305 306 306 306 306 306 307 307 306 305 306 306 307 308
301 301 301 299 298 300 308 309 307 305 308 308 308 308 307 307 307 305 305 307 306 306 305 306 300 302 302 303 305 305 305 306 306 307 307 306 306 307 308 308 308 306 307 307 308
301 300 299 299 300 302 304 306 306 306 307 308 307 306 306 306 307 306 306 307 306 307 306 304 303 303 305 305 306 306 306 307 307 307 308 308 308 308 309 308 308 307 308 309 310
299 299 298 298 303 303 304 304 305 307 306 307 307 307 306 307 307 307 307 307 307 307 306 306 304 305 306 305 306 306 306 308 309 308 308 309 308 307 308 309 309 308 310 316 317
299 298 298 299 303 304 304 304 306 307 308 308 307 307 306 308 308 308 307 308 308 307 307 307 305 306 306 307 308 310 309 310 313 313 307 308 308 306 307 308 307 309 315 316 318
300 299 300 299 301 303 304 305 306 307 309 307 307 306 306 308 308 309 307 308 308 308 308 305 308 308 309 308 308 311 311 313 313 311 310 309 312 306 306 307 306 310 315 313 317
301 301 300 302 303 303 304 305 307 307 310 310 307 307 308 309 309 308 308 307 306 307 307 307 307 307 307 308 308 310 310 310 310 312 309 311 306 308 309 310 310 313 315 319 319
301 300 301 302 303 304 304 305 307 304 309 308 309 308 308 311 309 309 308 308 309 308 304 308 309 308 308 309 312 313 314 314 313 312 312 314 311 310 313 314 313 314 318 318 318
301 301 301 301 303 303 304 305 305 312 309 308 308 308 311 310 311 311 310 309 308 307 310 310 306 312 312 313 313 314 314 319 319 321 319 314 318 316 313 316 316 315 314 315 314
301 301 301 302 302 303 304 306 309 310 309 309 310 312 311 311 312 310 310 310 311 307 312 313 309 312 313 312 314 315 318 314 318 318 317 316 314 313 311 310 314 313 311 309 309
302 303 302 302 302 304 305 309 310 308 310 309 309 309 310 310 311 311 312 310 310 311 310 312 314 313 313 313 313 314 314 313 313 319 324 319 317 317 311 308 309 309 309 308 308
303 304 303 303 304 305 308 309 310 310 311 312 309 310 309 311 312 314 312 311 311 312 310 311 313 314 314 315 315 314 314 314 312 313 319 317 317 311 308 308 309 309 307 307 308
303 304 303 304 303 306 307 308 309 311 312 310 309 310 310 312 313 313 313 313 312 312 313 312 312 314 315 314 313 312 313 310 310 313 310 312 316 310 310 309 308 308 307 307 307
303 304 304 305 308 309 309 308 310 311 310 310 310 310 311 311 313 312 313 312 312 311 312 311 309 306 308 308 309 313 312 311 311 309 311 311 313 310 309 308 308 307 306 306 304
304 298 304 305 306 308 309 309 311 311 310 311 311 311 311 311 311 313 312 312 311 311 311 309 310 308 307 311 311 312 311 311 309 307 311 310 310 309 308 307 307 306 305 304 304
306 301 305 300 305 306 308 310 310 311 310 310 310 310 311 312 311 311 311 310 311 312 310 309 309 306 309 310 312 311 310 312 311 311 310 311 311 309 307 305 305 305 305 304 304
307 305 307 307 307 309 307 310 311 310 309 310 310 310 309 310 310 311 310 310 310 309 311 308 307 309 306 310 310 309 307 310 311 311 310 310 311 308 308 307 306 306 305 305 304
307 307 307 306 304 307 307 310 310 310 309 309 309 309 309 309 308 308 308 309 309 309 309 309 307 304 308 310 309 309 307 308 311 310 312 312 310 308 308 308 306 306 305 305 304

GFSSW_850_thetae_096.txt.gz
Theta_e
305 307 306 308 310 312 314 317 320 319 320 320 318 318 314 308 305 306 311 309 309 307 303 308 308 308 310 312 313 313 312 313 315 315 314 313 310 312 311 313 313 315 314 316 329
305 306 305 307 308 308 309 312 314 317 318 320 319 317 313 306 305 307 311 311 310 309 305 309 308 309 308 308 310 311 310 312 312 312 312 312 311 309 309 310 313 314 314 315 320
304 305 305 306 306 306 307 308 311 314 317 320 318 318 310 305 310 311 308 308 305 305 309 308 307 309 308 308 308 309 311 311 312 311 311 308 308 308 308 309 310 311 311 312 314
305 305 305 305 305 306 306 305 307 310 317 318 319 317 310 308 312 310 306 304 303 305 308 307 306 306 305 305 306 307 307 307 307 308 307 307 307 307 307 307 308 307 308 309 312
304 304 305 303 303 304 304 305 304 307 314 317 317 312 308 308 310 308 305 307 305 306 307 306 306 305 305 304 305 305 304 305 305 305 305 306 306 306 307 307 308 307 308 308 310
303 303 303 303 303 303 303 303 303 308 310 315 317 316 308 309 310 309 307 307 306 306 305 304 305 305 304 304 304 304 305 305 305 305 305 305 305 305 306 307 307 307 308 308 308
303 303 302 302 301 302 304 305 306 308 312 314 316 316 310 309 310 308 308 308 306 306 305 305 305 304 306 305 305 305 304 304 304 305 305 305 305 304 305 305 305 306 307 307 307
301 302 301 302 300 302 305 306 299 306 313 315 314 309 308 307 307 307 309 309 307 305 306 306 305 304 305 305 305 304 303 304 303 305 305 305 304 304 304 304 304 305 304 305 305
300 302 302 302 299 301 307 299 304 310 313 313 312 311 307 306 306 305 308 308 307 306 305 305 305 305 305 301 298 300 301 303 304 305 306 305 305 305 305 305 304 304 305 305 306
301 301 301 301 298 306 310 306 310 313 310 309 309 309 307 307 307 306 305 306 306 306 306 306 305 299 300 296 295 302 302 303 304 305 305 306 306 306 305 306 305 305 305 305 306
301 301 301 300 299 301 306 308 309 308 308 309 308 308 308 307 306 306 305 307 306 306 304 305 298 300 300 302 302 304 304 304 305 305 306 306 306 306 306 306 306 307 307 307 308
299 299 299 300 303 303 305 302 305 306 307 307 307 307 306 306 305 305 306 306 306 305 305 302 300 302 303 304 304 304 306 306 306 306 308 308 308 307 307 307 307 307 307 307 308
297 297 298 303 303 302 304 303 305 306 306 306 306 306 307 307 307 306 306 306 306 306 306 306 304 304 305 305 304 303 302 305 306 308 309 310 308 307 306 307 307 307 308 308 308
299 298 299 302 303 303 303 303 305 307 308 306 307 307 307 308 309 306 306 307 307 307 308 306 305 305 306 306 305 307 307 308 310 313 312 308 308 306 304 307 307 307 308 308 311
300 300 299 302 303 304 303 305 306 307 309 307 307 306 307 309 308 308 307 308 308 308 307 305 307 308 308 305 307 307 310 310 313 313 310 309 309 305 304 306 307 304 307 313 315
301 300 300 303 304 304 305 307 307 304 310 309 306 307 308 309 309 309 308 308 306 306 306 306 306 306 306 307 307 308 309 311 311 313 306 309 306 306 311 313 312 310 313 315 316
300 301 302 303 304 304 305 306 303 306 309 307 309 308 308 310 308 309 308 308 308 305 305 306 308 307 307 308 310 309 312 312 306 312 311 314 306 304 313 314 313 313 314 313 314
300 301 301 303 303 304 305 302 306 309 308 307 307 307 310 310 310 310 310 309 308 307 308 311 305 310 309 310 313 313 314 317 317 319 317 313 314 316 311 312 313 313 311 311 312
301 301 302 302 303 303 305 307 308 308 307 308 309 310 310 310 311 310 310 310 310 306 310 313 306 310 311 312 313 315 318 315 316 317 311 315 315 312 310 309 311 311 309 309 309
303 303 302 303 304 305 305 310 308 307 308 308 309 308 309 310 311 311 311 310 310 308 309 312 316 311 313 313 312 314 313 316 313 314 322 319 317 315 310 307 310 309 309 308 308
304 303 304 305 306 307 307 308 309 310 309 310 308 308 308 309 309 311 311 310 310 311 310 310 312 311 313 314 314 313 314 313 313 314 318 316 317 309 308 306 308 309 307 307 307
304 299 305 307 305 305 303 308 308 310 311 309 309 309 308 308 311 312 312 312 311 312 311 311 312 312 313 311 312 312 312 310 310 313 309 311 317 309 308 307 308 308 306 305 306
303 303 305 307 302 303 307 308 309 310 309 309 310 310 310 311 311 311 312 311 311 310 311 310 307 305 306 307 308 311 310 310 309 307 310 311 314 311 309 309 308 307 305 304 304
304 299 306 307 306 306 307 309 310 310 309 310 309 310 310 310 310 312 312 311 311 311 311 309 308 308 306 309 309 311 309 310 307 306 310 310 311 309 308 308 307 306 304 303 303
304 302 305 300 304 305 307 308 310 309 309 309 309 309 310 311 310 310 309 308 310 311 309 308 308 305 307 307 309 310 307 309 309 310 309 310 310 309 307 305 305 304 304 304 304
307 306 306 305 305 306 306 309 310 309 308 309 309 309 308 310 310 310 309 309 310 308 309 306 306 308 304 309 308 310 306 308 310 310 309 310 311 307 307 305 304 304 304 304 304
307 307 307 303 303 305 306 309 309 309 309 309 308 308 309 309 308 308 308 307 306 308 308 308 306 302 305 307 308 309 307 308 310 310 310 311 309 306 305 304 304 305 305 305 305

GFSSW_850_thetae_099.txt.gz
Theta_e
305 305 306 305 306 308 309 313 316 319 319 321 319 318 316 312 306 306 309 308 308 304 304 306 306 308 311 314 313 314 311 312 314 314 314 311 310 311 310 311 310 313 313 313 315
306 305 305 304 306 308 308 308 310 315 318 319 320 318 315 309 305 307 310 308 308 306 303 308 308 307 307 308 311 311 309 311 311 311 311 311 309 308 308 308 309 312 312 313 315
306 306 305 306 305 306 306 306 307 309 314 318 320 318 313 306 309 310 309 307 304 305 306 307 308 308 307 307 307 309 310 310 311 311 310 308 307 308 307 306 309 308 308 310 312
304 305 304 305 304 305 305 306 306 306 310 316 317 318 311 306 312 308 306 306 304 305 307 307 306 306 304 305 305 306 306 307 306 306 305 305 306 306 306 307 308 307 307 308 310
303 304 304 305 304 303 302 301 304 305 307 315 318 316 309 309 310 307 309 306 305 307 306 306 306 306 305 304 304 304 303 304 305 305 305 305 304 305 305 306 306 307 307 307 307
303 304 303 304 303 302 303 303 301 302 305 312 316 317 309 309 309 307 308 306 306 306 305 305 305 304 304 304 303 304 304 304 304 304 304 304 304 304 305 305 305 305 305 306 306
301 302 303 303 302 303 303 303 304 304 308 311 315 310 310 312 310 308 306 305 305 305 304 305 305 304 305 304 304 304 303 303 303 304 304 304 304 303 303 304 304 304 304 304 304
301 301 302 302 302 300 299 304 305 303 309 312 314 310 308 312 310 308 308 307 305 305 305 306 305 304 304 304 303 303 302 303 302 304 304 304 304 303 305 305 304 305 305 305 305
300 300 302 302 301 298 305 308 304 300 312 313 310 308 307 307 307 309 309 307 306 305 305 305 304 305 304 299 296 299 300 301 303 304 304 304 304 304 305 305 305 305 305 307 306
300 301 301 301 299 302 306 303 302 309 311 309 310 309 305 305 305 308 308 307 306 305 305 305 304 298 298 295 296 300 301 302 303 304 305 305 305 305 306 306 305 304 305 306 307
301 300 299 299 302 301 306 309 310 309 309 310 309 308 307 306 306 305 306 306 305 305 304 303 298 298 300 301 300 301 302 302 303 304 305 305 305 306 306 306 305 305 305 306 306
297 298 299 302 302 303 305 305 306 306 306 306 307 307 307 306 305 305 306 306 305 304 303 300 298 301 302 302 302 302 302 304 304 305 307 308 309 308 308 307 307 306 305 305 305
297 298 301 302 300 302 304 305 306 306 304 306 306 306 306 305 305 305 306 306 306 305 305 303 304 304 304 304 304 302 302 304 305 308 309 309 308 305 305 304 306 307 306 306 307
299 299 301 301 302 302 304 306 307 307 307 306 306 306 307 307 307 305 306 307 307 306 307 304 304 304 304 305 303 305 304 305 307 313 315 309 311 305 303 304 307 307 306 307 307
300 300 302 302 303 304 304 307 307 308 307 306 307 306 308 308 307 307 306 308 308 308 305 304 306 306 307 304 304 306 308 309 310 313 313 309 308 304 308 312 312 308 305 307 312
299 301 304 304 304 304 305 306 307 302 304 309 306 306 308 308 308 308 308 307 306 306 306 304 306 305 305 306 306 307 307 309 310 311 305 308 308 307 312 314 314 313 312 312 315
301 302 303 304 304 304 306 306 302 307 306 307 307 307 308 308 308 309 308 308 307 300 301 304 306 305 306 307 308 308 312 309 308 305 309 312 309 305 312 312 313 314 311 311 313
301 302 303 304 304 304 304 302 305 308 308 306 306 308 309 310 309 309 310 310 308 307 309 302 304 308 307 309 312 312 315 316 317 310 315 312 311 314 310 310 312 312 310 310 310
301 301 303 303 303 305 305 305 307 308 307 307 309 308 310 310 310 310 310 310 309 307 309 309 305 307 308 310 312 314 315 315 317 313 317 313 314 314 309 308 311 310 309 309 308
304 305 306 306 307 307 303 309 306 306 306 308 308 308 309 310 311 310 309 310 310 308 308 310 312 310 311 312 311 314 312 315 313 317 319 318 316 314 309 307 309 309 308 307 306
306 306 307 307 308 308 305 307 308 309 308 308 308 307 307 308 308 310 310 309 309 311 308 310 311 310 310 313 313 312 312 313 312 312 318 317 317 310 308 306 307 308 307 306 305
306 301 307 308 306 303 304 307 309 310 310 309 308 308 307 307 310 309 311 310 310 310 310 310 311 312 310 310 309 311 312 310 307 310 309 311 317 311 308 307 306 305 304 304 303
305 306 308 308 303 300 305 307 309 309 308 309 310 309 309 308 310 310 311 311 310 309 310 309 306 303 305 305 307 310 310 309 307 305 310 311 314 309 309 309 307 305 305 306 305
305 301 308 307 306 305 305 307 309 309 308 308 308 308 309 310 309 311 311 310 310 310 311 309 307 307 305 307 308 309 309 306 307 304 310 309 310 309 308 308 307 306 305 304 303
305 303 304 300 304 303 306 306 309 308 308 308 309 308 309 311 309 310 309 308 309 310 309 307 308 303 305 305 306 307 308 306 309 309 308 309 309 309 306 304 305 304 303 303 303
306 306 306 303 304 305 305 307 308 308 307 308 309 308 307 310 309 309 308 308 309 307 308 305 305 307 303 308 307 307 307 305 308 310 310 308 309 307 306 305 304 304 303 303 303
306 306 307 303 303 304 306 308 308 308 308 308 307 307 307 308 308 308 308 307 306 307 306 306 304 301 304 304 306 307 306 307 309 308 309 310 308 305 305 304 304 304 304 304 304

GFSSW_850_thetae_102.txt.gz
Theta_e
308 306 306 305 305 306 308 310 311 315 318 318 321 319 317 313 306 306 308 307 306 303 306 304 305 309 315 313 314 314 310 310 313 313 312 311 310 311 310 309 309 311 313 313 312
306 307 306 306 304 306 308 308 308 310 316 318 319 319 317 311 305 308 309 309 307 303 306 305 305 307 308 311 311 310 307 309 310 311 311 310 309 308 308 308 307 309 311 311 311
305 305 306 306 305 304 306 307 306 306 310 316 318 319 317 307 308 310 310 309 307 303 306 306 307 306 306 307 307 309 309 309 310 310 306 306 306 307 306 305 308 308 308 309 311
305 304 306 306 305 303 303 304 304 305 307 310 316 318 317 307 312 310 307 307 304 304 306 306 308 306 303 304 305 305 306 306 305 305 304 304 304 305 305 305 306 306 307 307 307
303 302 304 304 305 304 302 301 299 305 306 310 316 317 312 310 310 310 311 305 305 305 307 306 306 305 303 303 304 303 303 304 305 304 304 304 304 303 304 305 305 305 305 306 306
302 302 303 303 304 304 302 302 302 301 304 311 315 317 314 310 311 310 308 305 305 305 305 305 305 304 304 303 302 303 304 304 304 304 303 303 303 303 303 304 304 304 303 303 304
302 302 302 303 303 302 302 301 303 306 303 310 313 313 311 312 311 308 307 306 305 305 305 304 304 304 304 303 304 304 302 301 301 303 303 304 302 302 304 304 303 304 305 305 305
300 300 301 302 302 301 300 299 302 305 304 310 311 311 312 311 310 306 305 305 305 305 304 304 304 303 304 304 301 301 301 301 301 302 304 303 303 302 305 304 304 304 305 305 305
300 301 302 302 301 299 304 306 303 304 308 311 310 310 310 310 308 308 307 306 305 305 304 303 303 304 303 297 296 297 300 301 302 303 304 304 303 304 305 305 304 305 305 305 305
301 301 301 300 299 305 306 304 304 306 310 309 309 309 307 307 309 309 307 307 305 305 305 304 303 298 297 295 295 301 301 302 302 303 304 304 304 304 305 305 305 305 305 305 305
300 300 300 302 300 304 307 306 308 307 308 308 309 307 306 305 307 307 307 305 305 304 304 302 298 297 301 300 299 300 302 301 302 303 304 304 304 305 306 306 306 306 306 305 304
298 298 302 301 302 303 306 306 307 305 305 307 307 306 306 305 305 306 306 305 305 303 302 300 298 301 302 301 302 302 302 302 302 304 305 307 308 307 307 306 306 307 305 306 305
299 299 301 301 302 306 306 306 306 305 304 306 306 306 306 305 305 305 306 305 305 305 304 303 304 303 303 303 303 299 300 302 303 306 307 309 309 305 303 304 308 309 306 306 306
300 299 302 302 303 305 306 305 306 306 306 305 307 306 307 305 307 306 306 307 306 305 307 304 304 304 304 304 301 304 303 304 306 309 312 310 311 305 304 308 310 311 309 306 306
302 304 303 303 302 305 306 307 308 307 307 307 306 306 308 307 306 306 306 307 308 307 302 302 305 306 306 303 303 306 306 307 309 311 311 308 309 304 306 312 311 311 310 310 311
302 304 303 305 306 306 306 308 305 304 307 307 306 306 307 308 308 307 307 307 306 306 305 303 305 305 304 305 304 306 307 309 310 309 305 306 307 307 312 312 312 312 311 310 312
303 304 305 306 305 306 307 306 302 305 305 307 306 307 308 308 307 309 307 307 306 298 297 302 305 305 305 306 307 307 311 306 304 301 307 310 307 308 310 309 312 312 311 311 311
302 303 304 305 305 305 305 300 303 307 307 305 306 308 308 309 308 309 308 305 307 307 303 304 304 307 306 308 311 311 314 316 313 307 310 310 308 313 308 307 310 310 309 308 308
305 306 306 306 306 305 304 304 302 306 306 306 308 307 307 309 309 308 309 309 308 306 308 310 304 306 307 308 310 313 314 314 315 311 314 309 314 313 309 307 308 309 308 306 306
306 307 307 307 307 306 303 308 305 306 306 307 308 307 308 310 310 309 309 308 310 307 308 310 313 308 309 310 310 311 311 310 312 310 311 310 313 315 310 307 307 307 306 304 305
307 307 308 308 308 308 306 307 308 308 307 308 307 307 307 309 308 309 310 308 308 309 307 310 310 307 308 311 312 310 310 311 310 310 315 316 312 311 309 308 307 306 303 301 303
308 302 308 309 306 302 305 306 308 309 309 309 307 306 307 307 309 309 310 308 309 310 310 309 311 311 308 309 307 310 311 307 307 309 307 311 310 310 310 308 305 303 303 301 302
307 308 309 309 303 300 304 307 308 308 307 308 309 308 307 307 310 308 308 310 309 308 309 309 306 303 303 304 306 309 309 308 307 304 307 309 311 308 309 308 306 305 305 305 305
307 301 308 307 305 304 305 305 307 308 307 307 308 307 308 309 307 309 310 309 309 309 310 308 306 306 304 305 306 308 307 306 306 301 308 307 308 308 308 309 308 307 306 305 304
307 303 304 300 304 303 305 306 308 308 307 308 308 307 308 309 309 309 308 307 308 309 309 306 307 303 304 304 305 306 307 306 306 306 307 307 308 307 305 304 306 307 304 302 302
306 306 305 303 304 304 304 306 308 308 307 308 308 307 307 309 308 308 308 307 308 306 307 304 304 305 302 306 305 307 305 305 304 308 306 307 307 305 306 305 304 304 303 303 303
306 306 305 302 302 304 305 307 307 307 307 308 307 306 306 307 308 308 308 307 306 307 305 305 303 301 305 303 304 306 305 305 306 307 307 309 307 304 304 303 304 304 304 304 304

GFSSW_850_thetae_105.txt.gz
Theta_e
307 307 307 307 306 306 307 307 310 312 317 318 319 319 318 314 308 306 306 306 305 305 304 305 309 315 313 313 314 313 309 311 312 313 312 310 310 310 309 309 309 310 311 311 312
305 306 307 307 306 304 305 308 307 309 314 316 318 319 317 312 306 308 308 310 305 304 305 304 307 313 311 312 312 310 307 308 310 310 311 310 309 308 307 307 307 307 307 308 311
305 304 305 307 307 305 304 305 307 306 308 314 317 318 316 307 309 311 311 312 307 304 306 305 306 306 306 308 307 309 309 309 310 310 306 305 305 306 306 306 306 306 306 306 305
304 304 304 306 306 305 303 303 306 306 306 309 316 316 313 309 312 313 311 309 305 306 306 307 305 305 303 304 304 305 305 305 306 305 304 304 304 304 305 305 305 305 304 304 304
303 303 303 304 304 305 304 302 300 301 306 312 316 316 312 310 312 313 311 306 305 306 306 306 305 304 303 303 303 303 303 304 304 304 304 304 303 304 303 303 303 303 304 304 304
302 303 302 303 303 305 305 302 302 301 305 310 314 316 312 312 311 312 306 305 305 305 305 305 305 304 303 303 303 303 303 303 303 302 302 303 303 303 304 304 304 303 304 304 304
301 301 302 303 303 304 302 302 302 306 304 312 315 314 313 310 312 309 306 305 305 305 305 304 304 304 303 303 303 303 302 301 301 303 303 303 303 303 305 304 304 305 305 306 306
300 300 301 302 302 302 301 299 300 307 304 311 311 312 311 309 306 306 305 305 304 304 304 303 303 303 303 303 300 300 300 302 301 302 303 303 306 303 305 305 304 304 305 306 307
301 301 302 302 301 300 303 303 303 305 307 311 311 311 310 307 307 307 307 305 304 304 304 303 302 303 301 298 299 299 302 302 304 303 304 304 306 303 306 305 305 305 306 306 306
301 301 301 300 304 306 304 303 304 307 310 310 311 310 308 309 308 307 307 305 304 304 305 304 303 300 299 299 300 302 303 302 303 304 303 305 305 306 306 306 306 306 307 308 308
298 302 301 300 303 306 305 306 307 307 307 308 308 308 308 307 308 306 306 305 304 304 304 302 301 300 301 299 298 300 302 302 302 303 304 305 305 306 306 307 307 307 307 308 306
299 302 301 303 304 306 307 305 304 304 306 306 306 305 305 305 306 306 305 305 304 304 302 302 301 301 301 301 302 302 302 303 303 303 306 308 308 308 308 307 306 308 308 307 306
299 302 302 305 305 306 304 305 305 306 304 305 306 306 305 305 305 306 306 305 304 304 303 303 304 301 303 303 303 301 302 302 305 305 307 308 311 307 304 305 309 310 310 309 310
304 303 303 305 305 306 304 306 306 306 306 306 306 305 306 305 306 306 306 307 305 306 305 304 303 303 303 304 302 304 302 304 305 309 312 310 312 307 305 306 310 311 310 310 311
303 304 304 304 305 306 306 307 307 306 305 307 306 307 307 306 305 305 306 307 306 306 302 303 304 305 306 303 302 307 305 306 308 310 311 309 311 309 306 311 310 311 311 310 310
305 305 306 306 306 306 306 307 305 301 307 307 306 306 307 307 307 306 307 306 305 304 302 303 304 304 304 305 303 305 308 310 310 309 309 304 310 312 311 310 309 312 311 310 311
304 306 307 307 307 307 307 305 301 307 305 306 307 307 307 307 307 308 306 305 303 300 297 302 305 304 305 306 306 308 312 312 306 305 311 307 310 310 310 308 308 311 310 307 307
306 306 306 306 307 306 305 301 302 307 307 305 307 307 308 308 307 308 307 304 306 305 300 301 304 306 306 308 311 312 313 315 315 311 311 310 312 311 309 307 307 309 307 306 305
306 306 307 307 306 306 305 305 302 306 305 305 306 306 306 308 307 307 307 307 307 304 305 307 305 305 306 307 310 313 313 313 315 311 313 308 309 312 311 307 306 306 304 303 305
307 307 307 307 306 306 303 306 304 305 305 306 307 306 308 309 308 308 308 307 309 306 307 310 310 308 309 309 309 311 310 310 312 314 313 309 311 314 312 309 307 305 302 301 303
307 308 308 308 308 307 301 304 307 307 307 307 306 307 306 308 307 308 309 307 308 307 307 310 310 307 307 310 310 311 310 310 310 311 314 315 312 312 312 309 307 304 302 301 304
308 303 308 309 307 301 305 307 308 308 308 308 306 306 306 306 308 308 310 308 308 309 311 309 311 310 308 307 306 309 309 306 309 309 308 309 312 309 310 308 306 304 303 303 305
308 308 308 309 303 298 304 306 307 307 306 307 308 307 306 307 309 308 308 309 309 308 309 308 308 308 303 303 305 309 308 307 305 304 308 310 311 307 308 308 306 306 305 305 304
306 300 308 308 305 303 305 306 307 307 307 307 307 307 307 308 306 308 309 308 309 309 310 309 305 306 306 305 305 308 307 306 306 305 307 308 308 306 307 308 307 307 306 305 305
307 303 303 300 304 303 304 306 308 308 307 307 307 307 308 309 308 308 307 307 307 309 309 306 307 302 304 305 305 306 307 305 305 305 308 307 307 306 305 306 307 307 306 303 302
307 306 304 303 303 304 305 306 307 307 307 308 308 307 306 308 307 308 307 306 306 306 306 303 306 304 302 305 305 306 305 304 305 305 305 305 307 304 306 306 306 307 305 303 303
306 306 305 301 301 303 304 306 306 306 307 307 306 305 306 305 308 308 308 307 306 306 304 304 303 302 305 303 303 304 304 304 305 304 306 308 307 304 304 303 305 306 305 304 304

GFSSW_850_thetae_108.txt.gz
Theta_e
308 307 307 308 307 306 307 309 308 311 317 317 318 319 317 315 308 306 307 307 306 304 304 308 315 315 316 315 314 311 312 314 315 314 314 313 314 312 310 310 310 311 313 314 312
307 306 306 308 308 305 305 307 308 308 313 318 317 320 318 311 307 311 307 306 304 305 303 308 313 313 312 312 313 312 312 311 312 314 314 313 311 310 309 309 309 308 308 308 308
305 305 305 305 308 307 304 304 305 307 309 314 316 318 312 307 310 313 314 310 304 305 304 305 311 309 310 310 311 312 312 311 313 312 310 309 308 307 308 309 308 308 307 307 307
303 303 304 304 307 305 306 305 304 307 307 312 314 316 312 310 316 313 311 309 304 306 305 305 306 307 310 310 307 310 309 310 309 307 307 307 306 306 306 307 307 306 306 306 306
302 302 302 304 305 305 305 303 302 306 307 310 313 316 313 312 312 313 311 305 305 306 306 306 306 307 308 307 306 307 306 306 306 306 305 305 306 306 305 306 306 305 305 306 306
303 301 301 302 303 304 305 303 302 302 307 314 311 314 312 311 311 310 306 305 305 306 306 305 306 305 306 306 307 306 306 306 305 304 304 305 306 304 307 305 306 306 307 307 308
300 300 301 303 303 303 304 302 304 303 307 311 312 312 311 308 310 306 305 305 305 305 305 304 304 306 305 306 304 305 306 305 305 305 306 305 309 307 307 306 308 309 309 309 308
300 300 301 302 301 302 301 301 304 304 310 312 310 311 307 307 305 305 305 304 304 304 304 304 303 303 305 303 303 305 306 308 306 306 306 307 312 310 307 307 310 310 309 308 308
302 302 302 301 300 300 299 299 306 304 309 312 311 309 306 305 306 306 305 304 304 304 303 303 303 304 303 306 307 307 308 308 308 306 307 308 312 311 309 309 310 310 309 309 309
301 301 300 302 306 305 305 304 306 307 310 310 310 309 307 306 306 306 305 304 304 304 304 304 304 307 307 309 313 307 308 308 308 308 308 310 311 312 311 310 310 310 310 310 310
302 302 302 306 305 304 304 308 307 306 307 307 309 308 307 307 306 305 305 305 305 306 307 304 311 309 307 305 305 306 308 309 309 307 309 312 313 313 312 311 310 311 311 312 311
302 301 304 305 304 304 306 305 305 305 306 306 307 307 306 306 306 306 305 306 307 308 306 309 309 305 305 305 307 307 309 311 310 307 310 313 313 313 311 311 311 312 312 312 312
302 303 305 306 306 305 305 305 305 306 305 306 306 306 306 306 306 306 307 306 307 308 308 309 306 304 306 306 308 309 310 311 311 310 313 312 316 312 309 309 311 311 312 313 312
304 304 305 305 304 306 306 306 306 306 310 307 307 306 306 306 307 306 306 308 307 309 308 308 305 305 306 307 307 312 307 308 310 313 316 312 318 314 310 311 312 312 311 311 311
304 304 305 305 306 306 306 307 307 306 314 307 307 306 307 306 306 306 306 308 308 307 307 307 307 308 309 309 307 311 307 309 311 312 312 313 314 315 310 313 312 311 310 310 309
306 305 305 304 305 306 307 307 304 315 310 308 307 308 308 307 307 307 307 306 306 307 306 307 305 307 308 307 306 308 311 312 311 311 314 313 314 318 314 312 311 309 309 308 306
307 306 306 306 306 307 307 304 314 311 305 308 308 308 308 308 308 308 308 309 309 314 312 308 308 307 306 311 310 310 314 318 319 318 320 311 312 316 312 310 309 309 307 307 305
306 306 307 306 307 306 305 309 310 307 307 307 307 309 310 309 309 309 309 311 308 309 311 314 315 309 308 311 314 314 314 315 319 321 318 311 315 318 312 309 308 307 305 304 305
307 307 307 307 306 306 307 310 309 308 307 308 308 310 310 309 309 310 310 310 310 308 313 314 315 308 308 309 312 314 315 313 315 315 315 317 317 313 313 311 307 306 304 303 304
308 308 307 307 306 306 310 307 308 306 306 308 310 308 311 311 311 311 312 309 310 308 309 311 314 310 311 310 311 314 312 314 316 317 319 317 315 319 314 312 309 307 304 302 304
308 308 308 309 308 308 309 309 308 307 307 309 309 309 309 311 310 311 312 310 310 309 309 311 311 312 310 313 316 314 315 314 313 314 317 316 317 315 312 310 308 306 304 304 304
308 312 308 309 312 308 311 309 308 307 308 309 308 309 310 310 311 312 312 311 309 310 312 311 312 313 313 310 309 311 312 312 313 314 314 314 315 312 311 309 307 306 304 304 305
308 308 308 308 315 312 308 308 308 309 308 309 310 309 308 310 311 311 311 310 309 311 312 312 312 314 309 309 309 311 312 311 310 310 313 315 314 312 311 309 307 307 306 305 305
307 314 308 308 306 309 310 309 310 307 308 308 309 308 309 311 309 312 312 310 309 310 309 310 311 313 312 310 308 310 310 311 311 313 312 312 312 312 312 311 309 308 307 306 306
307 306 305 312 309 307 308 309 310 310 308 307 309 310 311 311 310 311 310 309 309 310 311 311 313 312 311 311 311 311 311 310 311 311 311 311 311 311 311 312 311 309 308 308 306
307 307 305 304 304 307 307 309 309 309 308 310 310 309 309 311 311 311 310 309 310 309 311 308 313 309 309 310 309 309 309 309 310 310 310 310 310 310 310 309 310 309 309 308 305
306 306 306 303 306 308 308 308 308 308 307 307 307 308 308 308 307 308 308 307 307 309 309 309 311 310 311 309 308 309 308 308 308 308 309 310 310 310 310 308 309 309 309 307 305

GFSSW_850_thetae_111.txt.gz
Theta_e
309 308 308 308 308 307 307 309 309 310 312 314 318 320 318 314 307 308 311 310 311 305 306 313 313 315 317 318 317 314 316 317 317 316 318 315 315 314 313 312 312 313 314 314 313
306 306 307 306 308 306 307 309 309 308 312 312 317 320 317 312 311 314 311 308 305 304 309 313 313 314 314 316 315 314 315 315 315 316 316 315 313 312 311 311 311 311 310 310 309
304 305 305 306 308 308 305 304 305 307 310 312 319 317 313 312 314 315 314 309 305 305 308 311 312 312 312 313 313 313 316 313 314 314 312 311 310 309 309 311 310 309 309 309 308
301 303 304 305 307 306 306 304 304 307 307 313 316 318 311 312 316 314 312 309 306 306 307 309 310 310 312 312 310 313 312 312 311 309 309 309 308 309 309 309 309 308 308 308 308
300 301 303 305 306 306 306 304 301 307 307 315 315 314 310 314 312 312 308 306 306 307 308 308 308 309 311 310 309 310 309 308 308 307 307 306 307 308 308 308 308 308 308 309 310
300 301 302 303 303 303 305 305 300 306 311 313 312 313 312 312 310 307 306 305 307 307 308 308 308 309 309 309 310 308 308 308 307 306 306 307 308 307 309 308 309 310 312 312 312
301 300 303 302 304 305 305 301 302 305 312 313 311 310 311 309 307 306 305 305 306 307 307 307 307 309 308 308 307 307 309 308 307 307 308 307 312 310 309 309 310 312 312 312 311
302 301 302 302 304 303 302 301 305 307 310 312 312 312 306 306 307 306 306 305 305 305 305 306 307 307 308 305 306 309 308 311 308 308 308 309 312 314 310 310 311 312 312 311 311
302 301 302 301 301 301 300 301 306 308 311 310 311 309 306 306 307 307 307 306 305 304 303 303 305 306 306 309 310 309 313 310 311 309 310 311 313 313 312 313 313 313 312 312 312
302 300 302 305 302 299 300 306 306 308 310 309 308 308 306 306 307 307 306 306 306 306 306 307 307 309 309 312 321 313 310 310 310 311 310 312 313 314 314 314 314 312 313 313 313
302 303 305 305 304 303 306 307 307 306 309 309 309 308 306 306 307 307 307 307 307 308 310 307 315 315 309 307 308 309 310 311 311 311 311 314 314 315 314 313 313 313 313 314 315
302 305 304 305 304 306 307 305 305 304 305 306 307 307 307 307 307 307 307 308 309 310 308 311 312 307 307 308 309 310 311 313 313 311 313 315 315 316 313 313 312 313 313 313 313
304 305 306 305 305 306 307 306 306 307 307 307 306 307 307 308 308 308 308 308 310 311 310 313 309 307 308 309 310 311 312 313 313 314 315 315 319 315 313 311 312 313 313 312 312
305 305 305 305 306 306 307 307 306 307 312 308 308 307 307 307 308 308 308 309 309 311 311 310 306 307 308 310 310 316 310 311 314 315 320 314 321 317 315 313 313 314 312 310 310
305 305 305 307 306 307 307 307 306 307 318 308 308 308 308 309 307 307 308 309 310 309 311 310 309 310 312 312 310 314 311 313 313 313 314 316 318 318 314 315 315 312 310 309 308
305 305 307 307 307 307 308 306 305 316 312 310 309 309 309 309 309 308 308 308 308 309 310 309 307 309 311 310 309 310 314 313 313 313 319 317 316 318 318 316 313 311 309 308 307
306 306 306 305 308 308 306 305 316 313 307 309 309 309 309 309 310 310 311 311 312 314 313 311 311 309 308 314 313 314 317 323 322 322 324 313 315 317 316 314 312 309 308 306 306
306 307 307 306 307 307 306 312 312 308 309 308 309 310 311 311 311 311 312 314 311 311 314 317 316 312 311 314 315 315 316 317 319 323 321 314 317 320 315 313 311 308 306 305 305
307 306 306 306 306 306 310 314 310 310 309 309 310 312 312 311 311 312 313 313 311 311 316 318 317 310 310 311 314 316 316 314 316 315 315 318 319 317 315 313 310 308 307 304 304
308 309 307 307 306 310 312 310 310 309 309 310 310 311 312 312 313 313 314 311 312 310 311 313 318 312 313 312 312 315 314 315 316 317 319 319 318 320 316 313 311 309 306 304 305
307 312 308 309 311 311 315 311 309 308 309 311 311 311 312 313 313 313 313 312 311 311 311 312 314 315 311 314 317 315 315 314 314 314 316 315 318 318 315 313 311 309 306 305 305
310 315 308 311 315 313 314 310 308 309 309 311 310 312 313 312 313 313 314 313 311 311 313 313 314 316 315 313 313 314 315 314 314 313 314 314 314 315 314 312 310 308 306 306 305
311 311 308 311 317 314 311 310 310 311 311 311 312 312 311 312 313 313 312 312 311 312 313 313 315 316 314 311 311 312 312 313 314 312 312 312 313 315 313 312 311 309 308 307 307
310 316 312 310 310 312 312 312 312 309 310 310 311 311 311 312 312 313 313 312 311 312 310 311 313 314 314 312 312 312 311 312 313 314 312 313 312 313 314 314 312 310 309 308 308
309 310 308 315 311 311 311 311 312 312 310 310 311 312 312 313 312 312 312 311 310 311 312 313 314 313 313 312 311 311 311 311 312 312 313 312 310 310 311 312 312 312 311 310 309
311 311 307 309 308 311 309 312 311 311 311 311 311 311 311 312 312 312 311 311 311 311 312 312 313 312 311 310 310 310 310 311 311 311 311 311 312 311 310 310 311 311 312 310 310
306 306 308 307 310 310 311 311 311 310 310 310 310 310 310 310 309 309 309 310 310 310 312 312 312 312 312 311 311 312 311 310 309 310 310 311 310 310 311 311 311 311 312 311 310

GFSSW_850_thetae_114.txt.gz
Theta_e
309 309 310 310 309 307 307 309 310 310 312 314 317 320 318 312 306 312 314 311 312 307 311 313 314 318 319 319 317 314 317 317 317 316 317 315 316 314 313 312 312 312 313 313 311
305 307 308 308 309 307 308 309 310 309 310 310 316 319 316 309 314 315 312 307 305 307 312 314 314 316 316 317 315 315 316 316 315 315 315 314 312 311 311 311 311 312 311 310 309
304 305 306 306 308 307 307 309 308 308 311 310 313 318 311 313 316 316 313 305 304 309 310 313 313 313 314 314 314 313 316 314 314 313 311 311 310 310 309 309 310 309 309 309 309
302 304 305 307 307 308 306 306 305 307 311 313 313 317 313 314 318 314 311 305 305 306 310 312 311 311 313 313 311 313 312 312 312 309 309 309 308 308 309 309 309 308 308 308 309
301 303 305 306 306 306 306 303 302 307 310 312 313 314 314 312 310 309 307 305 305 308 308 309 310 311 312 311 309 311 310 309 308 308 307 306 307 307 308 308 309 308 309 311 312
302 302 304 304 303 303 305 303 304 307 309 313 313 313 313 310 308 307 306 307 308 308 308 308 309 309 309 309 310 309 309 309 307 307 307 307 308 308 309 308 309 310 312 312 312
301 302 302 302 304 305 304 302 306 309 312 312 311 311 310 306 307 307 307 306 308 308 308 308 308 309 309 309 308 307 308 308 308 308 309 308 310 309 309 310 309 310 312 313 312
302 302 303 304 305 304 301 304 304 307 313 311 311 311 306 307 308 307 307 306 306 307 306 306 308 308 308 307 307 308 308 310 308 308 309 309 310 312 311 310 311 312 313 313 312
302 302 302 304 302 301 302 304 309 311 311 310 311 311 306 306 307 307 307 306 305 304 304 304 307 307 307 309 309 308 309 310 310 309 310 310 311 311 312 312 313 314 314 312 313
302 304 304 302 300 299 306 306 310 309 310 310 309 308 306 307 307 307 307 307 307 306 306 307 308 309 309 314 317 311 309 310 310 310 310 310 310 311 312 314 314 314 313 313 314
305 305 304 302 300 308 307 307 308 307 308 308 307 307 306 307 307 307 307 308 308 309 309 308 315 314 307 307 308 309 309 310 311 310 311 311 312 313 314 314 313 313 313 313 313
305 305 303 302 306 308 307 306 305 306 305 306 306 307 307 307 308 308 309 309 310 310 308 312 310 308 308 309 310 310 311 313 313 311 313 313 314 314 315 313 312 312 313 312 311
305 304 305 306 307 306 306 307 307 307 305 306 307 307 307 308 309 308 310 309 311 311 311 312 309 307 309 309 311 311 312 312 313 313 314 314 315 314 313 312 312 313 312 311 309
305 306 305 306 307 308 308 307 307 309 310 308 308 307 308 308 308 308 309 310 310 311 311 309 307 308 309 310 310 316 311 312 314 313 314 312 313 316 311 311 312 312 311 310 309
305 306 308 308 308 308 307 306 305 310 312 308 309 308 309 309 307 308 308 310 311 309 311 310 309 310 312 310 310 314 311 313 313 313 311 315 312 316 312 313 313 311 310 309 307
305 306 307 308 308 307 306 305 309 315 310 310 309 309 310 309 309 309 309 308 309 310 310 309 308 309 311 311 310 311 313 315 313 313 315 313 313 313 315 314 314 311 309 308 306
307 307 308 308 309 307 306 308 312 312 307 309 309 310 310 310 310 311 312 311 312 313 310 311 311 310 309 313 312 313 314 313 314 321 315 313 310 312 313 313 311 309 309 307 306
307 307 307 305 306 307 306 311 310 308 310 309 310 310 311 311 311 311 313 312 310 312 313 313 310 312 311 313 315 315 315 309 314 314 312 313 309 314 314 313 311 309 308 306 305
307 307 307 306 306 306 309 311 310 310 309 310 310 312 312 310 311 313 313 313 311 311 315 312 314 310 311 312 313 315 315 313 311 312 311 311 314 315 313 313 311 309 308 305 305
308 310 308 308 310 311 312 311 310 309 310 311 311 310 313 312 313 314 314 312 312 311 311 313 314 313 312 312 312 314 313 313 314 310 313 312 317 315 315 313 312 309 307 305 305
310 313 308 310 313 312 313 310 309 309 310 311 311 311 312 313 313 313 313 311 311 311 311 312 313 313 312 313 316 313 314 313 312 312 311 312 310 318 313 312 312 309 307 306 305
312 317 308 313 316 313 313 311 310 310 310 311 311 312 313 312 313 313 313 313 311 312 313 312 312 312 314 313 312 313 314 312 311 312 311 311 311 314 313 312 311 310 308 307 306
311 312 310 314 318 314 311 311 311 311 311 312 312 312 311 313 313 313 312 311 311 312 313 312 313 309 314 311 311 311 311 312 312 311 311 309 307 313 312 312 311 310 309 308 306
312 313 313 311 312 312 312 312 312 310 311 311 312 311 312 312 312 313 312 312 311 312 311 311 312 311 310 311 311 311 311 310 311 310 311 310 309 309 310 311 311 311 310 309 308
311 310 310 316 312 311 312 312 312 312 311 310 312 312 312 313 312 312 312 311 311 311 311 311 311 310 311 311 311 310 310 310 310 310 311 310 309 309 308 308 309 312 311 310 309
312 311 309 310 309 311 309 312 312 312 311 312 311 312 311 312 312 312 311 311 310 311 311 311 309 310 307 309 309 309 309 309 309 310 310 310 310 309 309 310 310 310 311 311 311
307 307 309 309 310 310 311 312 311 310 311 310 310 310 310 310 309 309 309 309 309 310 310 311 309 308 309 309 309 309 309 309 309 308 308 309 309 307 307 309 310 311 311 312 312

GFSSW_850_thetae_117.txt.gz
Theta_e
310 311 311 309 309 308 309 310 310 312 315 317 317 319 314 306 310 313 313 311 308 310 311 315 318 319 319 319 315 313 312 313 314 316 315 314 314 314 313 312 311 312 312 311 309
305 308 307 309 309 308 308 309 309 309 311 314 319 319 308 313 315 313 314 309 306 311 313 314 317 318 317 316 313 313 311 314 313 312 313 312 311 310 310 309 310 311 310 310 309
305 305 306 307 308 307 308 309 308 308 309 310 318 316 309 315 315 314 311 305 306 312 313 313 315 314 314 314 313 312 312 312 312 311 311 310 309 309 309 308 308 308 309 309 308
304 305 307 307 308 308 306 305 307 307 311 310 317 316 311 315 315 308 309 305 308 310 312 312 313 312 311 310 311 310 310 311 311 308 308 308 308 307 308 308 308 308 308 308 311
304 305 306 307 306 306 303 302 305 307 312 313 314 315 314 310 307 307 306 306 306 311 311 311 310 311 309 309 308 308 308 308 308 307 307 306 306 305 307 308 308 308 309 312 312
301 302 305 305 303 305 304 302 306 308 311 312 315 314 314 307 307 306 307 307 308 308 308 308 309 309 309 308 308 309 308 308 307 306 306 307 307 307 308 309 308 309 311 311 312
302 302 302 302 305 305 303 305 308 313 313 311 311 313 309 306 307 306 306 307 308 308 308 308 309 309 309 307 307 307 307 306 306 307 307 307 307 307 308 309 309 310 311 312 313
302 304 304 305 305 302 304 306 309 311 311 310 312 311 306 307 307 307 306 306 307 307 308 308 309 309 308 307 306 307 305 307 307 307 308 307 304 310 310 310 310 312 312 313 313
301 303 304 303 301 303 306 310 311 312 311 311 311 310 306 307 307 307 306 305 305 305 305 306 306 306 307 305 304 305 306 308 308 309 309 308 307 309 310 310 310 312 313 313 314
305 304 304 300 301 308 309 310 310 309 310 309 309 309 307 307 307 307 306 306 304 306 306 307 309 304 303 307 308 308 307 308 309 309 309 308 308 308 310 311 312 313 312 313 313
304 304 301 302 307 307 309 309 309 307 307 307 307 306 306 307 308 307 308 307 308 308 305 309 303 301 306 307 307 308 309 308 310 309 311 309 309 310 311 312 313 312 313 313 313
302 300 302 308 307 308 308 307 306 307 307 308 307 308 308 308 308 309 309 309 309 306 308 304 303 307 307 308 309 309 309 310 310 312 312 311 312 312 312 312 312 312 312 312 311
304 305 307 307 307 308 307 307 307 307 308 308 308 308 308 308 308 308 309 309 308 308 308 306 307 307 308 308 310 309 310 310 311 311 311 311 311 313 312 311 312 312 311 310 309
303 305 307 307 309 309 309 308 307 308 306 308 308 308 308 308 307 308 309 310 309 309 307 306 306 308 308 308 308 312 310 311 313 308 308 310 308 311 310 309 310 310 310 309 308
305 307 308 308 308 307 306 305 305 310 308 308 309 308 309 308 307 307 309 309 309 309 308 307 307 309 311 307 309 312 310 311 313 310 306 310 307 310 309 310 311 309 309 309 307
308 308 308 308 308 307 306 305 309 307 308 309 309 310 310 309 309 309 309 308 308 309 307 307 308 308 310 310 309 310 312 313 313 313 311 307 310 309 311 312 312 310 309 308 307
308 308 308 308 308 307 306 309 303 305 306 309 309 309 309 310 310 310 310 310 307 300 301 308 309 309 309 311 311 311 311 304 313 311 311 311 304 310 311 312 310 309 308 307 306
307 307 307 306 306 306 307 303 303 305 308 308 309 309 310 309 310 310 311 307 309 310 306 302 301 310 309 312 313 313 310 303 305 307 308 306 307 309 311 311 311 310 308 307 305
308 308 308 308 307 308 310 303 302 306 308 309 310 310 310 310 310 311 311 310 310 309 309 304 307 310 309 311 312 314 310 311 305 304 303 303 308 311 311 309 309 309 308 307 305
308 310 308 311 311 311 305 307 307 308 309 309 310 309 311 311 311 311 311 310 310 310 310 312 309 311 311 311 311 313 312 309 307 305 309 305 309 312 313 310 310 308 308 307 306
312 312 308 310 313 310 302 305 308 308 309 310 310 310 310 312 311 312 312 310 310 310 310 311 309 311 311 311 312 311 312 312 310 308 308 310 306 309 311 310 309 309 309 307 306
312 307 311 313 310 308 303 309 309 309 310 310 310 310 311 311 312 312 311 312 311 310 312 311 310 308 310 309 310 310 311 310 308 310 307 307 307 308 312 310 311 310 309 308 307
310 312 311 313 305 301 309 310 310 309 310 311 311 311 310 311 311 311 311 311 311 311 311 310 309 303 308 307 309 310 309 310 310 308 308 308 307 310 311 311 311 310 310 309 308
311 304 311 311 311 308 310 311 310 310 310 310 310 310 310 311 311 311 311 311 311 311 311 310 309 307 303 307 309 310 309 309 310 305 308 310 309 307 308 308 310 311 312 311 310
311 306 309 305 309 309 310 310 311 311 310 310 310 310 311 311 310 310 310 310 310 311 310 309 309 307 308 308 309 310 310 309 309 309 309 309 307 308 306 305 307 309 309 310 311
310 310 309 309 309 309 308 311 311 310 310 310 310 310 310 310 310 310 309 309 308 309 309 309 306 308 303 307 307 307 307 308 308 308 309 309 308 308 308 308 307 308 309 309 310
307 307 308 308 307 306 307 310 310 309 310 310 309 308 308 308 308 308 308 309 308 308 308 308 306 304 306 306 305 306 307 306 306 306 308 308 308 306 306 306 307 308 309 310 310